[[{"header":{"parameterUnit":"m.s-1","parameterCategory":1,"la1":30.6,"la2":29.2853,"lo1":-89.7004,"lo2":-87.6739,"dy":0.0162,"dx":0.0183,"nx":112,"ny":82,"refTime":"2024-09-21T12:00:00:Z","depth":0,"parameterNumber":2,"parameterNumberName":"U-component_of_WINDS"},"data":[0.0,0.0,0.0,0.0,0.0,0.0,0.0,0.0,0.0,0.0,0.0,0.0,0.0,0.0,0.0,0.0,0.0,0.0,0.0,0.0,0.0,0.0,0.0,0.0,0.0,0.0,0.0,0.0,0.0,0.0,0.0,0.0,0.0,0.0,0.0,0.0,0.0,0.0,0.0,0.0,0.0,0.0,0.0,0.0,0.0,0.0,0.0,0.0,0.0,0.0,0.0,0.0,0.0,0.0,0.0,0.0,0.0,0.0,0.0,0.0,0.0,0.0,0.0,0.0,0.0,0.0,0.0,0.0,0.0,0.0,0.0,0.0,0.0,0.0,0.0,0.0,0.0,0.0,0.0,0.0,0.0,0.0,0.0,0.0,0.0,0.0,0.0,0.0,0.0,0.0,-1.7702,-1.9271,-1.984,-1.9978,-1.9625,-1.9904,-1.9606,-1.8434,0.0,0.0,0.0,0.0,0.0,0.0,0.0,0.0,0.0,0.0,0.0,0.0,0.0,0.0,0.0,0.0,0.0,0.0,0.0,0.0,0.0,0.0,0.0,0.0,0.0,0.0,0.0,0.0,0.0,0.0,0.0,0.0,0.0,0.0,0.0,0.0,0.0,0.0,0.0,0.0,0.0,0.0,0.0,0.0,0.0,0.0,0.0,0.0,0.0,0.0,0.0,0.0,0.0,0.0,0.0,0.0,0.0,0.0,0.0,0.0,0.0,0.0,0.0,0.0,0.0,0.0,0.0,0.0,0.0,0.0,0.0,0.0,0.0,0.0,0.0,0.0,0.0,0.0,0.0,0.0,0.0,0.0,0.0,0.0,0.0,0.0,0.0,0.0,0.0,0.0,0.0,0.0,0.0,0.0,0.0,0.0,0.0,0.0,0.0,0.0,0.0,0.0,0.0,0.0,-1.8848,-1.9955,-1.9846,-1.9662,-1.9606,-1.9662,-1.9249,-1.8211,0.0,0.0,0.0,0.0,0.0,0.0,0.0,0.0,0.0,0.0,0.0,0.0,0.0,0.0,0.0,0.0,0.0,0.0,0.0,0.0,0.0,0.0,0.0,0.0,0.0,0.0,0.0,0.0,0.0,0.0,0.0,0.0,0.0,0.0,0.0,0.0,0.0,0.0,0.0,0.0,0.0,0.0,0.0,0.0,0.0,0.0,0.0,0.0,0.0,0.0,0.0,0.0,0.0,0.0,0.0,0.0,0.0,0.0,0.0,0.0,0.0,0.0,0.0,0.0,0.0,0.0,0.0,0.0,0.0,0.0,0.0,0.0,0.0,0.0,0.0,0.0,0.0,0.0,0.0,0.0,0.0,0.0,0.0,0.0,0.0,0.0,0.0,0.0,0.0,0.0,0.0,0.0,0.0,0.0,0.0,0.0,0.0,0.0,0.0,0.0,0.0,0.0,0.0,-1.7721,-1.8963,-1.9632,-1.954,-1.9449,-1.9449,-1.9449,-1.9058,-1.8155,-1.7697,0.0,0.0,0.0,0.0,0.0,0.0,0.0,0.0,0.0,0.0,0.0,0.0,0.0,0.0,0.0,0.0,0.0,0.0,0.0,0.0,0.0,0.0,0.0,0.0,0.0,0.0,0.0,0.0,0.0,0.0,0.0,0.0,0.0,0.0,0.0,0.0,0.0,0.0,0.0,0.0,0.0,0.0,0.0,0.0,0.0,0.0,0.0,0.0,0.0,0.0,0.0,0.0,0.0,0.0,0.0,0.0,0.0,0.0,0.0,0.0,0.0,0.0,0.0,0.0,0.0,0.0,0.0,0.0,0.0,0.0,0.0,0.0,0.0,0.0,0.0,0.0,0.0,0.0,0.0,0.0,0.0,0.0,0.0,0.0,0.0,0.0,0.0,0.0,0.0,0.0,0.0,0.0,0.0,0.0,0.0,0.0,0.0,0.0,0.0,0.0,0.0,0.0,-1.7613,-1.8158,-1.8765,-1.8929,-1.8995,-1.8995,-1.9009,-1.8741,-1.8137,-1.7183,0.0,0.0,0.0,0.0,0.0,0.0,0.0,0.0,0.0,0.0,0.0,0.0,0.0,0.0,0.0,0.0,0.0,0.0,0.0,0.0,0.0,0.0,0.0,0.0,0.0,0.0,0.0,0.0,0.0,0.0,0.0,0.0,0.0,0.0,0.0,0.0,0.0,0.0,0.0,0.0,0.0,0.0,0.0,0.0,0.0,0.0,0.0,0.0,0.0,0.0,0.0,0.0,0.0,0.0,0.0,0.0,0.0,0.0,0.0,0.0,0.0,0.0,0.0,0.0,0.0,0.0,0.0,0.0,0.0,0.0,0.0,0.0,0.0,0.0,0.0,0.0,0.0,0.0,0.0,0.0,0.0,0.0,0.0,0.0,0.0,0.0,0.0,0.0,0.0,0.0,0.0,0.0,0.0,0.0,0.0,0.0,0.0,0.0,0.0,0.0,0.0,0.0,-1.595,-1.6091,-1.7295,-1.7835,-1.8098,-1.8098,-1.8154,-1.8173,-1.81,-1.6652,0.0,0.0,0.0,0.0,0.0,0.0,0.0,0.0,0.0,0.0,0.0,0.0,0.0,0.0,0.0,0.0,0.0,0.0,0.0,0.0,0.0,0.0,0.0,0.0,0.0,0.0,0.0,0.0,0.0,0.0,0.0,0.0,0.0,0.0,0.0,0.0,0.0,0.0,0.0,0.0,0.0,0.0,0.0,0.0,0.0,0.0,0.0,0.0,0.0,0.0,0.0,0.0,0.0,0.0,0.0,0.0,0.0,0.0,0.0,0.0,0.0,0.0,0.0,0.0,0.0,0.0,0.0,0.0,0.0,0.0,0.0,0.0,0.0,0.0,0.0,0.0,0.0,0.0,0.0,0.0,0.0,0.0,0.0,0.0,0.0,0.0,0.0,0.0,0.0,0.0,0.0,0.0,0.0,0.0,0.0,0.0,0.0,0.0,0.0,0.0,0.0,0.0,-1.5876,-1.6123,0.0,-1.7576,-1.7997,-1.7997,-1.7867,-1.7776,-1.7734,0.0,0.0,0.0,0.0,0.0,0.0,0.0,0.0,0.0,0.0,0.0,0.0,0.0,0.0,0.0,0.0,0.0,0.0,0.0,0.0,0.0,0.0,0.0,0.0,0.0,0.0,0.0,0.0,0.0,0.0,0.0,0.0,0.0,0.0,0.0,0.0,0.0,0.0,0.0,0.0,0.0,0.0,0.0,0.0,0.0,0.0,0.0,0.0,0.0,0.0,0.0,0.0,0.0,0.0,0.0,0.0,0.0,0.0,0.0,0.0,0.0,0.0,0.0,0.0,0.0,0.0,0.0,0.0,0.0,0.0,0.0,0.0,0.0,0.0,0.0,0.0,0.0,0.0,0.0,0.0,0.0,0.0,0.0,0.0,0.0,0.0,0.0,0.0,0.0,0.0,0.0,0.0,0.0,0.0,0.0,0.0,0.0,0.0,0.0,0.0,0.0,0.0,-1.4789,-1.5227,-1.5574,0.0,-1.6657,-1.7168,-1.7168,-1.6943,-1.681,-1.6773,0.0,0.0,0.0,0.0,0.0,0.0,0.0,0.0,0.0,0.0,0.0,0.0,0.0,0.0,0.0,0.0,0.0,0.0,0.0,0.0,0.0,0.0,0.0,0.0,0.0,0.0,0.0,0.0,0.0,0.0,0.0,0.0,0.0,0.0,0.0,0.0,0.0,0.0,0.0,0.0,0.0,0.0,0.0,0.0,0.0,0.0,0.0,0.0,0.0,0.0,0.0,0.0,0.0,0.0,0.0,0.0,0.0,0.0,0.0,0.0,0.0,0.0,0.0,0.0,0.0,0.0,0.0,0.0,0.0,0.0,0.0,0.0,0.0,0.0,0.0,0.0,0.0,0.0,0.0,0.0,0.0,0.0,0.0,0.0,0.0,0.0,0.0,0.0,0.0,0.0,0.0,0.0,0.0,0.0,0.0,0.0,0.0,0.0,0.0,0.0,0.0,0.0,-1.3113,-1.3721,-1.4103,-1.4103,-1.4887,-1.5394,-1.5394,-1.5203,-1.5123,0.0,0.0,0.0,0.0,0.0,0.0,0.0,0.0,0.0,0.0,0.0,0.0,0.0,0.0,0.0,0.0,0.0,0.0,0.0,0.0,0.0,0.0,0.0,0.0,0.0,0.0,0.0,0.0,0.0,0.0,0.0,0.0,0.0,0.0,0.0,0.0,0.0,0.0,0.0,0.0,0.0,0.0,0.0,0.0,0.0,0.0,0.0,0.0,0.0,0.0,0.0,0.0,0.0,0.0,0.0,0.0,0.0,0.0,0.0,0.0,0.0,0.0,0.0,0.0,0.0,0.0,0.0,0.0,0.0,0.0,0.0,0.0,0.0,0.0,0.0,0.0,0.0,0.0,0.0,0.0,0.0,0.0,0.0,0.0,0.0,0.0,0.0,0.0,0.0,0.0,0.0,0.0,0.0,0.0,0.0,0.0,0.0,0.0,0.0,0.0,0.0,0.0,0.0,-1.3113,-1.3721,-1.4103,-1.4103,-1.4887,-1.5394,-1.5394,-1.4959,-1.4824,-1.512,0.0,0.0,0.0,0.0,0.0,0.0,0.0,0.0,0.0,0.0,0.0,0.0,0.0,0.0,0.0,0.0,0.0,0.0,0.0,0.0,0.0,0.0,0.0,0.0,0.0,0.0,0.0,0.0,0.0,0.0,0.0,0.0,0.0,0.0,0.0,0.0,0.0,0.0,0.0,0.0,0.0,0.0,0.0,0.0,0.0,0.0,0.0,0.0,0.0,0.0,0.0,0.0,0.0,0.0,0.0,0.0,0.0,0.0,0.0,0.0,0.0,0.0,0.0,0.0,0.0,0.0,0.0,0.0,0.0,0.0,0.0,0.0,0.0,0.0,0.0,0.0,0.0,0.0,0.0,0.0,0.0,0.0,0.0,0.0,0.0,0.0,0.0,0.0,0.0,0.0,0.0,0.0,0.0,0.0,0.0,0.0,0.0,0.0,0.0,0.0,0.0,0.0,-1.3113,-1.3721,-1.4103,-1.4103,-1.4573,-1.4887,-1.4887,-1.4435,-1.4136,-1.4167,0.0,0.0,0.0,0.0,0.0,0.0,0.0,0.0,0.0,0.0,0.0,0.0,0.0,0.0,0.0,0.0,0.0,0.0,0.0,0.0,0.0,0.0,0.0,0.0,0.0,0.0,0.0,0.0,0.0,0.0,0.0,0.0,0.0,0.0,0.0,0.0,0.0,0.0,0.0,0.0,0.0,0.0,0.0,0.0,0.0,0.0,0.0,0.0,0.0,0.0,0.0,0.0,0.0,0.0,0.0,0.0,0.0,0.0,0.0,0.0,0.0,0.0,0.0,0.0,0.0,0.0,0.0,0.0,0.0,0.0,0.0,0.0,0.0,0.0,0.0,0.0,0.0,0.0,0.0,0.0,0.0,0.0,0.0,0.0,0.0,0.0,0.0,0.0,0.0,0.0,0.0,0.0,0.0,0.0,0.0,0.0,0.0,0.0,0.0,0.0,0.0,0.0,-1.3134,-1.3734,-1.4103,-1.4103,-1.4103,-1.4103,-1.4103,-1.3794,-1.3393,-1.2904,0.0,0.0,0.0,0.0,0.0,0.0,0.0,0.0,0.0,0.0,0.0,0.0,0.0,0.0,0.0,0.0,0.0,0.0,0.0,0.0,0.0,0.0,0.0,0.0,0.0,0.0,0.0,0.0,0.0,0.0,0.0,0.0,0.0,0.0,0.0,0.0,0.0,0.0,0.0,0.0,0.0,0.0,0.0,0.0,0.0,0.0,0.0,0.0,0.0,0.0,0.0,0.0,0.0,0.0,0.0,0.0,0.0,0.0,0.0,0.0,-1.1954,0.0,0.0,0.0,0.0,0.0,0.0,0.0,0.0,0.0,0.0,0.0,0.0,0.0,0.0,0.0,0.0,0.0,0.0,0.0,0.0,0.0,0.0,0.0,0.0,0.0,0.0,0.0,0.0,0.0,0.0,0.0,0.0,0.0,0.0,0.0,0.0,0.0,0.0,0.0,0.0,0.0,-1.3204,-1.3764,-1.4103,-1.4103,-1.4103,-1.4103,-1.4103,-1.3794,-1.3547,-1.3447,-1.2665,0.0,0.0,0.0,0.0,0.0,0.0,0.0,0.0,0.0,0.0,0.0,0.0,0.0,0.0,0.0,0.0,0.0,0.0,0.0,0.0,0.0,0.0,0.0,0.0,0.0,0.0,0.0,0.0,0.0,0.0,0.0,0.0,0.0,0.0,0.0,0.0,0.0,0.0,0.0,0.0,0.0,0.0,0.0,0.0,0.0,0.0,0.0,0.0,0.0,0.0,0.0,0.0,0.0,0.0,0.0,0.0,0.0,0.0,0.0,0.0,-1.1237,0.0,0.0,0.0,0.0,0.0,0.0,0.0,0.0,0.0,0.0,0.0,0.0,0.0,0.0,0.0,0.0,0.0,0.0,0.0,0.0,0.0,0.0,0.0,0.0,0.0,0.0,0.0,0.0,0.0,0.0,0.0,0.0,0.0,0.0,0.0,0.0,0.0,0.0,0.0,0.0,-1.3078,-1.369,-1.4103,-1.4103,-1.4103,-1.4103,-1.4103,-1.3948,-1.378,-1.3613,-1.306,0.0,0.0,0.0,0.0,0.0,0.0,0.0,0.0,0.0,0.0,0.0,0.0,0.0,0.0,0.0,0.0,0.0,0.0,0.0,0.0,0.0,0.0,0.0,0.0,0.0,0.0,0.0,0.0,0.0,0.0,0.0,0.0,0.0,0.0,0.0,0.0,0.0,0.0,0.0,0.0,0.0,0.0,0.0,0.0,0.0,0.0,0.0,0.0,0.0,0.0,0.0,0.0,0.0,-1.0928,-1.1088,-1.1063,-1.0863,-1.0903,-1.1054,-1.0178,-1.0014,-1.0398,0.0,0.0,0.0,0.0,0.0,0.0,0.0,0.0,0.0,0.0,0.0,0.0,0.0,0.0,0.0,0.0,0.0,0.0,0.0,0.0,0.0,0.0,0.0,0.0,0.0,-0.8235,-0.8588,0.0,0.0,0.0,0.0,0.0,0.0,0.0,0.0,0.0,0.0,0.0,0.0,-1.243,-1.3087,-1.3591,-1.3765,-1.3794,-1.387,-1.4082,-1.4103,-1.3988,-1.3693,-1.342,-1.3167,0.0,0.0,0.0,0.0,0.0,0.0,0.0,0.0,0.0,0.0,0.0,0.0,0.0,0.0,0.0,0.0,0.0,0.0,0.0,0.0,0.0,0.0,0.0,0.0,0.0,0.0,0.0,0.0,0.0,0.0,0.0,0.0,-0.8402,-0.867,0.0,0.0,0.0,0.0,0.0,0.0,0.0,0.0,0.0,0.0,0.0,0.0,0.0,-1.0772,-1.0706,-1.1196,-1.1432,-1.1457,-1.1953,-1.2194,-1.2167,-1.1154,-1.0731,-1.0693,-0.9537,0.0,-1.1049,-1.0762,0.0,0.0,0.0,0.0,0.0,0.0,0.0,0.0,0.0,0.0,0.0,0.0,0.0,0.0,0.0,0.0,0.0,0.0,0.0,0.0,0.0,0.0,-0.8526,-0.8437,-0.854,-0.8681,0.0,-0.8989,-0.9377,-1.0298,0.0,0.0,0.0,0.0,0.0,0.0,0.0,0.0,-1.0611,-1.0987,-1.1575,-1.2443,-1.2547,-1.2963,-1.4018,-1.4103,-1.4089,-1.4028,-1.3727,-1.3558,-1.3582,-1.3093,0.0,0.0,0.0,0.0,0.0,0.0,0.0,0.0,0.0,0.0,0.0,0.0,0.0,0.0,0.0,0.0,0.0,0.0,0.0,0.0,0.0,0.0,0.0,0.0,0.0,0.0,0.0,0.0,0.0,-0.7045,-0.7609,-0.7902,-0.8645,-0.9179,0.0,0.0,0.0,0.0,0.0,0.0,0.0,0.0,0.0,-1.0532,-1.0515,-1.0359,-1.0023,-1.0159,-1.0264,-1.0264,-1.0382,-1.0433,-1.0406,-0.9919,-0.9699,-0.9671,-0.9127,-0.9281,-0.9928,-1.0119,-1.0129,-0.9994,0.0,0.0,0.0,0.0,-0.8693,-0.8208,-0.8432,-0.8419,0.0,0.0,0.0,0.0,0.0,0.0,0.0,0.0,0.0,0.0,0.0,0.0,0.0,-0.8696,-0.8764,-0.8811,-0.8811,-0.8895,-0.9164,0.0,-0.9724,-0.9569,-0.9813,0.0,0.0,0.0,0.0,-1.026,-1.0282,-1.06,-1.0975,-1.14,-1.1402,-1.1552,-1.2089,-1.2194,-1.2252,-1.2252,-1.221,-1.2212,-1.2237,-1.1835,-1.1469,0.0,0.0,0.0,0.0,0.0,0.0,0.0,0.0,0.0,0.0,0.0,0.0,0.0,0.0,0.0,0.0,0.0,0.0,0.0,0.0,0.0,0.0,0.0,0.0,0.0,0.0,0.0,0.0,-0.6754,-0.707,-0.7403,-0.8058,-0.851,0.0,0.0,0.0,0.0,0.0,0.0,-1.0906,-1.0923,-1.0665,-1.008,-1.0067,-0.985,-0.941,-0.9294,-0.924,-0.924,-0.8978,-0.8855,-0.8855,-0.8732,-0.8663,-0.8663,-0.8663,-0.8663,-0.872,-0.9343,-0.9567,-0.9553,-1.0061,-0.9869,-0.9312,-0.9564,-0.9106,-0.8407,-0.8682,-0.8647,-0.8454,-0.8381,0.0,-0.7718,-0.7547,0.0,0.0,0.0,0.0,-0.8085,-0.8441,-0.8441,-0.8414,-0.8632,-0.8663,-0.8685,-0.8768,-0.8795,-0.8927,0.0,-0.9279,-0.9225,-0.9532,0.0,0.0,0.0,0.0,-0.9732,-0.9618,-0.9822,-1.0088,-1.0346,-1.0243,-1.0291,-1.0594,-1.073,-1.0793,-1.0793,-1.0992,-1.1086,-1.1099,-1.0778,-1.0548,-1.0401,0.0,0.0,0.0,0.0,0.0,0.0,0.0,0.0,0.0,0.0,0.0,0.0,0.0,0.0,0.0,0.0,0.0,0.0,0.0,0.0,0.0,0.0,0.0,0.0,0.0,0.0,0.0,0.0,0.0,-0.7576,-0.7646,0.0,0.0,0.0,0.0,-0.9553,-0.9948,-1.0312,-1.0683,-1.0715,-1.0331,-0.947,-0.9441,-0.9425,-0.941,-0.9403,-0.9396,-0.9396,-0.8933,-0.8719,-0.8684,-0.8242,-0.8042,-0.8042,-0.8042,-0.8042,-0.8091,-0.8574,-0.8832,-0.8941,-0.8845,-0.8845,-0.892,-0.8934,-0.8768,-0.8486,-0.8506,-0.8224,-0.7858,-0.7987,-0.7852,-0.763,-0.774,-0.7685,0.0,0.0,-0.7907,-0.8011,-0.8029,-0.8029,-0.8029,-0.8042,-0.8042,-0.8131,-0.8457,-0.8512,-0.8577,0.0,-0.853,-0.8254,-0.7963,0.0,-0.7526,-0.7519,-0.7651,-0.7748,-0.7724,-0.7748,-0.8127,-0.9083,-0.9062,-0.9432,-1.0508,-1.073,-1.0793,-1.0793,-1.0992,-1.1086,-1.11,-1.0836,-1.0606,-1.0389,-1.001,0.0,0.0,0.0,0.0,0.0,0.0,0.0,0.0,0.0,0.0,0.0,0.0,0.0,0.0,0.0,0.0,0.0,0.0,0.0,0.0,0.0,0.0,0.0,0.0,0.0,0.0,0.0,0.0,-0.7323,-0.7372,0.0,-0.7511,-0.774,-0.8104,-0.8645,-0.889,-0.9107,-0.9328,-0.9341,-0.9268,-0.9097,-0.9074,-0.9074,-0.9074,-0.8949,-0.8875,-0.8868,-0.8526,-0.8391,-0.8357,-0.8109,-0.7992,-0.7992,-0.7992,-0.7992,-0.8014,-0.8185,-0.8281,-0.8318,-0.8268,-0.8281,-0.8325,-0.8325,-0.8269,-0.818,-0.818,-0.8066,-0.7898,-0.7781,-0.7684,-0.7586,-0.7463,-0.75,-0.7613,-0.7661,-0.7846,-0.7992,-0.7992,-0.7992,-0.7992,-0.7992,-0.7992,-0.8042,-0.8152,-0.818,-0.8145,-0.8028,-0.8217,-0.8308,-0.7882,-0.7726,-0.7651,-0.7651,-0.7699,-0.7773,-0.7844,-0.777,-0.7845,-0.8103,-0.8084,-0.8185,-0.8521,-0.8672,-0.8729,-0.8729,-0.8807,-0.8847,-0.8847,-0.8769,-0.8637,-0.8474,-0.8198,-0.7924,0.0,0.0,0.0,0.0,0.0,0.0,0.0,0.0,0.0,0.0,0.0,0.0,0.0,0.0,0.0,0.0,0.0,0.0,0.0,0.0,0.0,0.0,0.0,0.0,0.0,0.0,-0.6957,-0.7183,-0.7269,-0.7342,-0.7479,-0.7804,-0.8067,-0.8205,-0.8353,-0.855,-0.8678,-0.869,-0.8757,-0.8885,-0.8885,-0.8885,-0.8885,-0.8763,-0.869,-0.8684,-0.8377,-0.8187,-0.811,-0.7866,-0.775,-0.7743,-0.7756,-0.7774,-0.7774,-0.7774,-0.7774,-0.7774,-0.7949,-0.7992,-0.7992,-0.7992,-0.7937,-0.7854,-0.7765,-0.7737,-0.7709,-0.7521,-0.7465,-0.7438,-0.7265,-0.7321,-0.7465,-0.7465,-0.7604,-0.7737,-0.7737,-0.7737,-0.7737,-0.7737,-0.7737,-0.7765,-0.7854,-0.7854,-0.7816,-0.7701,-0.8018,-0.8202,-0.7809,-0.7816,-0.7864,-0.7864,-0.7864,-0.7898,-0.7975,-0.7885,-0.7773,-0.7678,-0.7631,-0.7536,-0.741,-0.7509,-0.7577,-0.7529,-0.757,-0.7597,-0.7597,-0.7597,-0.755,-0.7471,-0.7299,-0.7175,-0.7134,0.0,0.0,0.0,0.0,0.0,0.0,0.0,0.0,0.0,0.0,0.0,0.0,0.0,0.0,0.0,0.0,0.0,0.0,0.0,0.0,0.0,0.0,0.0,-0.6812,-0.6921,-0.7068,-0.7182,-0.7274,-0.7316,-0.7316,-0.7714,-0.8043,-0.817,-0.8414,-0.8654,-0.8848,-0.8854,-0.8854,-0.8854,-0.8854,-0.8854,-0.8854,-0.8854,-0.8854,-0.8854,-0.842,-0.8112,-0.7985,-0.7508,-0.7279,-0.7198,-0.729,-0.7311,-0.7311,-0.7311,-0.7311,-0.7351,-0.779,-0.7986,-0.7986,-0.7986,-0.7826,-0.7549,-0.7293,-0.721,-0.721,-0.721,-0.721,-0.7182,-0.7154,-0.7182,-0.7182,-0.7099,-0.7154,-0.7182,-0.7154,-0.7182,-0.721,-0.721,-0.721,-0.7265,-0.7521,-0.7576,-0.7619,-0.775,-0.789,-0.7897,-0.7623,-0.7821,-0.7988,-0.7988,-0.7988,0.0,-0.7988,-0.7885,-0.7814,-0.7814,-0.7692,-0.755,-0.7423,-0.7516,-0.7536,-0.741,-0.7509,-0.759,-0.759,-0.7597,-0.7604,-0.7604,-0.7485,-0.7485,-0.7597,0.0,0.0,0.0,0.0,0.0,0.0,0.0,0.0,0.0,0.0,0.0,0.0,0.0,0.0,0.0,0.0,0.0,0.0,0.0,0.0,0.0,-0.6904,-0.7084,-0.7084,-0.716,-0.7257,-0.7404,-0.7524,-0.76,-0.76,-0.7793,-0.7936,-0.7969,-0.8066,-0.8107,-0.8177,-0.8177,-0.8177,-0.8177,-0.8177,-0.8177,-0.8177,-0.8177,-0.8177,-0.8177,-0.7938,-0.7831,-0.7768,-0.7553,-0.7419,-0.7421,-0.7424,-0.7441,-0.7441,-0.7441,-0.7387,-0.7294,-0.7399,-0.7432,-0.7432,-0.7432,-0.7376,-0.7293,-0.7238,-0.721,-0.721,-0.721,-0.721,-0.7043,-0.6154,-0.6515,-0.6844,-0.5087,-0.5838,-0.6988,-0.6121,-0.6543,-0.721,-0.721,-0.721,-0.721,-0.7293,-0.7321,-0.726,-0.7102,-0.7273,-0.7433,-0.7444,-0.7585,-0.7721,-0.7721,-0.7864,0.0,-0.7988,-0.7979,-0.7912,-0.7797,-0.7851,-0.7831,-0.7706,-0.7638,-0.7584,-0.7543,-0.7344,-0.7296,-0.745,-0.7543,-0.7645,-0.7753,-0.7797,-0.7749,0.0,0.0,0.0,0.0,0.0,0.0,0.0,0.0,0.0,0.0,0.0,0.0,0.0,0.0,0.0,0.0,0.0,0.0,0.0,0.0,0.0,0.0,-0.5894,-0.5891,-0.6479,-0.7049,-0.743,-0.7578,-0.766,-0.772,-0.7769,-0.7864,-0.7903,-0.7903,-0.7903,-0.7924,-0.7979,-0.793,-0.7924,-0.7979,-0.793,-0.7903,-0.7903,-0.7903,-0.7903,-0.7903,-0.7837,-0.7747,-0.7698,-0.7627,-0.7538,0.0,-0.7573,-0.7595,-0.7595,-0.7595,-0.7522,0.0,0.0,0.0,0.0,0.0,-0.721,-0.7127,-0.6626,-0.6455,-0.6371,-0.5871,-0.5699,-0.556,-0.4868,-0.5142,-0.5393,-0.3999,-0.4613,-0.5532,-0.4836,-0.517,-0.5699,-0.5699,-0.5699,-0.5699,-0.5699,-0.5699,-0.5766,-0.6073,0.0,0.0,-0.6973,-0.7282,-0.7441,-0.7441,-0.7565,-0.7715,-0.7814,-0.7839,-0.7831,-0.7891,-0.7959,-0.7952,-0.7797,-0.7733,0.0,0.0,0.0,-0.7465,-0.7645,-0.774,0.0,0.0,0.0,0.0,0.0,0.0,0.0,0.0,-0.8316,-0.8396,0.0,0.0,0.0,0.0,0.0,0.0,0.0,0.0,0.0,0.0,0.0,0.0,0.0,0.0,0.0,0.0,-0.4245,-0.4056,-0.532,-0.6432,-0.7241,-0.7679,-0.772,-0.7763,-0.7892,-0.7903,-0.7908,-0.7919,-0.7924,-0.7979,-0.8099,0.0,0.0,0.0,0.0,-0.7903,-0.7903,-0.7903,-0.7903,-0.7903,-0.7903,-0.7848,-0.772,-0.772,-0.766,-0.7562,-0.7671,-0.772,-0.772,-0.772,-0.7714,-0.7676,-0.7403,-0.7263,-0.7182,-0.7043,-0.6988,-0.6821,-0.562,0.0,0.0,-0.3943,-0.3608,-0.358,-0.3441,-0.3497,-0.3553,-0.3273,-0.3385,-0.358,-0.3441,-0.3497,-0.3608,-0.3608,-0.3608,-0.3608,-0.3608,-0.3608,-0.3867,-0.4815,-0.4897,-0.511,-0.606,-0.6726,-0.716,-0.716,-0.7185,-0.7291,-0.7522,-0.7547,-0.7646,-0.7889,0.0,0.0,-0.7751,-0.7738,-0.7684,-0.7563,-0.7684,-0.7831,-0.7985,-0.798,-0.8054,-0.8239,-0.8259,-0.8387,-0.8602,-0.8615,-0.8668,-0.8788,-0.8494,-0.8528,0.0,0.0,0.0,0.0,0.0,0.0,0.0,0.0,0.0,0.0,0.0,0.0,0.0,0.0,0.0,-0.3853,-0.3814,-0.388,-0.4215,-0.4459,-0.5399,-0.7591,-0.787,-0.7875,-0.7897,-0.7903,-0.7941,-0.8044,-0.805,-0.8104,-0.8161,-0.8115,0.0,-0.8083,-0.7963,-0.7903,-0.7903,-0.7903,-0.7903,-0.7903,0.0,0.0,-0.787,-0.787,-0.7853,-0.7837,-0.7859,-0.787,-0.787,-0.787,-0.7785,-0.7676,-0.7403,-0.7263,-0.7071,-0.6093,-0.5759,-0.5564,-0.4362,-0.3943,-0.3916,-0.3664,-0.3608,-0.3413,-0.2435,-0.2826,0.0,-0.1232,-0.2099,-0.3385,-0.2407,-0.2882,-0.3608,-0.3608,-0.3608,-0.3608,-0.3608,-0.3608,-0.3617,-0.372,-0.3724,-0.3749,-0.3839,-0.5525,-0.6867,-0.6867,-0.7067,-0.721,-0.7266,-0.7291,-0.7291,-0.7335,-0.736,-0.7353,-0.7322,-0.7322,-0.731,-0.7285,-0.7416,-0.7629,-0.7975,-0.7907,-0.7869,-0.7894,-0.8006,-0.8037,-0.7975,-0.8087,-0.8161,-0.8186,-0.8495,-0.8665,0.0,0.0,0.0,0.0,0.0,0.0,0.0,0.0,0.0,0.0,0.0,-0.0976,-0.16,0.0,-0.1904,-0.2579,-0.2257,-0.213,-0.2861,-0.2956,-0.3691,-0.5663,-0.59,-0.6197,-0.6924,-0.6996,-0.7319,-0.8101,-0.8144,-0.8198,-0.8285,-0.8209,-0.8171,-0.8236,-0.8117,-0.8051,-0.8051,-0.8023,-0.7995,-0.7995,-0.793,-0.7903,-0.7903,-0.7903,-0.7903,-0.7872,-0.7194,-0.6888,-0.6858,-0.618,-0.5851,-0.5727,-0.5593,-0.5888,-0.6186,-0.4962,-0.4501,-0.4334,-0.3106,-0.2686,-0.2602,-0.1987,-0.1791,-0.1679,-0.1093,-0.1316,-0.1539,-0.0336,-0.0868,-0.1651,-0.1065,-0.1345,-0.1791,-0.1791,-0.1791,-0.1791,-0.1791,-0.1791,-0.1949,-0.2408,-0.2508,-0.2657,-0.3116,-0.421,-0.518,-0.5717,-0.5911,-0.6244,-0.6923,-0.7051,-0.7113,-0.7197,-0.7313,-0.7361,-0.7294,-0.7355,-0.7416,-0.7483,-0.7549,-0.7732,-0.8002,-0.7934,-0.7889,-0.7889,-0.7956,-0.7956,-0.7889,-0.7956,-0.8023,-0.8096,-0.8286,-0.8433,0.0,0.0,0.0,0.0,0.0,0.0,0.0,0.0,0.0504,0.0244,0.0195,-0.0114,-0.1069,-0.0475,-0.0122,-0.1112,-0.0439,-0.0158,-0.1234,-0.1391,-0.1792,-0.2818,-0.3522,-0.4376,-0.5557,-0.567,-0.6164,-0.7323,-0.7397,-0.7478,-0.7585,-0.7487,-0.7468,-0.7561,-0.7421,-0.7363,-0.7363,-0.7311,-0.7289,-0.7296,-0.7165,-0.7111,-0.7133,-0.7122,-0.7122,-0.7067,-0.5965,-0.5506,-0.5414,-0.4337,-0.3877,-0.3798,-0.3534,-0.4004,-0.4679,-0.3633,-0.3245,-0.3078,-0.1875,-0.1456,-0.1288,-0.0308,0.0,0.0,0.0,0.0,0.0,0.0,0.0,0.0,0.0,0.0,0.0,0.0,0.0,0.0,0.0,0.0,-0.0251,-0.1128,-0.1289,-0.1555,-0.2421,-0.2576,-0.301,-0.4301,-0.4494,-0.4961,-0.6291,-0.6543,-0.675,-0.7074,-0.7309,-0.7404,-0.7321,-0.7416,-0.7556,-0.7735,-0.7714,-0.7768,-0.7903,-0.7881,-0.7848,-0.7848,-0.7848,-0.786,-0.7862,-0.7862,-0.7927,-0.8064,-0.7991,-0.8078,0.1623,0.1615,0.1622,0.1673,0.166,0.1554,0.0,0.0,0.115,0.0926,0.0877,0.0854,0.0718,0.0792,0.0836,0.0723,0.0861,0.0933,0.0772,0.0739,0.0672,0.0473,-0.2136,-0.3956,-0.4122,-0.414,-0.4263,-0.4521,-0.4559,-0.4619,-0.4748,-0.4625,-0.4562,-0.4571,-0.4441,-0.4374,-0.4374,-0.4368,-0.4365,-0.4373,-0.436,-0.4356,-0.4337,-0.4334,-0.436,-0.4337,-0.4183,-0.4122,-0.4122,-0.3968,-0.3901,-0.3768,-0.2658,-0.2289,-0.2365,-0.2095,-0.1987,-0.1819,-0.0616,-0.0196,-0.0168,-0.0056,0.0,0.0,0.0,0.0,0.0,0.0,0.0,0.0,0.0,0.0,0.0,0.0,0.0,0.0,0.0,0.0,-0.0028,-0.0168,-0.0168,-0.0223,-0.0334,-0.0362,-0.1047,-0.3085,-0.3387,-0.3806,-0.5041,-0.5207,-0.5633,-0.6737,-0.6864,-0.6919,-0.7045,-0.7067,-0.7236,-0.7603,-0.7387,-0.7393,-0.7632,-0.741,-0.7293,-0.7293,-0.7293,-0.7321,-0.7374,-0.7374,-0.7434,-0.759,-0.7681,-0.7885,0.175,0.1771,0.1769,0.179,0.1793,0.1686,0.1449,0.1393,0.1279,0.104,0.0986,0.0993,0.0987,0.0997,0.1009,0.0,0.1074,0.111,0.111,0.1069,0.1027,0.1012,-0.0222,-0.1371,-0.22,-0.2262,-0.2622,-0.3521,-0.3592,-0.3601,-0.3653,-0.3601,-0.3592,-0.3592,-0.3536,-0.3494,-0.3494,-0.3432,-0.3375,-0.3385,-0.3348,-0.3309,-0.3302,-0.3325,-0.2901,-0.2214,-0.2214,-0.1755,-0.1047,-0.1047,-0.1047,-0.1015,-0.0667,-0.054,-0.0565,-0.0691,-0.0763,-0.0672,-0.0168,0.0,0.0,0.0,0.0,0.0,0.0,0.0,0.0,0.0,0.0,0.0,0.0,0.0,0.0,0.0,0.0,0.0,0.0,0.0,0.0,0.0,0.0,0.0,0.0,0.0,-0.0307,-0.1208,-0.1874,-0.2687,-0.3801,-0.4019,-0.4304,-0.4869,-0.4855,-0.4889,-0.5001,-0.5675,-0.6134,-0.632,-0.6877,-0.7238,-0.7354,-0.7265,-0.721,-0.721,-0.7225,-0.7285,-0.7305,-0.7381,-0.7473,-0.7627,-0.7676,-0.7796,0.1799,0.1794,0.1792,0.1797,0.1812,0.1763,0.1565,0.1542,0.149,0.1302,0.1275,0.1284,0.1281,0.1295,0.1311,0.1371,0.1385,0.1392,0.1392,0.1342,0.1293,0.1312,0.1289,0.0908,-0.013,-0.0394,-0.0932,-0.1921,-0.2024,-0.1995,-0.2002,-0.1995,-0.2024,-0.2024,-0.2017,-0.2013,-0.2013,-0.1926,-0.1878,-0.1871,-0.1829,-0.1805,-0.1804,-0.1804,-0.129,-0.0436,-0.0436,0.0125,0.0994,0.0994,0.0992,0.0987,0.0732,0.0636,0.0602,0.0264,0.0086,0.0,0.0,0.0,0.0,0.0,0.0,0.0,0.0,0.0,0.0,0.0,0.0,0.0,0.0,0.0,0.0,0.0,0.0,0.0,0.0,0.0,0.0,0.0,0.0,0.0,0.0,0.0,0.0,0.0,-0.0665,-0.1559,-0.2671,-0.3189,-0.3504,-0.3603,-0.3512,-0.3504,-0.3606,-0.4393,-0.4895,-0.4895,-0.5731,-0.6343,-0.6682,-0.671,-0.6864,-0.7231,-0.7262,-0.7343,-0.7408,-0.7495,-0.7633,-0.7747,-0.7747,-0.7821,0.1805,0.1805,0.1792,0.1797,0.1812,0.1826,0.1885,0.1899,0.1908,0.1969,0.1975,0.1975,0.1978,0.2024,0.2063,0.2065,0.2114,0.2153,0.2153,0.2093,0.2075,0.2073,0.2075,0.2042,0.0,0.1401,0.1015,0.096,0.0962,0.1001,0.105,0.1003,0.0962,0.0962,0.0983,0.0976,0.0976,0.0976,0.0969,0.0988,0.0968,0.0994,0.0966,0.0966,0.0999,0.103,0.103,0.1023,0.101,0.101,0.1001,0.0988,0.0987,0.0978,0.0935,0.0603,0.0266,0.0,0.0,0.0,0.0,0.0,0.0,0.0,0.0,0.0,0.0,0.0,0.0,0.0,0.0,0.0,0.0,0.0,0.0,0.0,0.0,0.0,0.0,0.0,0.0,0.0,0.0,0.0,0.0,0.0,-0.0028,-0.0476,-0.1677,-0.2878,-0.3606,-0.3608,-0.3606,-0.3606,-0.3608,-0.3636,-0.3664,-0.3664,-0.3692,-0.4222,-0.5397,-0.5453,-0.6032,-0.7271,-0.7305,-0.7424,-0.7693,-0.7693,-0.7758,-0.7897,-0.7897,-0.7897,0.1804,0.1804,0.1825,0.185,0.187,0.1887,0.1948,0.1962,0.1964,0.2005,0.2008,0.2013,0.2001,0.202,0.2053,0.2147,0.2175,0.2196,0.2215,0.2176,0.2154,0.2114,0.2127,0.0,0.2112,0.0,0.0,0.182,0.1821,0.1832,0.1857,0.1852,0.1839,0.1822,0.1813,0.1835,0.1818,0.1818,0.1813,0.1838,0.1797,0.175,0.1766,0.1748,0.1774,0.1774,0.1774,0.1727,0.1672,0.1672,0.1659,0.1637,0.142,0.1201,0.095,0.0613,0.0302,0.0,0.0,0.0,0.0,0.0,0.0,0.0,0.0,0.0,0.0,0.0,0.0,0.0,0.0,0.0,0.0,0.0,0.0,0.0,0.0,0.0,0.0,0.0,0.0,0.0,0.0,0.0,0.0,0.0,0.0,-0.014,-0.056,-0.0953,-0.1204,-0.1204,-0.1204,-0.1204,-0.1204,-0.1931,-0.2407,-0.2407,-0.3161,-0.3796,-0.418,-0.4208,-0.4815,-0.6078,-0.6208,-0.6724,-0.7703,-0.778,-0.7864,-0.7903,-0.7903,-0.7903,0.1804,0.1804,0.1828,0.1893,0.1885,0.1931,0.1994,0.1969,0.196,0.196,0.1952,0.1949,0.1967,0.1989,0.203,0.2142,0.2174,0.2203,0.221,0.2207,0.2189,0.2127,0.2165,0.2168,0.0,0.0,0.0,0.2215,0.2226,0.2245,0.224,0.2232,0.2252,0.2233,0.2222,0.2202,0.2206,0.2204,0.2199,0.2188,0.2168,0.2125,0.2125,0.2138,0.2129,0.2129,0.2129,0.2106,0.2034,0.2034,0.2012,0.1977,0.1761,0.1482,0.1142,0.0803,0.046,0.0152,0.003,0.0,0.0,0.0,0.0,0.0,0.0,0.0,0.0,0.0,0.0,0.0,0.0,0.0,0.0,0.0,0.0,0.0,0.0,0.0,0.0,0.0,0.0,0.0,0.0,0.0,0.0,0.0,0.0,0.0,0.0,0.0,0.0,0.0,0.0,0.0,0.0,-0.07,-0.1151,-0.1158,-0.1892,-0.2504,-0.295,-0.2952,-0.3556,-0.488,-0.5409,-0.615,-0.7065,-0.7621,-0.7903,-0.7903,-0.7903,-0.7903,0.1805,0.1805,0.1829,0.1893,0.1885,0.1931,0.1991,0.1952,0.19,0.1899,0.1906,0.1885,0.1885,0.1966,0.2027,0.2089,0.215,0.2213,0.2206,0.2191,0.2219,0.0,0.0,0.0,0.0,0.0,0.0,0.2213,0.0,0.2303,0.2295,0.2308,0.2292,0.229,0.2228,0.2198,0.2203,0.22,0.2185,0.219,0.2189,0.2189,0.2189,0.2189,0.2189,0.2189,0.2189,0.2154,0.2098,0.2096,0.2063,0.2012,0.2009,0.1791,0.1453,0.1143,0.0803,0.0462,0.0121,0.0,0.0,0.0,0.0,0.0,0.0,0.0,0.0,0.0,0.0,0.0,0.0,0.0,0.0,0.0,0.0,0.0,0.0,0.0,0.0,0.0,0.0,0.0,0.0,0.0,0.0,0.0,0.0,0.0,0.0,0.0,0.0,0.0,0.0,0.0,0.0,0.0,0.0,0.0,0.0,-0.0522,-0.1649,-0.1707,-0.2342,-0.367,-0.4964,-0.5698,-0.5908,-0.7255,-0.7903,-0.7903,-0.7903,-0.7903,0.1811,0.1793,0.1828,0.1869,0.1885,0.1896,0.1934,0.1907,0.1895,0.1902,0.1891,0.1885,0.1885,0.1966,0.2034,0.2084,0.2148,0.0,0.2263,0.2323,0.0,0.2276,0.0,0.2257,0.2281,0.2279,0.0,0.0,0.2286,0.2303,0.2295,0.2289,0.2312,0.2292,0.2283,0.2264,0.2199,0.2211,0.2196,0.2188,0.2199,0.2189,0.2189,0.2189,0.2189,0.2189,0.2189,0.2167,0.2095,0.2106,0.2088,0.2069,0.2024,0.1803,0.1503,0.1395,0.0988,0.0494,0.04,0.0213,0.0,0.0,0.0,0.0,0.0,0.0,0.0,0.0,0.0,0.0,0.0,0.0,0.0,0.0,0.0,0.0,0.0,0.0,0.0,0.0,0.0,0.0,0.0,0.0,0.0,0.0,0.0,0.0,0.0,0.0,0.0,0.0,0.0,0.0,0.0,0.0,0.0,0.0,0.0,-0.0147,-0.0449,-0.045,-0.1086,-0.242,-0.3702,-0.4872,-0.5908,-0.7255,-0.7903,-0.7903,-0.7903,-0.7952,0.1801,0.1791,0.1823,0.1857,0.1876,0.1887,0.1861,0.1861,0.1849,0.1864,0.1865,0.1842,0.1857,0.1898,0.1986,0.0,0.0,0.0,0.2338,0.2367,0.2376,0.0,0.2335,0.0,0.2333,0.233,0.2323,0.0,0.2309,0.2316,0.2296,0.2296,0.2289,0.2309,0.2309,0.2294,0.223,0.2222,0.22,0.22,0.2203,0.2189,0.2189,0.2189,0.2189,0.2189,0.0,0.2171,0.2108,0.2091,0.2109,0.2093,0.2059,0.1827,0.1512,0.15,0.118,0.071,0.0556,0.0368,0.0183,0.0061,0.0,0.0,0.0,0.0,0.0,0.0,0.0,0.0,0.0,0.0,0.0,0.0,0.0,0.0,0.0,0.0,0.0,0.0,0.0,0.0,0.0,0.0,0.0,0.0,0.0,0.0,0.0,0.0,0.0,0.0,0.0,0.0,0.0,0.0,0.0,0.0,0.0,0.0,0.0,0.0,-0.0367,-0.1111,-0.2402,-0.3427,-0.4195,-0.6147,-0.7103,-0.7115,-0.7744,-0.8068,0.1801,0.1794,0.1817,0.1817,0.1866,0.1877,0.1818,0.1812,0.1796,0.1794,0.1804,0.1787,0.1787,0.1851,0.193,0.2081,0.0,0.2243,0.2367,0.2384,0.2397,0.2394,0.2432,0.242,0.243,0.242,0.2367,0.2304,0.2299,0.2296,0.2296,0.2296,0.2296,0.2296,0.2296,0.2284,0.2297,0.224,0.221,0.2206,0.221,0.2192,0.2189,0.2189,0.2189,0.2189,0.0,0.0,0.2114,0.211,0.2095,0.2107,0.2099,0.189,0.1585,0.158,0.1346,0.1022,0.0741,0.0617,0.0494,0.0123,0.0,0.0,0.0,0.0,0.0,0.0,0.0,0.0,0.0,0.0,0.0,0.0,0.0,0.0,0.0,0.0,0.0,0.0,0.0,0.0,0.0,0.0,0.0,0.0,0.0,0.0,0.0,0.0,0.0,0.0,0.0,0.0,0.0,0.0,0.0,0.0,0.0,0.0,0.0,0.0,0.0,0.0,-0.1303,-0.1997,-0.202,-0.4759,-0.6092,-0.6138,-0.7554,-0.821,0.1804,0.1825,0.1877,0.1877,0.1881,0.1877,0.1818,0.1812,0.1801,0.1794,0.1791,0.1793,0.1789,0.1866,0.193,0.2081,0.214,0.2251,0.2395,0.2416,0.2436,0.0,0.2476,0.2498,0.2492,0.2445,0.0,0.0,0.0,0.2296,0.2296,0.2296,0.2296,0.2296,0.2296,0.2293,0.2289,0.2292,0.2263,0.2202,0.2207,0.2213,0.2189,0.2189,0.2189,0.2189,0.2189,0.0,0.2178,0.212,0.2121,0.2167,0.2116,0.2044,0.1989,0.1941,0.17,0.1411,0.1333,0.1142,0.0803,0.0185,0.0,0.0,0.0,0.0,0.0,0.0,0.0,0.0,0.0,0.0,0.0,0.0,0.0,0.0,0.0,0.0,0.0,0.0,0.0,0.0,0.0,0.0,0.0,0.0,0.0,0.0,0.0,0.0,0.0,0.0,0.0,0.0,0.0,0.0,0.0,0.0,0.0,0.0,0.0,0.0,0.0,0.0,-0.1311,-0.2016,-0.202,-0.4769,-0.6089,-0.6138,-0.7554,-0.8258,0.3856,0.3939,0.3796,0.3063,0.2895,0.2684,0.1976,0.1805,0.1804,0.1757,0.1774,0.179,0.1803,0.1846,0.1932,0.2038,0.2113,0.2187,0.2316,0.2339,0.2373,0.2503,0.2502,0.2487,0.2509,0.2481,0.2456,0.0,0.0,0.233,0.2297,0.2296,0.2296,0.2296,0.2296,0.2296,0.2296,0.2305,0.2283,0.2268,0.2222,0.2192,0.2211,0.2196,0.2189,0.2189,0.2189,0.0,0.2188,0.2172,0.2175,0.2185,0.2156,0.2143,0.2106,0.2076,0.1959,0.1783,0.1569,0.1404,0.1185,0.0681,0.0401,0.0216,0.0062,0.0,0.0,0.0,0.0,0.0,0.0,0.0,0.0,0.0,0.0,0.0,0.0,0.0,0.0,0.0,0.0,0.0,0.0,0.0,0.0,0.0,0.0,0.0,0.0,0.0,0.0,0.0,0.0,0.0,0.0,0.0,0.0,0.0,0.0,0.0,0.0,0.0,0.0,0.0,-0.0645,-0.0971,-0.0977,-0.3026,-0.4017,-0.4079,-0.6247,-0.7295,0.5785,0.5848,0.5634,0.4473,0.419,0.3833,0.2499,0.2192,0.2086,0.1787,0.1761,0.179,0.18,0.1862,0.194,0.2015,0.2077,0.2178,0.2318,0.2311,0.2355,0.2502,0.2514,0.0,0.2481,0.2512,0.0,0.0,0.0,0.0,0.2308,0.23,0.2296,0.2296,0.2296,0.2296,0.2296,0.2311,0.2297,0.229,0.2236,0.2206,0.2199,0.2203,0.2189,0.2189,0.2189,0.0,0.0,0.2189,0.2389,0.2658,0.2658,0.2807,0.3008,0.3033,0.3007,0.2972,0.2641,0.2532,0.2464,0.2156,0.1396,0.0556,0.0216,0.0093,0.0093,0.0031,0.0,0.0,0.0,0.0,0.0,0.0,0.0,0.0,0.0,0.0,0.0,0.0,0.0,0.0,0.0,0.0,0.0,0.0,0.0,0.0,0.0,0.0,0.0,0.0,0.0,0.0,0.0,0.0,0.0,0.0,0.0,0.0,0.0,0.0,0.0,0.0,0.0,0.0,0.0,-0.1422,-0.2095,-0.2185,-0.5068,-0.641,0.5852,0.5879,0.5813,0.552,0.5422,0.5093,0.374,0.3438,0.3131,0.2011,0.1791,0.1802,0.1798,0.1861,0.1954,0.2069,0.2139,0.2235,0.239,0.2398,0.2402,0.2506,0.0,0.0,0.251,0.2485,0.0,0.0,0.0,0.0,0.2376,0.2348,0.2296,0.2296,0.2296,0.2296,0.2296,0.2293,0.2316,0.229,0.2222,0.2191,0.2199,0.2203,0.2189,0.2189,0.2189,0.0,0.0,0.2189,0.2961,0.4099,0.4099,0.4897,0.6011,0.6008,0.6006,0.5986,0.5901,0.587,0.5806,0.5539,0.3399,0.0895,0.0556,0.0463,0.0401,0.0093,0.0,0.0,0.0,0.0,0.0,0.0,0.0,0.0,0.0,0.0,0.0,0.0,0.0,0.0,0.0,0.0,0.0,0.0,0.0,0.0,0.0,0.0,0.0,0.0,0.0,0.0,0.0,0.0,0.0,0.0,0.0,0.0,0.0,0.0,0.0,0.0,0.0,0.0,0.0,-0.1409,-0.2115,-0.2185,-0.5068,-0.641,0.8189,0.8347,0.8303,0.7209,0.6852,0.6444,0.5102,0.4729,0.4554,0.4055,0.3385,0.2897,0.2887,0.2324,0.1856,0.197,0.2004,0.2079,0.2247,0.2281,0.2331,0.2407,0.2421,0.0,0.0,0.0,0.0,0.0,0.0,0.0,0.2406,0.2376,0.2352,0.2297,0.2296,0.2296,0.2296,0.2296,0.2291,0.2316,0.2286,0.2266,0.2287,0.3097,0.3473,0.3505,0.4347,0.0,0.0,0.473,0.5064,0.5566,0.5566,0.59,0.6394,0.6394,0.6415,0.6403,0.6382,0.6349,0.634,0.6186,0.5262,0.411,0.3602,0.3286,0.2878,0.1898,0.1446,0.1063,0.0219,0.0,0.0,0.0,0.0,0.0,0.0,0.0,0.0,0.0,0.0,0.0,0.0,0.0,0.0,0.0,0.0,0.0,0.0,0.0,0.0,0.0,0.0,0.0,0.0,0.0,0.0,0.0,0.0,0.0,0.0,0.0,0.0,0.0,0.0,0.0,0.0,-0.0572,-0.0841,-0.0875,-0.2888,-0.4297,0.9823,1.0014,0.9986,0.8599,0.819,0.7759,0.637,0.5971,0.5815,0.551,0.4754,0.4151,0.4173,0.3455,0.2762,0.2505,0.2813,0.3067,0.294,0.2887,0.2925,0.3047,0.0,0.2444,0.0,0.0,0.0,0.0,0.0,0.0,0.0,0.3772,0.3322,0.2334,0.2296,0.2296,0.2296,0.277,0.3023,0.3023,0.3451,0.3645,0.3678,0.4637,0.5071,0.5134,0.0,0.0,0.0,0.6455,0.6681,0.7109,0.7078,0.7303,0.7669,0.7669,0.7669,0.7659,0.7685,0.7666,0.7651,0.7604,0.7612,0.7515,0.7085,0.6013,0.4724,0.3633,0.2746,0.1869,0.0884,0.0314,0.0,0.0,0.0,0.0,0.0,0.0,0.0,0.0,0.0,0.0,0.0,0.0,0.0,0.0,0.0,0.0,0.0,0.0,0.0,0.0,0.0,0.0,0.0,0.0,0.0,0.0,0.0,0.0,0.0,0.0,0.0,0.0,0.0,0.0,0.0,0.0,0.0,-0.0034,-0.143,-0.3127,0.9994,1.0127,1.0139,0.9543,0.9381,0.8983,0.7432,0.7071,0.6791,0.5792,0.5483,0.5418,0.5569,0.5471,0.5006,0.3943,0.5014,0.5635,0.4719,0.4506,0.4517,0.0,0.0,0.2436,0.0,0.0,0.0,0.0,0.0,0.0,0.0,0.7005,0.5523,0.2407,0.2296,0.2296,0.2296,0.3896,0.4657,0.4693,0.6169,0.6843,0.6839,0.6854,0.6878,0.0,0.0,0.0,0.0,0.6542,0.7329,0.8776,0.8622,0.9443,1.0651,1.0651,1.0651,1.0651,1.0651,1.0651,1.0651,1.0651,1.0651,1.0651,1.0651,0.8144,0.5208,0.4884,0.3472,0.2085,0.2086,0.1052,0.0,0.0,0.0,0.0,0.0,0.0,0.0,0.0,0.0,0.0,0.0,0.0,0.0,0.0,0.0,0.0,0.0,0.0,0.0,0.0,0.0,0.0,0.0,0.0,0.0,0.0,0.0,0.0,0.0,0.0,0.0,0.0,0.0,0.0,0.0,0.0,0.0,-0.0035,-0.1436,-0.3706,1.0103,1.0164,1.0201,0.9779,0.9472,0.9141,0.8652,0.8542,0.8417,0.7947,0.7273,0.6732,0.6652,0.6016,0.5503,0.5393,0.4953,0.4628,0.4615,0.0,0.0,0.4837,0.5457,0.5894,0.0,0.0,0.0,0.0,0.0,0.0,0.0,0.706,0.6526,0.5558,0.5522,0.5522,0.5522,0.6029,0.6282,0.6282,0.6761,0.6932,0.6875,0.7764,0.0,0.0,0.0,0.0,0.0,0.948,0.9719,1.0078,1.0066,1.0319,1.0684,1.0684,1.0684,1.0684,1.0684,1.0684,1.0684,1.0684,1.0684,1.0684,1.0684,0.9726,0.8317,0.6736,0.5154,0.3904,0.3655,0.2728,0.177,0.1506,0.0874,0.0295,0.0066,0.0,0.0,0.0,0.0,0.0,0.0,0.0,0.0,0.0,0.0,0.0067,0.0303,0.0337,0.0438,0.0707,0.0741,0.0537,0.0033,0.0,0.0,0.0,0.0201,0.0236,0.0,0.0204,0.0239,0.0,0.0,0.0,0.0,0.0,0.0,-0.007,-0.2555,-0.4267,1.0329,1.0239,1.0199,0.9824,0.9446,0.9207,0.9207,0.9207,0.9186,0.9156,0.8625,0.8142,0.8064,0.7495,0.6985,0.6808,0.6562,0.6349,0.6267,0.0,0.0,0.588,0.0,0.0,0.0,0.0,0.0,0.0,0.0,0.0,0.0,0.8805,0.8745,0.8745,0.7621,0.7006,0.7006,0.7584,0.7873,0.7873,0.8456,0.8673,0.8642,0.9459,0.0,0.0,0.0,0.0,0.0,1.0921,1.086,1.0765,1.0711,1.0684,1.0684,1.0684,1.0684,1.0684,1.0684,1.0684,1.0684,1.0684,1.0684,1.0684,1.0684,1.0459,0.9902,0.8426,0.6946,0.577,0.5562,0.4491,0.333,0.2663,0.1904,0.1129,0.0365,0.0201,0.0202,0.0202,0.0202,0.0236,0.0404,0.0404,0.0404,0.0404,0.0404,0.0506,0.0712,0.0712,0.0816,0.1093,0.1128,0.0957,0.0479,0.0442,0.0407,0.0407,0.0648,0.0684,0.0445,0.0655,0.0658,0.045,0.0314,0.0211,0.0212,0.0071,0.0,-0.0071,-0.3162,-0.4581,0.0,1.0387,1.0169,0.9738,0.9398,0.9207,0.9207,0.9228,0.0,0.9537,0.949,0.9442,0.9598,0.951,0.9127,0.8238,0.928,0.989,0.0,0.9196,0.0,0.0,0.7832,0.0,0.0,0.0,0.0,0.0,0.0,0.0,0.0,1.1665,1.1584,1.1584,0.8817,0.7331,0.7331,0.8745,0.9471,0.9471,1.093,1.1613,1.1606,1.1606,0.0,0.0,0.0,0.0,0.0,1.1036,1.0921,1.0887,1.0752,1.0698,1.0684,1.0684,1.0684,1.0684,1.0684,1.0684,1.0684,1.0684,1.0684,1.0684,1.0684,1.0485,1.016,0.9827,0.8751,0.7678,0.7679,0.6333,0.4775,0.3762,0.3127,0.2386,0.1009,0.0606,0.0539,0.0539,0.0539,0.0673,0.1043,0.1111,0.1111,0.1112,0.1112,0.1118,0.1134,0.1135,0.1176,0.1261,0.1262,0.1262,0.1262,0.1178,0.1101,0.1101,0.1184,0.1227,0.1192,0.1229,0.123,0.1194,0.0844,0.0637,0.0609,0.0218,0.0036,-0.0073,-0.3239,-0.4693,1.0662,0.0,0.9893,0.9772,0.9461,0.9207,0.0,0.9362,0.949,0.9442,0.9496,0.9598,0.9717,0.9741,0.9767,1.0,0.9462,0.903,0.9056,0.0,0.0,1.1166,0.0,0.0,0.0,0.0,0.0,0.0,0.0,0.0,0.0,1.1762,1.1584,1.1584,1.0887,1.0527,1.0527,1.0887,1.1074,1.1074,1.144,1.1558,1.1443,1.1443,0.0,0.0,0.0,0.0,1.1022,1.1097,1.0975,1.0745,1.0826,1.0792,1.0684,1.0684,1.0684,1.0684,1.0684,1.0684,1.0684,1.0684,1.0684,1.0684,1.0684,1.0651,1.0525,1.0193,0.9821,0.951,0.9248,0.8225,0.7131,0.6606,0.4985,0.336,0.2721,0.1714,0.0943,0.0943,0.0943,0.0976,0.1077,0.1111,0.1115,0.1093,0.1094,0.1203,0.1533,0.1571,0.1678,0.1928,0.1965,0.1965,0.1965,0.1469,0.1186,0.1186,0.1436,0.1474,0.1227,0.1453,0.146,0.1211,0.1115,0.0905,0.0618,0.051,0.0292,-0.0073,-0.3239,-0.4693,1.0688,1.0428,1.0123,1.0123,0.9788,0.9505,0.958,0.9614,0.9605,0.9585,0.9646,0.9724,0.9866,0.9954,1.0181,1.0643,1.0185,0.0,0.0,0.0,1.1289,1.2358,0.0,0.0,0.0,0.0,0.0,0.0,0.0,0.0,0.0,1.1708,1.1584,1.1584,1.1584,1.1584,1.1584,1.1584,1.1584,1.1584,1.1584,1.1572,1.1497,1.1497,1.145,0.0,0.0,0.0,1.1124,1.1233,1.1166,1.0928,1.1016,1.0955,1.0792,1.0792,1.0745,1.0684,1.0684,1.0684,1.0684,1.0684,1.0684,1.0684,1.0684,1.0684,1.0651,1.0485,1.0419,1.0405,1.027,0.9679,0.8929,0.8252,0.6972,0.541,0.3833,0.289,0.2153,0.1447,0.1313,0.1383,0.1562,0.1597,0.1605,0.1592,0.1596,0.1709,0.1944,0.1983,0.2058,0.2212,0.225,0.225,0.225,0.1928,0.171,0.17,0.1887,0.1892,0.1714,0.187,0.181,0.1493,0.1467,0.1181,0.0594,0.0594,0.0407,-0.0074,-0.325,-0.4745,1.071,1.0684,1.0606,1.0458,1.012,0.9876,0.9995,0.9808,0.968,0.9765,0.9812,0.9886,1.0082,1.0308,1.0584,1.0872,0.0,0.0,1.2057,1.2247,1.2345,1.2481,0.0,0.0,0.0,0.0,0.0,0.0,0.0,0.0,0.0,1.1597,1.1584,1.1584,1.1584,1.1584,1.1584,1.1584,1.1584,1.1584,1.1584,1.1584,1.1584,1.1584,1.1584,0.0,0.0,0.0,1.1389,1.1389,1.1336,1.12,1.1227,1.1111,1.0948,1.0921,1.0833,1.0718,1.0698,1.0684,1.0684,1.0684,1.0684,1.0684,1.0684,1.0684,1.0684,1.0684,1.0684,1.0725,1.0874,1.0704,1.0264,0.9359,0.8774,0.7616,0.4839,0.4049,0.344,0.1963,0.1694,0.1802,0.2134,0.2207,0.2217,0.2213,0.2217,0.2228,0.2293,0.2297,0.2307,0.2293,0.2296,0.2296,0.2296,0.2296,0.2287,0.2298,0.2283,0.2296,0.2296,0.2296,0.2163,0.1895,0.1895,0.1533,0.0795,0.0795,0.0565,0.0112,-0.3158,-0.4668,1.0844,1.1057,1.1062,1.0295,1.0012,0.9927,0.9727,0.9734,0.9765,0.9785,0.9893,1.0109,1.0508,1.1036,1.1518,1.1896,0.0,1.2297,0.0,0.0,0.0,0.0,0.0,0.0,0.0,0.0,0.0,0.0,0.0,0.0,0.0,1.1651,1.1584,1.1584,1.1584,1.1584,1.1584,1.1584,1.1584,1.1584,1.1584,1.1584,1.1584,1.1584,1.1584,0.0,0.0,1.1409,1.1389,1.1389,1.1336,1.1206,1.1307,1.1295,1.1118,1.0961,1.0901,1.086,1.0732,1.0684,1.0684,1.0684,1.0684,1.0684,1.0684,1.0684,1.0684,1.0684,1.0684,1.0725,1.0874,1.0846,1.0805,1.0822,0.9759,0.8263,0.6617,0.5199,0.381,0.24,0.2092,0.2128,0.2202,0.2204,0.2214,0.2279,0.2283,0.2294,0.2287,0.2289,0.2292,0.2296,0.2296,0.2296,0.2296,0.2296,0.2295,0.2289,0.2293,0.2296,0.2296,0.2296,0.2311,0.2303,0.2303,0.2094,0.1628,0.1628,0.1437,0.1019,-0.2603,-0.4294,1.0919,1.1193,1.1368,1.1065,1.0873,1.0717,1.05,1.0378,1.0342,1.0565,1.0653,1.0792,1.1092,1.1507,1.1888,1.2103,0.0,1.2353,0.0,0.0,0.0,0.0,0.0,0.0,0.0,0.0,0.0,0.0,0.0,0.0,0.0,0.0,1.1584,1.1584,1.1584,1.1584,1.1584,1.1584,1.1584,1.1584,1.1584,1.1584,1.1584,1.1584,1.1584,1.1613,0.0,1.1511,1.1511,1.1511,1.147,1.1416,1.1491,1.1423,1.126,1.0995,1.0914,1.0894,1.0738,1.0684,1.0684,1.0684,1.0684,1.0684,1.0684,1.0684,1.0684,1.0684,1.0684,1.0725,1.0874,1.0968,1.1084,1.1179,1.0681,0.9787,0.8278,0.6711,0.5172,0.3776,0.2805,0.2216,0.2232,0.227,0.2279,0.2309,0.2313,0.2318,0.2295,0.2296,0.2296,0.2296,0.2296,0.2296,0.2296,0.2296,0.2296,0.2296,0.2296,0.2303,0.2357,0.2305,0.2363,0.2464,0.2433,0.2221,0.1854,0.1803,0.1644,0.1224,-0.2343,-0.4051,1.0936,1.1223,1.1526,1.168,1.1556,1.1421,1.1476,1.1177,1.1028,1.1473,1.1562,1.1612,1.1738,1.2028,0.0,1.2538,1.2584,0.0,0.0,0.0,0.0,0.0,0.0,0.0,0.0,0.0,0.0,0.0,0.0,0.0,0.0,0.0,1.1584,1.1584,1.1584,1.1584,1.1584,1.1584,1.1584,1.1584,1.1584,1.1584,1.1584,1.1584,1.1584,1.1584,1.1584,1.1584,1.1584,1.1584,1.1584,1.1584,1.1584,1.1504,1.1307,1.1049,1.0921,1.0846,1.0725,1.0684,1.0684,1.0684,1.0684,1.0691,1.0732,1.0718,1.0691,1.0732,1.0718,1.0725,1.0874,1.1056,1.1206,1.124,1.1342,1.0975,0.9421,0.7839,0.6321,0.4902,0.3323,0.2238,0.2297,0.2301,0.2308,0.2293,0.2296,0.2296,0.2296,0.2296,0.2296,0.2296,0.2296,0.2296,0.2296,0.2296,0.2299,0.2307,0.2307,0.235,0.2367,0.2358,0.2387,0.2457,0.2458,0.2285,0.2043,0.1985,0.182,0.1511,-0.1989,-0.3759,1.0885,1.1163,1.1425,1.1426,1.1456,1.1651,1.2198,1.1896,1.168,1.221,1.2307,1.2352,1.249,1.2843,1.3297,1.3861,1.377,0.0,0.0,0.0,0.0,0.0,0.0,0.0,0.0,0.0,0.0,0.0,0.0,0.0,0.0,0.0,0.0,1.1584,1.1584,1.1584,1.1584,1.1584,1.1584,1.1584,1.1584,1.1584,1.1584,1.1584,1.1584,1.1584,1.1584,1.1584,1.1584,1.1584,1.1584,1.1584,1.1584,1.1436,1.1213,1.1193,1.0975,1.0698,1.0691,1.0684,1.0684,1.0684,1.0684,1.0711,1.0853,1.0799,1.0718,1.086,1.0792,1.0725,1.0874,1.1056,1.1234,1.1376,1.1382,1.0999,0.96,0.7964,0.6357,0.4957,0.3377,0.2291,0.2293,0.2293,0.2293,0.2296,0.2296,0.2296,0.2296,0.2296,0.2296,0.2296,0.2296,0.2296,0.2296,0.2296,0.2345,0.2373,0.2375,0.2363,0.23,0.2351,0.2382,0.2389,0.245,0.248,0.2475,0.2434,0.2433,0.2315,-0.1409,-0.3167,1.0907,1.1461,1.2004,1.2114,1.2421,1.2642,1.2497,1.2393,1.2542,1.3192,1.3341,1.3328,1.3333,0.0,1.3304,1.3657,1.3709,0.0,0.0,0.0,0.0,0.0,0.0,0.0,0.0,0.0,0.0,0.0,0.0,0.0,0.0,0.0,0.0,1.1584,1.1584,1.1584,1.1584,1.1584,1.1584,1.1584,1.1584,1.1584,1.1584,1.1584,1.1584,1.1584,1.1584,1.1584,1.1584,1.1584,1.1584,1.1584,1.1584,1.1552,1.1423,1.1268,1.1186,1.1111,1.0894,1.0826,1.0826,1.0826,1.0765,1.0698,1.0752,1.0732,1.0698,1.0759,1.0799,1.084,1.0901,1.1056,1.1234,1.1355,1.1463,1.1366,1.0845,0.9474,0.7904,0.6423,0.4872,0.3459,0.2478,0.2296,0.2296,0.2296,0.2296,0.2296,0.2296,0.2296,0.2296,0.2296,0.2296,0.2296,0.2296,0.2296,0.2346,0.2413,0.2415,0.239,0.2416,0.2421,0.2403,0.248,0.2454,0.2465,0.2514,0.2495,0.2496,0.2396,-0.1097,-0.2858,1.1041,1.1622,1.2272,1.2539,1.2963,1.3273,1.3091,1.3108,1.3349,1.4095,1.4141,1.4046,1.3924,1.363,0.0,0.0,0.0,0.0,0.0,0.0,0.0,0.0,0.0,0.0,0.0,0.0,0.0,0.0,0.0,0.0,0.0,0.0,0.0,0.0,1.1584,1.1584,1.1584,1.1584,1.1584,1.1584,1.1584,1.1584,1.1584,1.1584,1.1584,1.1584,1.1584,1.1584,1.1584,1.1584,1.1584,1.1584,1.1584,1.1556,1.1525,1.1349,1.124,1.1226,1.0988,1.088,1.084,1.084,1.0772,1.0698,1.0745,1.0725,1.0698,1.0745,1.0799,1.0867,1.0955,1.1124,1.1295,1.1369,1.1511,1.1584,1.1584,1.0383,0.8853,0.7295,0.5742,0.4184,0.2588,0.2296,0.2296,0.2296,0.2296,0.2296,0.2296,0.2296,0.2296,0.2296,0.2296,0.2296,0.2296,0.2305,0.236,0.2391,0.2402,0.2459,0.2454,0.2453,0.2467,0.2499,0.2469,0.2473,0.2514,0.2377,0.2299,0.2239,-0.1293,-0.3053,1.1195,1.1592,1.2086,1.2507,1.2865,1.3295,1.4054,1.4034,1.4107,1.486,1.4684,1.4346,1.4213,1.3995,0.0,0.0,0.0,0.0,0.0,0.0,0.0,0.0,0.0,0.0,0.0,0.0,0.0,0.0,0.0,0.0,0.0,0.0,0.0,0.0,1.1584,1.1584,1.1584,1.1584,1.1584,1.1584,1.1584,1.1584,1.1584,1.1584,1.1584,1.1584,1.1584,1.1584,1.1584,1.1584,1.1584,1.1584,1.1584,1.1525,1.1396,1.1389,1.1206,1.0921,1.0921,1.0819,1.0691,1.0691,1.0691,1.0718,1.0867,1.0806,1.0718,1.0874,1.0806,1.0792,1.1125,1.1315,1.1396,1.1396,1.1511,1.1584,1.1584,1.0413,0.8853,0.7295,0.5779,0.4221,0.2588,0.2296,0.2296,0.2296,0.2296,0.2296,0.2296,0.2296,0.2296,0.2296,0.2296,0.2296,0.2296,0.2361,0.2391,0.2385,0.2453,0.2455,0.2387,0.2482,0.25,0.2509,0.2499,0.2514,0.2514,0.2082,0.1886,0.1807,-0.2037,-0.3797,1.1228,1.1801,1.2466,1.2572,1.3248,1.3945,1.4278,1.4273,1.4408,1.4909,1.4684,1.4379,1.4367,1.4289,0.0,0.0,0.0,0.0,0.0,0.0,0.0,0.0,0.0,0.0,0.0,0.0,0.0,0.0,0.0,0.0,0.0,0.0,0.0,0.0,1.1584,1.1584,1.1584,1.1584,1.1584,1.1584,1.1584,1.1584,1.1584,1.1584,1.1584,1.1584,1.1584,1.1584,1.1584,1.1584,1.1584,1.1584,1.1584,1.1592,1.1538,1.143,1.1402,1.1367,1.1294,1.1158,1.1063,1.1063,1.0887,1.0698,1.0738,1.0725,1.0718,1.0874,1.0955,1.1111,1.1274,1.1436,1.1552,1.1552,1.1586,1.1584,1.1584,1.1253,1.0125,0.7512,0.6644,0.5452,0.2768,0.2296,0.2296,0.2296,0.2296,0.2296,0.2296,0.2296,0.2296,0.2296,0.2352,0.2364,0.2364,0.2393,0.2423,0.2454,0.2502,0.2474,0.2487,0.2504,0.251,0.2502,0.251,0.2514,0.2514,0.2082,0.1886,0.1807,-0.2037,-0.3797,1.1744,1.2255,1.2873,1.3166,1.3728,1.4298,1.457,1.4643,1.4684,1.483,1.4635,1.4371,1.4343,1.4326,0.0,0.0,0.0,0.0,0.0,0.0,0.0,0.0,0.0,0.0,0.0,0.0,0.0,0.0,0.0,0.0,0.0,0.0,0.0,0.0,1.1584,1.1584,1.1584,1.1584,1.1584,1.1584,1.1584,1.1584,1.1584,1.1584,1.1584,1.1584,1.1584,1.1584,1.1584,1.1584,1.1584,1.1584,1.1584,1.1584,1.157,1.1518,1.1504,1.1518,1.1423,1.1253,1.1077,1.1077,1.0914,1.0698,1.0759,1.0779,1.0799,1.0887,1.105,1.122,1.1308,1.1416,1.1545,1.1606,1.1584,1.1584,1.1584,1.1584,1.0671,0.7584,0.7006,0.5993,0.2841,0.2296,0.2296,0.2296,0.2296,0.23,0.2349,0.235,0.2356,0.2331,0.2386,0.2397,0.2397,0.2424,0.245,0.2506,0.2518,0.2495,0.2514,0.2514,0.2514,0.2514,0.2514,0.2514,0.2514,0.1925,0.165,0.1571,-0.2429,-0.4268,1.2482,1.2841,1.3262,1.3977,1.4241,1.4412,1.4892,1.5006,1.4958,1.4749,0.0,1.4338,1.4213,1.4217,0.0,0.0,0.0,0.0,0.0,0.0,0.0,0.0,0.0,0.0,0.0,0.0,0.0,0.0,0.0,0.0,0.0,0.0,0.0,0.0,1.1563,1.1592,1.1579,1.1579,1.1586,0.0,1.1563,1.1606,1.1584,1.1584,1.1584,1.1584,1.1584,1.1584,1.1584,1.1584,1.1584,1.1584,1.1584,1.1584,1.1584,1.1584,1.1531,1.1409,1.1409,1.1185,1.0934,1.0934,1.0819,1.0711,1.0853,1.0907,1.0887,1.0928,1.107,1.122,1.1234,1.1342,1.145,1.1586,1.1584,1.1584,1.1584,1.1584,1.0671,0.7584,0.7006,0.5993,0.2841,0.2296,0.2296,0.2296,0.2299,0.2346,0.2375,0.2417,0.2393,0.2383,0.2387,0.2428,0.2428,0.2455,0.2512,0.2512,0.2499,0.2514,0.2514,0.2514,0.2514,0.2514,0.2514,0.2475,0.2435,0.1689,0.1296,0.1139,-0.3055,-0.5014,1.2304,1.2718,1.323,1.3815,1.4383,1.486,1.4982,1.5006,1.4958,1.4749,1.4525,1.4338,1.4213,0.0,0.0,0.0,0.0,0.0,0.0,0.0,0.0,0.0,0.0,0.0,0.0,0.0,0.0,0.0,0.0,0.0,0.0,0.0,0.0,1.1443,1.1443,1.1382,1.1295,1.1295,1.1356,0.0,1.1443,1.1504,1.1584,1.1584,1.1584,1.1584,1.1584,1.1584,1.1584,1.1584,1.1584,1.1584,1.1584,1.1584,1.1584,1.1584,1.1563,1.1572,1.1572,1.1369,1.1152,1.1152,1.0934,1.0724,1.0725,1.0819,1.0934,1.1084,1.1226,1.1369,1.1491,1.1545,1.1543,1.1577,1.1584,1.1584,1.1584,1.1584,1.0671,0.7584,0.7006,0.5993,0.2841,0.2296,0.2296,0.2296,0.2353,0.2371,0.2415,0.2399,0.2416,0.2385,0.2444,0.2459,0.2459,0.2487,0.2504,0.2504,0.2511,0.2514,0.2514,0.2514,0.2514,0.2514,0.2514,0.2357,0.2043,0.1532,0.1099,0.0668,-0.3213,-0.5014,1.2337,1.2857,1.3401,1.4107,1.4627,1.5006,1.5006,1.4941,1.4789,1.4611,1.446,1.4314,0.0,0.0,0.0,0.0,0.0,0.0,0.0,0.0,0.0,0.0,0.0,0.0,0.0,0.0,0.0,0.0,0.0,0.0,0.0,1.2471,1.2009,1.1322,1.1315,1.1281,1.12,1.12,1.124,1.1315,1.1315,1.1362,1.1511,1.1586,1.1584,1.1584,1.1584,1.1584,1.1584,1.1584,1.1584,1.1584,1.1584,1.1584,1.1584,1.1584,1.1584,1.1584,1.1584,1.1463,1.1308,1.1308,1.1118,1.0934,1.0934,1.0989,1.1063,1.1172,1.1308,1.1409,1.1491,1.1565,1.1584,1.1584,1.1584,1.1584,1.1584,1.1038,0.9801,0.744,0.6391,0.5126,0.2732,0.2296,0.2296,0.2296,0.2358,0.2383,0.2398,0.2427,0.2451,0.2465,0.2481,0.2491,0.2491,0.2506,0.2514,0.2514,0.2514,0.2514,0.2514,0.2514,0.2514,0.2514,0.2318,0.2121,0.1886,0.1256,0.0432,-0.0667,-0.3642,-0.5444,1.2319,1.2922,1.3614,1.4448,1.4789,1.4966,1.4998,1.483,1.4651,1.4435,1.4371,1.4286,0.0,0.0,0.0,0.0,0.0,0.0,0.0,0.0,0.0,0.0,0.0,0.0,0.0,0.0,0.0,0.0,0.0,0.0,1.267,1.2549,1.2111,1.1269,1.1193,1.1145,1.1118,1.1118,1.1132,1.1159,1.1186,1.1281,1.1396,1.1497,1.1572,1.1584,1.1584,1.1584,1.1584,1.1584,1.1584,1.1584,1.1584,1.1584,1.1584,1.1584,1.1584,1.1584,1.1584,1.1518,1.1389,1.1389,1.1322,1.12,1.12,1.122,1.1234,1.1234,1.1349,1.143,1.143,1.1525,1.1584,1.1584,1.1584,1.1584,1.1584,1.0599,0.9147,0.7368,0.5525,0.386,0.2515,0.2296,0.2296,0.2296,0.2363,0.2395,0.2382,0.2455,0.2487,0.2511,0.2514,0.2514,0.2514,0.2514,0.2514,0.2514,0.2514,0.2514,0.2514,0.2514,0.2475,0.2396,0.2082,0.1807,0.1689,0.0942,-0.0157,-0.1606,-0.3642,-0.5483,1.1806,1.2645,1.3581,1.4286,1.4603,1.4781,1.4966,1.483,1.4651,0.0,1.4318,0.0,0.0,0.0,0.0,0.0,0.0,0.0,0.0,0.0,0.0,0.0,0.0,0.0,0.0,0.0,0.0,0.0,0.0,0.0,1.3056,1.2697,1.2172,1.1498,1.1111,1.088,1.0778,1.0778,1.0846,1.0948,1.1104,1.1281,1.1389,1.1308,1.1369,1.1584,1.1584,1.1584,1.1584,1.1584,1.1584,1.1584,1.1584,1.1584,1.1584,1.1584,1.1584,1.1584,1.1584,1.1518,1.1389,1.1389,1.1322,1.12,1.12,1.1288,1.1362,1.1362,1.147,1.1556,1.1556,1.1606,1.1584,1.1584,1.1584,1.1584,1.1584,1.144,1.0455,0.7548,0.4618,0.2551,0.2333,0.2296,0.2296,0.2296,0.2343,0.2381,0.2385,0.2473,0.251,0.2514,0.2514,0.2514,0.2514,0.2514,0.2514,0.2514,0.2514,0.2514,0.2514,0.2514,0.2318,0.2003,0.1925,0.1532,0.0785,0.0668,0.0314,-0.0314,-0.2038,-0.372,1.2043,1.2735,1.3392,1.4107,1.4424,1.457,1.4651,1.4538,1.4391,1.431,0.0,0.0,0.0,0.0,0.0,0.0,0.0,0.0,0.0,0.0,0.0,0.0,0.0,0.0,0.0,0.0,0.0,0.0,0.0,1.3461,1.2837,1.2445,1.1957,1.1361,1.0986,1.0752,1.0684,1.0684,1.0718,1.0786,1.0941,1.1043,1.111,1.1193,1.1363,1.1613,1.1531,1.1538,1.1584,1.1584,1.1584,1.1584,1.1584,1.1584,1.1584,1.1584,1.1584,1.1584,1.1584,1.1572,1.1518,1.1518,1.147,1.1402,1.1314,1.1341,1.1389,1.1389,1.1443,1.1511,1.1599,1.1584,1.1584,1.1584,1.1584,1.1584,1.1584,1.093,0.9399,0.6322,0.3857,0.2296,0.2296,0.2296,0.2296,0.2296,0.2347,0.2386,0.2386,0.2477,0.2514,0.2514,0.2514,0.2514,0.2514,0.2514,0.2514,0.2514,0.2514,0.2514,0.2514,0.2278,0.1964,0.1571,0.1571,0.1256,0.0589,0.0393,-0.0314,-0.1412,-0.2156,-0.3916,1.253,1.3212,1.3799,1.4366,1.4569,1.4627,1.4436,0.0,1.4217,0.0,0.0,0.0,0.0,0.0,0.0,0.0,0.0,0.0,0.0,0.0,0.0,0.0,0.0,0.0,0.0,0.0,0.0,0.0,0.0,1.3295,1.2772,1.2251,1.1806,1.1387,1.0916,1.0684,1.0684,1.0684,1.0684,1.0691,1.0799,1.088,1.0914,1.1016,1.1219,1.1497,1.1423,1.1457,1.1565,1.1606,1.1584,1.1584,1.1584,1.1584,1.1584,1.1584,1.1584,1.1584,1.1584,1.1584,1.1584,1.1584,1.1584,1.1563,1.1484,1.145,1.145,1.145,1.145,1.1477,1.1556,1.1584,1.1584,1.1584,1.1584,1.1584,1.1584,1.0089,0.8023,0.5742,0.3676,0.2296,0.2296,0.2296,0.2299,0.2307,0.2352,0.2389,0.2433,0.2481,0.2514,0.2514,0.2514,0.2514,0.2514,0.2514,0.2514,0.2514,0.2514,0.2435,0.2357,0.2043,0.165,0.1139,0.1139,0.0903,0.0432,0.0157,-0.0628,-0.1881,-0.1881,-0.3447,1.3162,1.4291,1.5258,1.5247,1.533,1.5273,1.4567,0.0,1.4217,0.0,0.0,0.0,0.0,0.0,0.0,0.0,0.0,0.0,0.0,0.0,0.0,0.0,0.0,0.0,0.0,0.0,0.0,0.0,0.0,1.3303,1.31,1.2386,1.194,1.1784,1.1082,1.0684,1.0684,1.0684,1.0684,1.0684,1.0698,1.0772,1.0907,1.0772,1.0907,1.1227,1.137,1.1396,1.1416,1.1558,1.1584,1.1584,1.1584,1.1584,1.1584,1.1584,1.1584,1.1584,1.1584,1.1584,1.1584,1.1584,1.1584,1.1619,1.1577,1.1606,1.1606,1.1606,1.1606,1.157,1.1619,1.1584,1.1584,1.1584,1.1584,1.1584,1.1584,0.9255,0.7078,0.6898,0.44,0.2296,0.2296,0.2296,0.2305,0.2372,0.2403,0.2433,0.2502,0.2495,0.2514,0.2514,0.2514,0.2514,0.2514,0.2514,0.2514,0.2514,0.2514,0.2318,0.1964,0.1925,0.1493,0.0668,0.0628,0.0432,0.0039,0.0,-0.0039,-0.0118,-0.0118,-0.1059,1.4092,1.4659,1.5173,1.5582,1.5315,1.4901,1.4802,1.4263,1.3804,0.0,0.0,0.0,0.0,0.0,0.0,0.0,0.0,0.0,0.0,0.0,0.0,0.0,0.0,0.0,0.0,0.0,0.0,0.0,0.0,0.0,1.2605,1.2132,1.1736,1.1413,1.0949,1.0684,1.0684,1.0684,1.0684,1.0684,1.0684,1.0718,1.0765,1.0711,1.0799,1.1036,1.1179,1.1336,1.1402,1.1558,1.1584,1.1584,1.1584,1.1584,1.1584,1.1584,1.1584,1.1584,1.1584,1.1584,1.1584,1.1584,1.1584,1.1584,1.1584,1.1584,1.1584,1.1584,1.1584,1.1584,1.1584,1.1584,1.1584,1.1584,1.1584,1.1584,1.1584,0.9183,0.7006,0.7006,0.4473,0.2296,0.2296,0.2349,0.2365,0.2413,0.2421,0.2457,0.2506,0.2495,0.2514,0.2514,0.2514,0.2514,0.2514,0.2514,0.2514,0.2514,0.2514,0.2318,0.1925,0.165,0.1217,0.0628,0.0353,0.0157,0.0,0.0,0.0,0.0,0.0,-0.0903,1.5138,1.5581,1.6046,1.65,1.6097,1.5645,1.5803,1.5285,1.4828,0.0,0.0,0.0,0.0,0.0,0.0,0.0,0.0,0.0,0.0,0.0,0.0,0.0,0.0,0.0,0.0,0.0,0.0,0.0,0.0,0.0,1.2312,1.1975,1.1545,1.1049,1.0817,1.0684,1.0684,1.0684,1.0684,1.0684,1.0684,1.0684,1.0684,1.0684,1.0772,1.0921,1.1097,1.1281,1.1402,1.1558,1.1584,1.1584,1.1584,1.1584,1.1584,1.1584,1.1584,1.1584,1.1584,1.1584,1.1584,1.1584,1.1584,1.1584,1.1584,1.1584,1.1584,1.1584,1.1584,1.1584,1.1584,1.1584,1.1597,1.1644,1.1617,1.1597,1.1644,0.921,0.7006,0.7006,0.4473,0.2299,0.2346,0.2356,0.2373,0.2441,0.2435,0.2461,0.2481,0.2502,0.2514,0.2514,0.2514,0.2514,0.2514,0.2514,0.2514,0.2514,0.2357,0.2121,0.1728,0.1296,0.0864,0.0393,0.0118,0.0,0.0,0.0,0.0,0.0,0.0,-0.0903,0.0,0.0,0.0,1.8027,1.7786,0.0,1.7522,0.0,1.7233,0.0,0.0,0.0,0.0,0.0,0.0,0.0,0.0,0.0,0.0,0.0,0.0,0.0,0.0,0.0,0.0,0.0,0.0,0.0,0.0,1.2642,1.2312,1.1949,1.1453,1.0724,1.0691,1.0691,1.0691,1.0691,1.0684,1.0684,1.0684,1.0684,1.0684,1.0691,1.0779,1.0928,1.1104,1.1288,1.1409,1.1558,1.1584,1.1584,1.1584,1.1584,1.1584,1.1584,1.1584,1.1584,1.1584,1.1584,1.1584,1.1584,1.1584,1.1584,1.1584,1.1584,1.1584,1.1584,1.1584,1.1626,1.1626,1.1626,1.1624,1.1759,1.1692,1.1638,1.1773,0.9269,0.701,0.7006,0.4473,0.2305,0.2372,0.2353,0.2328,0.2492,0.2444,0.2409,0.2507,0.2514,0.2514,0.2514,0.2514,0.2514,0.2514,0.2514,0.2514,0.2475,0.2121,0.1728,0.1296,0.0825,0.0393,0.0,0.0,0.0,0.0,0.0,0.0,0.0,0.0,-0.0863,1.7224,0.0,0.0,0.0,0.0,0.0,0.0,0.0,0.0,0.0,0.0,0.0,0.0,0.0,0.0,0.0,0.0,0.0,0.0,0.0,0.0,0.0,0.0,0.0,0.0,0.0,0.0,0.0,1.2872,1.2591,1.2108,1.1411,1.0971,1.0846,1.0745,1.0738,1.0846,1.0745,1.0684,1.0684,1.0684,1.0684,1.0691,1.0799,1.0934,1.1145,1.1295,1.1416,1.1558,1.1563,1.1584,1.1584,1.1584,1.1584,1.1584,1.1584,1.1584,1.1584,1.1584,1.1584,1.1584,1.1584,1.1584,1.1584,1.1584,1.1584,1.1584,1.1584,1.1658,1.1739,1.1739,1.1739,1.1746,1.1786,1.1884,1.1989,1.2023,0.9457,0.7125,0.7031,0.4473,0.2299,0.2307,0.2338,0.237,0.2432,0.2466,0.2495,0.2512,0.2514,0.2514,0.2514,0.2514,0.2514,0.2514,0.2514,0.2357,0.2082,0.1964,0.1571,0.0825,0.0668,0.0393,0.0,0.0,0.0,0.0,0.0,0.0,0.0,0.0,-0.0236,1.7608,1.7608,1.7729,0.0,0.0,0.0,0.0,1.8107,0.0,0.0,0.0,0.0,0.0,0.0,0.0,0.0,0.0,0.0,0.0,0.0,0.0,0.0,0.0,0.0,0.0,0.0,0.0,1.3239,1.3116,1.2764,1.2146,1.1264,1.0826,1.0914,1.0765,1.0732,1.0819,1.0732,1.0684,1.0684,1.0684,1.0684,1.0691,1.0846,1.1029,1.1206,1.1321,1.1477,1.1584,1.1584,1.1584,1.1584,1.1584,1.1584,1.1626,1.1651,1.1671,1.1714,1.1782,1.1803,1.1796,1.1692,1.1671,1.1671,1.1671,1.1671,1.1685,1.1782,1.1816,1.1807,1.1911,1.184,1.1827,1.1993,1.204,1.2118,1.2179,0.957,0.7173,0.7105,0.4509,0.2334,0.2334,0.239,0.2413,0.2439,0.2462,0.2485,0.2511,0.2514,0.2514,0.2514,0.2514,0.2514,0.2514,0.2514,0.2318,0.1925,0.1728,0.1336,0.0628,0.0432,0.0236,0.0,0.0,0.0,0.0,0.0,0.0,0.0,0.0,0.0,1.7608,1.7609,1.7769,0.0,0.0,0.0,1.9757,1.9867,1.988,0.0,0.0,0.0,0.0,0.0,0.0,0.0,0.0,0.0,0.0,0.0,0.0,0.0,0.0,0.0,0.0,1.3435,1.3435,1.3435,1.3366,1.3014,1.2337,1.1418,1.0934,1.0934,1.0792,1.0711,1.0711,1.0698,1.0684,1.0684,1.0684,1.0698,1.0718,1.0867,1.105,1.1234,1.1348,1.1491,1.1584,1.1584,1.1584,1.1584,1.1584,1.159,1.1624,1.1746,1.1807,1.1877,1.205,1.2098,1.2077,1.1904,1.182,1.182,1.182,1.182,1.1854,1.2084,1.1979,1.1891,1.2084,1.1986,1.1915,1.2223,1.2234,1.2186,1.2284,0.9802,0.7461,0.7272,0.4613,0.2418,0.2418,0.2399,0.2402,0.2494,0.2447,0.2414,0.2507,0.2514,0.2514,0.2514,0.2514,0.2514,0.2514,0.2475,0.2278,0.1846,0.1454,0.1021,0.055,0.0196,0.0,0.0,0.0,0.0,0.0,0.0,0.0,0.0,0.0,0.0,1.7608,0.0,0.0,0.0,0.0,0.0,1.9036,1.8958,1.8865,0.0,0.0,0.0,0.0,0.0,0.0,0.0,0.0,0.0,0.0,0.0,0.0,0.0,0.0,0.0,0.0,1.3561,1.3561,1.3561,1.2994,1.2584,1.231,1.1551,1.1159,1.1159,1.0948,1.0874,1.0874,1.0745,1.0684,1.0684,1.0684,1.0752,1.0874,1.1056,1.124,1.1355,1.1511,1.1592,1.1584,1.1584,1.1584,1.1584,1.1584,1.1651,1.1753,1.1786,1.1911,1.2057,1.2091,1.2098,1.2091,1.2064,1.2057,1.2057,1.2057,1.2057,1.2084,1.2203,1.2135,1.2091,1.2203,1.2223,1.2216,1.2277,1.2352,1.2427,1.2454,1.088,0.9045,0.7692,0.4712,0.2387,0.2387,0.2402,0.2418,0.2431,0.2469,0.2502,0.2512,0.2514,0.2514,0.2514,0.2514,0.2514,0.2514,0.22,0.1846,0.1454,0.0982,0.055,0.0118,0.0039,0.0,0.0,0.0,0.0,0.0,0.0,0.0,0.0,0.0,0.0,0.0,0.0,0.0,1.8196,0.0,0.0,0.0,1.8704,1.8611,1.9052,0.0,0.0,0.0,0.0,0.0,0.0,0.0,0.0,0.0,0.0,0.0,0.0,0.0,0.0,0.0,1.3739,1.3739,1.3739,1.3059,1.2567,1.2403,1.1656,1.1166,1.1056,1.088,1.0799,1.0799,1.0725,1.0684,1.0691,1.0765,1.084,1.0921,1.1179,1.1356,1.1402,1.1552,1.1584,1.1584,1.1584,1.1584,1.1626,1.1658,1.1732,1.1813,1.2006,1.2108,1.2227,1.2295,1.2284,1.2309,1.2234,1.2213,1.2213,1.2213,1.2261,1.2298,1.2372,1.2291,1.2247,1.2359,1.2345,1.2311,1.2379,1.2447,1.2501,1.2501,1.1178,0.9521,0.7843,0.5404,0.3371,0.2551,0.2427,0.2442,0.2387,0.2462,0.2497,0.2512,0.2514,0.2514,0.2514,0.2514,0.2435,0.22,0.2003,0.1611,0.0982,0.0746,0.0432,0.0,0.0,0.0,0.0,0.0,0.0,0.0,0.0,0.0,0.0,0.0,0.0,0.0,0.0,0.0,0.0,0.0,1.8276,0.0,0.0,0.0,1.904,0.0,0.0,0.0,0.0,0.0,0.0,0.0,0.0,0.0,0.0,0.0,0.0,0.0,0.0,0.0,1.375,1.3739,1.3741,1.3105,1.2619,1.2416,1.1657,1.1138,1.0961,1.0813,1.0732,1.0732,1.0698,1.0698,1.0732,1.0853,1.0941,1.1009,1.128,1.1409,1.1443,1.1565,1.1584,1.1584,1.1584,1.1584,1.1597,1.1739,1.1813,1.1874,1.2189,1.2311,1.2345,1.2461,1.2501,1.2481,1.2366,1.2332,1.2332,1.2332,1.2413,1.2494,1.2467,1.24,1.2352,1.244,1.2393,1.2359,1.2474,1.2501,1.2501,1.2501,1.145,0.9893,0.7893,0.6367,0.4772,0.2765,0.2444,0.2454,0.2435,0.2458,0.2487,0.2511,0.2514,0.2514,0.2514,0.2435,0.2239,0.1925,0.1728,0.1336,0.0628,0.051,0.0353,0.0,0.0,0.0,0.0,0.0,0.0,0.0,0.0,0.0,0.0,0.0,0.0,0.0,0.0,0.0,0.0,1.8409,0.0,0.0,0.0,1.8089,1.8129,0.0,0.0,0.0,0.0,0.0,0.0,0.0,0.0,0.0,0.0,0.0,0.0,0.0,0.0,0.0,0.0,1.3183,1.3189,1.2611,1.2206,1.2058,1.1622,1.1294,1.1179,1.0961,1.0887,1.0887,1.0752,1.0752,1.0887,1.0907,1.1049,1.1341,1.1375,1.1463,1.1592,1.1577,1.1584,1.1584,1.1584,1.1584,1.1597,1.1739,1.1911,1.2091,1.223,1.2372,1.2481,1.2494,1.2501,1.2501,1.2481,1.2474,1.2474,1.2474,1.2488,1.2474,1.2352,1.2393,1.2454,1.2345,1.2393,1.2481,1.2501,1.2501,1.2501,1.2501,1.2347,1.129,0.8128,0.7332,0.6194,0.2957,0.2389,0.2436,0.2499,0.2489,0.251,0.2514,0.2514,0.2514,0.2514,0.22,0.1964,0.1886,0.1178,0.0707,0.0589,0.0275,0.0039,0.0,0.0,0.0,0.0,0.0,0.0,0.0,0.0,0.0,0.0,0.0,0.0,0.0,0.0,0.0,0.0,0.0,0.0,1.8089,0.0,1.7796,0.0,0.0,0.0,0.0,0.0,0.0,0.0,0.0,0.0,0.0,0.0,0.0,0.0,0.0,0.0,0.0,0.0,0.0,0.0,0.0,1.1996,1.1844,1.1469,1.1261,1.12,1.1104,1.1029,1.0914,1.0968,1.0968,1.0914,1.109,1.1274,1.1396,1.1484,1.1558,1.1584,1.1584,1.1584,1.1584,1.1584,1.1584,1.1597,1.1739,1.1925,1.2125,1.2325,1.2447,1.2501,1.2501,1.2501,1.2501,1.2501,1.2501,1.2501,1.2501,1.2501,1.2488,1.2427,1.2454,1.2488,1.2427,1.2461,1.2501,1.2501,1.2501,1.2501,1.2501,1.2501,1.1522,0.8162,0.7493,0.641,0.3025,0.245,0.2454,0.2506,0.2495,0.2514,0.2514,0.2514,0.2396,0.216,0.2003,0.1689,0.1178,0.0825,0.051,0.0275,0.0079,0.0,0.0,0.0,0.0,0.0,0.0,0.0,0.0,0.0,0.0,0.0,0.0,0.0,1.7876,0.0,0.0,0.0,0.0,0.0,0.0,0.0,0.0,0.0,0.0,0.0,0.0,0.0,0.0,1.7889,0.0,0.0,0.0,0.0,0.0,0.0,0.0,0.0,0.0,0.0,0.0,0.0,0.0,0.0,1.1439,1.1214,1.1159,1.1193,1.12,1.1166,1.1036,1.1166,1.1166,1.1036,1.1287,1.1416,1.1457,1.1565,1.1584,1.1584,1.1584,1.1584,1.1584,1.1584,1.1584,1.1597,1.1739,1.1898,1.2033,1.2332,1.2467,1.2494,1.2461,1.244,1.244,1.244,1.2467,1.2501,1.2501,1.2501,1.2494,1.2454,1.2474,1.2494,1.2454,1.2474,1.2501,1.2501,1.2501,1.2501,1.2501,1.2501,1.1638,0.8741,0.7799,0.6574,0.3698,0.2814,0.251,0.2518,0.25,0.2475,0.2357,0.2318,0.22,0.1768,0.1611,0.1296,0.0668,0.051,0.0314,0.0,0.0,0.0,0.0,0.0,0.0,0.0,0.0,0.0,0.0,0.0,0.0,0.0,0.0,0.0,0.0,0.0,0.0,1.8142,0.0,0.0,0.0,0.0,1.8089,0.0,0.0,0.0,0.0,0.0,1.7622,1.7622,1.7836,0.0,0.0,0.0,0.0,0.0,0.0,0.0,0.0,0.0,0.0,0.0,0.0,0.0,1.075,1.084,1.0988,1.1193,1.12,1.1268,1.1375,1.1268,1.1268,1.1375,1.1389,1.147,1.1577,1.1619,1.1584,1.1584,1.1584,1.1584,1.1584,1.1584,1.1584,1.1597,1.1739,1.18,1.184,1.2182,1.2386,1.2481,1.2345,1.2298,1.2298,1.2298,1.2393,1.2501,1.2501,1.2501,1.2474,1.2338,1.2393,1.2467,1.2332,1.24,1.2501,1.2501,1.2501,1.2501,1.2501,1.2501,1.1991,1.0271,0.8602,0.6957,0.5231,0.3583,0.2517,0.2508,0.2514,0.2357,0.1964,0.1925,0.1768,0.1375,0.0903,0.0628,0.0589,0.0236,0.0,0.0,0.0,0.0,0.0,0.0,0.0,0.0,0.0,0.0,0.0,0.0,0.0,0.0,0.0,0.0,0.0,0.0,1.8756,1.8142,0.0,0.0,0.0,0.0,0.0,0.0,0.0,0.0,0.0,1.7702,1.7331,1.7331,1.7224,1.7143,0.0,0.0,0.0,0.0,0.0,0.0,0.0,0.0,0.0,0.0,1.1089,0.0,0.0,1.0955,1.1158,1.1342,1.1409,1.1443,1.1389,1.1443,1.1443,1.1396,1.1491,1.1565,1.1584,1.1584,1.1584,1.1584,1.1584,1.1584,1.1584,1.1584,1.1584,1.159,1.1638,1.1712,1.1834,1.2176,1.2257,1.2241,1.2193,1.2241,1.2271,1.2213,1.2275,1.2345,1.2244,1.2247,1.2223,1.2277,1.2325,1.2372,1.242,1.2467,1.2501,1.2501,1.2501,1.2501,1.2501,1.2501,1.2017,1.034,0.9557,0.8281,0.5486,0.4517,0.3786,0.2669,0.2514,0.2357,0.1964,0.1886,0.1611,0.0903,0.0707,0.051,0.0236,0.0079,0.0,0.0,0.0,0.0,0.0,0.0,0.0,0.0,0.0,0.0,0.0,0.0,0.0,0.0,0.0,0.0,1.8236,1.8529,0.0,1.8423,1.8476,0.0,1.7874,0.0,0.0,0.0,0.0,0.0,0.0,0.0,1.6615,1.7223,1.6986,1.671,0.0,1.7005,0.0,0.0,0.0,0.0,0.0,0.0,1.2434,1.1586,0.0,0.0,0.0,0.0,1.1158,1.1307,1.1511,1.1572,1.147,1.1572,1.1572,1.147,1.1572,1.1584,1.1584,1.1584,1.1584,1.1584,1.1584,1.1584,1.1584,1.1584,1.1584,1.1584,1.1584,1.1638,1.1746,1.2033,1.2067,1.1979,1.1979,1.2047,1.2108,1.2013,1.2088,1.2227,1.2132,1.2139,1.22,1.2264,1.2325,1.2386,1.2481,1.2501,1.2501,1.2501,1.2501,1.2501,1.2501,1.2501,1.2192,1.1095,1.0397,0.9304,0.7158,0.5792,0.4429,0.2749,0.2396,0.216,0.1728,0.1532,0.1178,0.0471,0.0393,0.0275,0.0039,0.0,0.0,0.0,0.0,0.0,0.0,0.0,0.0,0.0,0.0,0.0,0.0,0.0,0.0,0.0,0.0,0.0]},{"header":{"parameterUnit":"m.s-1","parameterCategory":1,"la1":30.6,"la2":29.2853,"lo1":-89.7004,"lo2":-87.6739,"dy":0.0162,"dx":0.0183,"nx":112,"ny":82,"refTime":"2024-09-21T12:00:00:Z","depth":0,"parameterNumber":3,"parameterNumberName":"V-component_of_WINDS"},"data":[0.0,0.0,0.0,0.0,0.0,0.0,0.0,0.0,0.0,0.0,0.0,0.0,0.0,0.0,0.0,0.0,0.0,0.0,0.0,0.0,0.0,0.0,0.0,0.0,0.0,0.0,0.0,0.0,0.0,0.0,0.0,0.0,0.0,0.0,0.0,0.0,0.0,0.0,0.0,0.0,0.0,0.0,0.0,0.0,0.0,0.0,0.0,0.0,0.0,0.0,0.0,0.0,0.0,0.0,0.0,0.0,0.0,0.0,0.0,0.0,0.0,0.0,0.0,0.0,0.0,0.0,0.0,0.0,0.0,0.0,0.0,0.0,0.0,0.0,0.0,0.0,0.0,0.0,0.0,0.0,0.0,0.0,0.0,0.0,0.0,0.0,0.0,0.0,0.0,0.0,3.5215,3.6339,3.6876,3.6891,3.6238,3.6753,3.6204,3.4084,0.0,0.0,0.0,0.0,0.0,0.0,0.0,0.0,0.0,0.0,0.0,0.0,0.0,0.0,0.0,0.0,0.0,0.0,0.0,0.0,0.0,0.0,0.0,0.0,0.0,0.0,0.0,0.0,0.0,0.0,0.0,0.0,0.0,0.0,0.0,0.0,0.0,0.0,0.0,0.0,0.0,0.0,0.0,0.0,0.0,0.0,0.0,0.0,0.0,0.0,0.0,0.0,0.0,0.0,0.0,0.0,0.0,0.0,0.0,0.0,0.0,0.0,0.0,0.0,0.0,0.0,0.0,0.0,0.0,0.0,0.0,0.0,0.0,0.0,0.0,0.0,0.0,0.0,0.0,0.0,0.0,0.0,0.0,0.0,0.0,0.0,0.0,0.0,0.0,0.0,0.0,0.0,0.0,0.0,0.0,0.0,0.0,0.0,0.0,0.0,0.0,0.0,0.0,0.0,3.5635,3.6992,3.6696,3.6307,3.6204,3.6307,3.5731,3.416,0.0,0.0,0.0,0.0,0.0,0.0,0.0,0.0,0.0,0.0,0.0,0.0,0.0,0.0,0.0,0.0,0.0,0.0,0.0,0.0,0.0,0.0,0.0,0.0,0.0,0.0,0.0,0.0,0.0,0.0,0.0,0.0,0.0,0.0,0.0,0.0,0.0,0.0,0.0,0.0,0.0,0.0,0.0,0.0,0.0,0.0,0.0,0.0,0.0,0.0,0.0,0.0,0.0,0.0,0.0,0.0,0.0,0.0,0.0,0.0,0.0,0.0,0.0,0.0,0.0,0.0,0.0,0.0,0.0,0.0,0.0,0.0,0.0,0.0,0.0,0.0,0.0,0.0,0.0,0.0,0.0,0.0,0.0,0.0,0.0,0.0,0.0,0.0,0.0,0.0,0.0,0.0,0.0,0.0,0.0,0.0,0.0,0.0,0.0,0.0,0.0,0.0,0.0,3.4592,3.5618,3.6633,3.6461,3.6244,3.6244,3.6244,3.5656,3.419,3.3327,0.0,0.0,0.0,0.0,0.0,0.0,0.0,0.0,0.0,0.0,0.0,0.0,0.0,0.0,0.0,0.0,0.0,0.0,0.0,0.0,0.0,0.0,0.0,0.0,0.0,0.0,0.0,0.0,0.0,0.0,0.0,0.0,0.0,0.0,0.0,0.0,0.0,0.0,0.0,0.0,0.0,0.0,0.0,0.0,0.0,0.0,0.0,0.0,0.0,0.0,0.0,0.0,0.0,0.0,0.0,0.0,0.0,0.0,0.0,0.0,0.0,0.0,0.0,0.0,0.0,0.0,0.0,0.0,0.0,0.0,0.0,0.0,0.0,0.0,0.0,0.0,0.0,0.0,0.0,0.0,0.0,0.0,0.0,0.0,0.0,0.0,0.0,0.0,0.0,0.0,0.0,0.0,0.0,0.0,0.0,0.0,0.0,0.0,0.0,0.0,0.0,0.0,3.5913,3.6123,3.6779,3.6606,3.644,3.644,3.6036,3.5294,3.4155,3.2317,0.0,0.0,0.0,0.0,0.0,0.0,0.0,0.0,0.0,0.0,0.0,0.0,0.0,0.0,0.0,0.0,0.0,0.0,0.0,0.0,0.0,0.0,0.0,0.0,0.0,0.0,0.0,0.0,0.0,0.0,0.0,0.0,0.0,0.0,0.0,0.0,0.0,0.0,0.0,0.0,0.0,0.0,0.0,0.0,0.0,0.0,0.0,0.0,0.0,0.0,0.0,0.0,0.0,0.0,0.0,0.0,0.0,0.0,0.0,0.0,0.0,0.0,0.0,0.0,0.0,0.0,0.0,0.0,0.0,0.0,0.0,0.0,0.0,0.0,0.0,0.0,0.0,0.0,0.0,0.0,0.0,0.0,0.0,0.0,0.0,0.0,0.0,0.0,0.0,0.0,0.0,0.0,0.0,0.0,0.0,0.0,0.0,0.0,0.0,0.0,0.0,0.0,3.7236,3.8024,3.8394,3.7498,3.685,3.685,3.5248,3.4224,3.413,3.1317,0.0,0.0,0.0,0.0,0.0,0.0,0.0,0.0,0.0,0.0,0.0,0.0,0.0,0.0,0.0,0.0,0.0,0.0,0.0,0.0,0.0,0.0,0.0,0.0,0.0,0.0,0.0,0.0,0.0,0.0,0.0,0.0,0.0,0.0,0.0,0.0,0.0,0.0,0.0,0.0,0.0,0.0,0.0,0.0,0.0,0.0,0.0,0.0,0.0,0.0,0.0,0.0,0.0,0.0,0.0,0.0,0.0,0.0,0.0,0.0,0.0,0.0,0.0,0.0,0.0,0.0,0.0,0.0,0.0,0.0,0.0,0.0,0.0,0.0,0.0,0.0,0.0,0.0,0.0,0.0,0.0,0.0,0.0,0.0,0.0,0.0,0.0,0.0,0.0,0.0,0.0,0.0,0.0,0.0,0.0,0.0,0.0,0.0,0.0,0.0,0.0,0.0,3.6459,3.7246,0.0,3.7318,3.69,3.69,3.5788,3.4608,3.344,0.0,0.0,0.0,0.0,0.0,0.0,0.0,0.0,0.0,0.0,0.0,0.0,0.0,0.0,0.0,0.0,0.0,0.0,0.0,0.0,0.0,0.0,0.0,0.0,0.0,0.0,0.0,0.0,0.0,0.0,0.0,0.0,0.0,0.0,0.0,0.0,0.0,0.0,0.0,0.0,0.0,0.0,0.0,0.0,0.0,0.0,0.0,0.0,0.0,0.0,0.0,0.0,0.0,0.0,0.0,0.0,0.0,0.0,0.0,0.0,0.0,0.0,0.0,0.0,0.0,0.0,0.0,0.0,0.0,0.0,0.0,0.0,0.0,0.0,0.0,0.0,0.0,0.0,0.0,0.0,0.0,0.0,0.0,0.0,0.0,0.0,0.0,0.0,0.0,0.0,0.0,0.0,0.0,0.0,0.0,0.0,0.0,0.0,0.0,0.0,0.0,0.0,3.5267,3.6481,3.731,0.0,3.7523,3.7293,3.7293,3.5975,3.461,3.3321,0.0,0.0,0.0,0.0,0.0,0.0,0.0,0.0,0.0,0.0,0.0,0.0,0.0,0.0,0.0,0.0,0.0,0.0,0.0,0.0,0.0,0.0,0.0,0.0,0.0,0.0,0.0,0.0,0.0,0.0,0.0,0.0,0.0,0.0,0.0,0.0,0.0,0.0,0.0,0.0,0.0,0.0,0.0,0.0,0.0,0.0,0.0,0.0,0.0,0.0,0.0,0.0,0.0,0.0,0.0,0.0,0.0,0.0,0.0,0.0,0.0,0.0,0.0,0.0,0.0,0.0,0.0,0.0,0.0,0.0,0.0,0.0,0.0,0.0,0.0,0.0,0.0,0.0,0.0,0.0,0.0,0.0,0.0,0.0,0.0,0.0,0.0,0.0,0.0,0.0,0.0,0.0,0.0,0.0,0.0,0.0,0.0,0.0,0.0,0.0,0.0,0.0,3.609,3.7698,3.8681,3.8681,3.8344,3.8101,3.8101,3.56,3.4016,0.0,0.0,0.0,0.0,0.0,0.0,0.0,0.0,0.0,0.0,0.0,0.0,0.0,0.0,0.0,0.0,0.0,0.0,0.0,0.0,0.0,0.0,0.0,0.0,0.0,0.0,0.0,0.0,0.0,0.0,0.0,0.0,0.0,0.0,0.0,0.0,0.0,0.0,0.0,0.0,0.0,0.0,0.0,0.0,0.0,0.0,0.0,0.0,0.0,0.0,0.0,0.0,0.0,0.0,0.0,0.0,0.0,0.0,0.0,0.0,0.0,0.0,0.0,0.0,0.0,0.0,0.0,0.0,0.0,0.0,0.0,0.0,0.0,0.0,0.0,0.0,0.0,0.0,0.0,0.0,0.0,0.0,0.0,0.0,0.0,0.0,0.0,0.0,0.0,0.0,0.0,0.0,0.0,0.0,0.0,0.0,0.0,0.0,0.0,0.0,0.0,0.0,0.0,3.609,3.7698,3.8681,3.8681,3.8344,3.8101,3.8101,3.6338,3.487,3.406,0.0,0.0,0.0,0.0,0.0,0.0,0.0,0.0,0.0,0.0,0.0,0.0,0.0,0.0,0.0,0.0,0.0,0.0,0.0,0.0,0.0,0.0,0.0,0.0,0.0,0.0,0.0,0.0,0.0,0.0,0.0,0.0,0.0,0.0,0.0,0.0,0.0,0.0,0.0,0.0,0.0,0.0,0.0,0.0,0.0,0.0,0.0,0.0,0.0,0.0,0.0,0.0,0.0,0.0,0.0,0.0,0.0,0.0,0.0,0.0,0.0,0.0,0.0,0.0,0.0,0.0,0.0,0.0,0.0,0.0,0.0,0.0,0.0,0.0,0.0,0.0,0.0,0.0,0.0,0.0,0.0,0.0,0.0,0.0,0.0,0.0,0.0,0.0,0.0,0.0,0.0,0.0,0.0,0.0,0.0,0.0,0.0,0.0,0.0,0.0,0.0,0.0,3.609,3.7698,3.8681,3.8681,3.8465,3.8344,3.8344,3.7179,3.5828,3.4468,0.0,0.0,0.0,0.0,0.0,0.0,0.0,0.0,0.0,0.0,0.0,0.0,0.0,0.0,0.0,0.0,0.0,0.0,0.0,0.0,0.0,0.0,0.0,0.0,0.0,0.0,0.0,0.0,0.0,0.0,0.0,0.0,0.0,0.0,0.0,0.0,0.0,0.0,0.0,0.0,0.0,0.0,0.0,0.0,0.0,0.0,0.0,0.0,0.0,0.0,0.0,0.0,0.0,0.0,0.0,0.0,0.0,0.0,0.0,0.0,0.0,0.0,0.0,0.0,0.0,0.0,0.0,0.0,0.0,0.0,0.0,0.0,0.0,0.0,0.0,0.0,0.0,0.0,0.0,0.0,0.0,0.0,0.0,0.0,0.0,0.0,0.0,0.0,0.0,0.0,0.0,0.0,0.0,0.0,0.0,0.0,0.0,0.0,0.0,0.0,0.0,0.0,3.6207,3.7734,3.8681,3.8681,3.8681,3.8681,3.8681,3.7962,3.6861,3.5334,0.0,0.0,0.0,0.0,0.0,0.0,0.0,0.0,0.0,0.0,0.0,0.0,0.0,0.0,0.0,0.0,0.0,0.0,0.0,0.0,0.0,0.0,0.0,0.0,0.0,0.0,0.0,0.0,0.0,0.0,0.0,0.0,0.0,0.0,0.0,0.0,0.0,0.0,0.0,0.0,0.0,0.0,0.0,0.0,0.0,0.0,0.0,0.0,0.0,0.0,0.0,0.0,0.0,0.0,0.0,0.0,0.0,0.0,0.0,0.0,3.8131,0.0,0.0,0.0,0.0,0.0,0.0,0.0,0.0,0.0,0.0,0.0,0.0,0.0,0.0,0.0,0.0,0.0,0.0,0.0,0.0,0.0,0.0,0.0,0.0,0.0,0.0,0.0,0.0,0.0,0.0,0.0,0.0,0.0,0.0,0.0,0.0,0.0,0.0,0.0,0.0,0.0,3.7095,3.8139,3.8681,3.8681,3.8681,3.8681,3.8681,3.7962,3.7345,3.7008,3.4798,0.0,0.0,0.0,0.0,0.0,0.0,0.0,0.0,0.0,0.0,0.0,0.0,0.0,0.0,0.0,0.0,0.0,0.0,0.0,0.0,0.0,0.0,0.0,0.0,0.0,0.0,0.0,0.0,0.0,0.0,0.0,0.0,0.0,0.0,0.0,0.0,0.0,0.0,0.0,0.0,0.0,0.0,0.0,0.0,0.0,0.0,0.0,0.0,0.0,0.0,0.0,0.0,0.0,0.0,0.0,0.0,0.0,0.0,0.0,0.0,4.0096,0.0,0.0,0.0,0.0,0.0,0.0,0.0,0.0,0.0,0.0,0.0,0.0,0.0,0.0,0.0,0.0,0.0,0.0,0.0,0.0,0.0,0.0,0.0,0.0,0.0,0.0,0.0,0.0,0.0,0.0,0.0,0.0,0.0,0.0,0.0,0.0,0.0,0.0,0.0,0.0,3.6932,3.8,3.8681,3.8681,3.8681,3.8681,3.8681,3.8322,3.7925,3.7529,3.5943,0.0,0.0,0.0,0.0,0.0,0.0,0.0,0.0,0.0,0.0,0.0,0.0,0.0,0.0,0.0,0.0,0.0,0.0,0.0,0.0,0.0,0.0,0.0,0.0,0.0,0.0,0.0,0.0,0.0,0.0,0.0,0.0,0.0,0.0,0.0,0.0,0.0,0.0,0.0,0.0,0.0,0.0,0.0,0.0,0.0,0.0,0.0,0.0,0.0,0.0,0.0,0.0,0.0,4.5302,4.5746,4.5752,4.5799,4.6191,4.6718,4.4756,4.3591,4.2898,0.0,0.0,0.0,0.0,0.0,0.0,0.0,0.0,0.0,0.0,0.0,0.0,0.0,0.0,0.0,0.0,0.0,0.0,0.0,0.0,0.0,0.0,0.0,0.0,0.0,4.6701,4.6479,0.0,0.0,0.0,0.0,0.0,0.0,0.0,0.0,0.0,0.0,0.0,0.0,3.6949,3.8211,3.8988,3.8803,3.8751,3.8765,3.8689,3.8681,3.8432,3.7749,3.6934,3.6237,0.0,0.0,0.0,0.0,0.0,0.0,0.0,0.0,0.0,0.0,0.0,0.0,0.0,0.0,0.0,0.0,0.0,0.0,0.0,0.0,0.0,0.0,0.0,0.0,0.0,0.0,0.0,0.0,0.0,0.0,0.0,0.0,4.0066,4.1008,0.0,0.0,0.0,0.0,0.0,0.0,0.0,0.0,0.0,0.0,0.0,0.0,0.0,4.4335,4.4592,4.6081,4.6828,4.6822,4.8389,4.9134,4.9141,4.9421,4.9554,4.9642,4.9639,0.0,4.5474,4.3774,0.0,0.0,0.0,0.0,0.0,0.0,0.0,0.0,0.0,0.0,0.0,0.0,0.0,0.0,0.0,0.0,0.0,0.0,0.0,0.0,0.0,0.0,4.7443,4.7697,4.8432,4.8923,0.0,4.5846,4.3533,4.3204,0.0,0.0,0.0,0.0,0.0,0.0,0.0,0.0,3.9174,4.0043,4.0203,3.9165,3.9049,3.8954,3.8712,3.8681,3.8644,3.8542,3.7779,3.7632,3.8287,3.6844,0.0,0.0,0.0,0.0,0.0,0.0,0.0,0.0,0.0,0.0,0.0,0.0,0.0,0.0,0.0,0.0,0.0,0.0,0.0,0.0,0.0,0.0,0.0,0.0,0.0,0.0,0.0,0.0,0.0,4.0604,4.221,4.303,4.2608,4.2057,0.0,0.0,0.0,0.0,0.0,0.0,0.0,0.0,0.0,4.7879,4.7922,4.8476,4.9543,4.9794,4.9893,4.9893,5.0187,5.0296,5.0302,5.044,5.0483,5.0488,5.0629,4.9926,4.8526,4.6729,4.5687,4.5197,0.0,0.0,0.0,0.0,4.6618,4.6547,4.7975,4.7898,0.0,0.0,0.0,0.0,0.0,0.0,0.0,0.0,0.0,0.0,0.0,0.0,0.0,4.9317,4.9861,5.013,5.013,4.8885,4.7284,0.0,4.3977,4.229,4.0387,0.0,0.0,0.0,0.0,4.0034,4.0392,4.0713,4.0694,4.0171,3.9683,3.9314,3.9234,3.9652,3.992,3.992,4.0014,4.0259,4.0659,3.9557,3.8565,0.0,0.0,0.0,0.0,0.0,0.0,0.0,0.0,0.0,0.0,0.0,0.0,0.0,0.0,0.0,0.0,0.0,0.0,0.0,0.0,0.0,0.0,0.0,0.0,0.0,0.0,0.0,0.0,4.2949,4.4481,4.5297,4.5265,4.4824,0.0,0.0,0.0,0.0,0.0,0.0,4.7474,4.755,4.8609,5.0966,5.1048,5.1727,5.3197,5.2544,5.2236,5.2236,5.1409,5.1034,5.1034,5.0818,5.075,5.075,5.075,5.075,5.0582,4.892,4.7961,4.7486,4.6462,4.6304,4.6817,4.8081,4.825,4.8138,5.0034,5.0158,4.9359,4.8936,0.0,4.7067,4.6026,0.0,0.0,0.0,0.0,4.7362,4.9282,4.9282,4.9128,5.0399,5.075,5.0707,5.0693,5.0688,4.999,0.0,4.6386,4.4842,4.2339,0.0,0.0,0.0,0.0,4.1531,4.1558,4.151,4.1325,4.102,4.024,3.9703,3.9624,4.0396,4.0905,4.0905,4.166,4.2201,4.244,4.1676,4.0969,4.0401,0.0,0.0,0.0,0.0,0.0,0.0,0.0,0.0,0.0,0.0,0.0,0.0,0.0,0.0,0.0,0.0,0.0,0.0,0.0,0.0,0.0,0.0,0.0,0.0,0.0,0.0,0.0,0.0,0.0,4.8,4.8107,0.0,0.0,0.0,0.0,4.7486,4.7565,4.8645,5.1082,5.1235,5.1792,5.3028,5.3033,5.3115,5.3197,5.3159,5.3121,5.3121,5.2329,5.1929,5.1895,5.1137,5.0773,5.0773,5.0773,5.0773,5.0726,4.9735,4.9769,5.0385,4.9529,4.9687,5.0428,5.0505,5.0534,5.0542,5.0658,5.015,4.9616,5.0426,4.9577,4.8347,4.9041,4.8694,0.0,0.0,4.9924,5.058,5.0696,5.0696,5.0696,5.0773,5.0773,5.0799,5.0706,5.0696,5.0408,0.0,4.7918,4.6222,4.4449,0.0,4.1749,4.171,4.2441,4.2979,4.2983,4.2979,4.2551,4.1398,4.0562,3.9957,3.9647,4.0396,4.0905,4.0905,4.166,4.2484,4.3408,4.2669,4.2244,4.2257,4.0621,0.0,0.0,0.0,0.0,0.0,0.0,0.0,0.0,0.0,0.0,0.0,0.0,0.0,0.0,0.0,0.0,0.0,0.0,0.0,0.0,0.0,0.0,0.0,0.0,0.0,0.0,0.0,0.0,4.8276,4.8782,0.0,4.7931,4.8527,4.9418,5.0476,5.1068,5.1982,5.341,5.3487,5.3936,5.4915,5.4959,5.4959,5.4959,5.4386,5.4121,5.4082,5.2713,5.2062,5.2028,5.1198,5.0821,5.0821,5.0821,5.0821,5.0778,5.0434,5.0497,5.0729,5.042,5.0497,5.0767,5.0767,5.0776,5.0751,5.0751,5.0572,5.04,5.0735,5.0473,5.0014,5.0309,5.0185,5.001,5.0319,5.0606,5.0821,5.0821,5.0821,5.0821,5.0821,5.0821,5.0773,5.0756,5.0751,5.0361,4.8955,4.8132,4.6966,4.4701,4.3816,4.3393,4.3393,4.3662,4.4085,4.4628,4.4205,4.3517,4.2556,4.2201,4.1744,4.1079,4.1805,4.2312,4.2312,4.2575,4.2886,4.3245,4.2982,4.257,4.2005,4.0865,3.9725,0.0,0.0,0.0,0.0,0.0,0.0,0.0,0.0,0.0,0.0,0.0,0.0,0.0,0.0,0.0,0.0,0.0,0.0,0.0,0.0,0.0,0.0,0.0,0.0,0.0,0.0,4.8922,4.9165,4.9942,5.0248,4.9674,5.0889,5.2035,5.2922,5.3492,5.4173,5.4983,5.5061,5.5287,5.59,5.59,5.59,5.59,5.5326,5.5061,5.5022,5.3647,5.2807,5.2502,5.167,5.1095,5.0859,5.1134,5.125,5.125,5.125,5.125,5.125,5.0906,5.0821,5.0821,5.0821,5.0829,5.0842,5.0816,5.0821,5.0825,5.0892,5.0901,5.0905,5.089,5.0882,5.0901,5.0901,5.088,5.0821,5.0821,5.0821,5.0821,5.0821,5.0821,5.0816,5.0842,5.0842,5.0413,4.8968,4.8403,4.7421,4.515,4.4752,4.4744,4.4744,4.4744,4.4936,4.5518,4.4859,4.4085,4.3547,4.3278,4.2739,4.1889,4.2585,4.297,4.2701,4.2931,4.3085,4.3085,4.3085,4.2816,4.2235,4.1393,4.0819,4.0589,0.0,0.0,0.0,0.0,0.0,0.0,0.0,0.0,0.0,0.0,0.0,0.0,0.0,0.0,0.0,0.0,0.0,0.0,0.0,0.0,0.0,0.0,0.0,4.8469,4.9243,5.009,5.0902,5.1757,5.2264,5.2264,5.2996,5.3816,5.4666,5.4669,5.5027,5.5866,5.5905,5.5905,5.5905,5.5905,5.5905,5.5905,5.5905,5.5905,5.5905,5.5103,5.428,5.343,5.2592,5.1796,5.1018,5.1873,5.2225,5.2225,5.2225,5.2225,5.2101,5.1168,5.0782,5.0782,5.0782,5.0846,5.0888,5.0886,5.0898,5.0898,5.0898,5.0898,5.0902,5.0906,5.0902,5.0902,5.0914,5.0906,5.0902,5.0906,5.0902,5.0898,5.0898,5.0898,5.089,5.0892,5.0884,5.0601,4.9633,4.878,4.7671,4.6013,4.5663,4.5594,4.5594,4.5594,0.0,4.5594,4.4859,4.4316,4.4316,4.3624,4.2816,4.1966,4.2624,4.2739,4.1889,4.2585,4.3047,4.3047,4.3085,4.3124,4.3124,4.2312,4.2312,4.3085,0.0,0.0,0.0,0.0,0.0,0.0,0.0,0.0,0.0,0.0,0.0,0.0,0.0,0.0,0.0,0.0,0.0,0.0,0.0,0.0,0.0,4.9126,5.0206,5.0206,5.0945,5.1838,5.2685,5.3536,5.4078,5.4078,5.48,5.5372,5.5604,5.5629,5.5702,5.5968,5.5968,5.5968,5.5968,5.5968,5.5968,5.5968,5.5968,5.5968,5.5968,5.5174,5.4637,5.4409,5.3532,5.2999,5.2801,5.3037,5.3153,5.3153,5.3153,5.2767,5.2109,5.1226,5.0866,5.0866,5.0866,5.0874,5.0886,5.0894,5.0898,5.0898,5.0898,5.0898,5.0921,5.1037,5.0992,5.0909,5.1075,5.0995,5.0929,5.1001,5.0988,5.0898,5.0898,5.0898,5.0898,5.0886,5.0882,5.0457,4.898,4.8481,4.7943,4.6834,4.6099,4.568,4.568,4.5616,0.0,4.5594,4.5398,4.5013,4.4359,4.4667,4.4551,4.3701,4.3316,4.3008,4.2777,4.1781,4.1512,4.2119,4.2777,4.3355,4.397,4.4359,4.409,0.0,0.0,0.0,0.0,0.0,0.0,0.0,0.0,0.0,0.0,0.0,0.0,0.0,0.0,0.0,0.0,0.0,0.0,0.0,0.0,0.0,0.0,5.0988,5.2208,5.2532,5.2655,5.3076,5.3923,5.4503,5.4929,5.5277,5.5737,5.6008,5.6008,5.6008,5.6162,5.6549,5.6201,5.6162,5.6549,5.6201,5.6008,5.6008,5.6008,5.6008,5.6008,5.5543,5.5122,5.4774,5.4271,5.385,0.0,5.3884,5.4039,5.4039,5.4039,5.3734,0.0,0.0,0.0,0.0,0.0,5.0898,5.091,5.0977,5.096,5.097,5.103,5.1011,5.1026,5.1136,5.107,5.1044,5.1172,5.112,5.1029,5.11,5.1067,5.1011,5.1011,5.1011,5.1011,5.1011,5.1011,5.061,4.9236,0.0,0.0,4.7183,4.6306,4.5687,4.5687,4.5667,4.5642,4.5625,4.562,4.5424,4.4898,4.5282,4.5244,4.4359,4.3855,0.0,0.0,0.0,4.2474,4.3355,4.3893,0.0,0.0,0.0,0.0,0.0,0.0,0.0,0.0,4.7163,4.7466,0.0,0.0,0.0,0.0,0.0,0.0,0.0,0.0,0.0,0.0,0.0,0.0,0.0,0.0,0.0,0.0,5.2837,5.4184,5.4938,5.4347,5.4088,5.4856,5.4929,5.5238,5.593,5.6008,5.6046,5.6124,5.6162,5.6549,5.74,0.0,0.0,0.0,0.0,5.6008,5.6008,5.6008,5.6008,5.6008,5.6008,5.5621,5.4929,5.4929,5.4503,5.3807,5.4581,5.4929,5.4929,5.4929,5.489,5.4619,5.2883,5.1679,5.0902,5.0921,5.0929,5.0952,5.1059,0.0,0.0,5.1176,5.1201,5.1203,5.1213,5.1209,5.1205,5.1224,5.1216,5.1203,5.1213,5.1209,5.1201,5.1201,5.1201,5.1201,5.1201,5.1201,5.0908,5.0003,4.9171,4.8364,4.7427,4.639,4.5692,4.5692,4.5688,4.5711,4.5713,4.5709,4.5693,4.5612,0.0,0.0,4.4526,4.4449,4.4141,4.3448,4.4141,4.4987,4.5873,4.5992,4.6416,4.7176,4.7292,4.8023,4.9413,4.949,4.9957,5.0649,4.848,4.8673,0.0,0.0,0.0,0.0,0.0,0.0,0.0,0.0,0.0,0.0,0.0,0.0,0.0,0.0,0.0,5.3024,5.4123,5.5059,5.5896,5.5877,5.5755,5.5775,5.5776,5.5814,5.5969,5.6008,5.6278,5.7013,5.7052,5.7439,5.8299,5.7516,0.0,5.7284,5.6433,5.6008,5.6008,5.6008,5.6008,5.6008,0.0,0.0,5.5776,5.5776,5.5659,5.5543,5.5698,5.5776,5.5776,5.5776,5.5393,5.4619,5.2883,5.1679,5.0917,5.1004,5.1043,5.1065,5.1142,5.1176,5.1178,5.1197,5.1201,5.1214,5.127,5.125,0.0,5.1313,5.1285,5.1216,5.1272,5.1247,5.1201,5.1201,5.1201,5.1201,5.1201,5.1201,5.0926,5.0057,4.9744,4.935,4.8442,4.6902,4.5777,4.5777,4.5746,4.5684,4.5715,4.5711,4.5711,4.5665,4.5661,4.5622,4.5429,4.5429,4.5352,4.5198,4.6008,4.6844,4.7658,4.8382,4.8823,4.8977,4.9671,4.9864,4.9478,5.0173,5.0635,5.079,5.0937,5.1265,0.0,0.0,0.0,0.0,0.0,0.0,0.0,0.0,0.0,0.0,0.0,4.9717,5.0561,0.0,5.3677,5.4939,5.5892,5.6561,5.6959,5.6994,5.6794,5.6239,5.6136,5.63,5.6649,5.6719,5.7032,5.7873,5.7946,5.8333,5.9188,5.841,5.8139,5.8604,5.7753,5.7288,5.7288,5.6859,5.6665,5.6665,5.6201,5.6008,5.6008,5.6008,5.6008,5.6012,5.6064,5.6102,5.6106,5.6145,5.567,5.4779,5.3497,5.2444,5.1544,5.1245,5.113,5.1145,5.1234,5.1258,5.1262,5.129,5.1297,5.1301,5.1355,5.1311,5.1305,5.1366,5.136,5.1301,5.1356,5.1349,5.1297,5.1297,5.1297,5.1297,5.1297,5.1297,5.1017,5.0137,4.9937,4.9655,4.8768,4.7823,4.7059,4.6564,4.6461,4.626,4.5808,4.6144,4.6214,4.5766,4.6499,4.6807,4.6383,4.6769,4.7155,4.7579,4.8004,4.8647,4.9474,4.992,5.0165,5.0165,5.0589,5.0589,5.0165,5.0589,5.1014,5.1477,5.2316,5.2689,0.0,0.0,0.0,0.0,0.0,0.0,0.0,0.0,4.863,4.9687,5.0976,5.2148,5.2958,5.4451,5.582,5.663,5.7537,5.8086,5.7995,5.7952,5.7628,5.6727,5.657,5.6785,5.7388,5.7573,5.8033,5.8843,5.8912,5.9296,6.0148,5.9373,5.9218,5.9955,5.9106,5.8641,5.8641,5.7978,5.7548,5.735,5.6816,5.6389,5.6071,5.623,5.623,5.604,5.6168,5.6215,5.6224,5.6278,5.5881,5.5182,5.4377,5.3483,5.2487,5.1552,5.1225,5.1236,5.1294,5.1307,5.1312,5.1366,5.1406,5.1406,5.1406,5.1406,5.1406,5.1406,5.1406,5.1406,5.1406,5.1406,5.1406,5.1406,5.1406,5.1406,5.1406,5.1406,5.1171,5.0417,5.0257,5.0015,4.9276,4.9151,4.8774,4.7658,4.7483,4.7201,4.6411,4.6929,4.7097,4.6298,4.7488,4.8105,4.7565,4.8183,4.8912,4.9714,4.9757,5.0104,5.0795,5.0838,5.0804,5.0804,5.0804,5.0881,5.1078,5.1078,5.1503,5.2391,5.3271,5.3653,4.8762,4.8528,4.8723,4.9464,4.9073,4.9116,0.0,0.0,5.1432,5.3078,5.3586,5.3977,5.4839,5.5815,5.6752,5.7613,5.8431,5.8977,5.894,5.8941,5.8629,5.781,5.7577,5.7481,5.7587,5.8291,5.9104,5.9947,6.0022,6.037,6.1183,6.0448,6.0061,6.0178,5.9326,5.8861,5.8861,5.8783,5.8313,5.7568,5.8235,5.7766,5.6278,5.7062,5.6982,5.6278,5.629,5.6294,5.6294,5.6306,5.6232,5.6084,5.5327,5.4483,5.3502,5.1872,5.129,5.1296,5.1363,5.1406,5.1406,5.1406,5.1406,5.1406,5.1406,5.1406,5.1406,5.1406,5.1406,5.1406,5.1406,5.1406,5.1406,5.1406,5.1406,5.1406,5.1406,5.1406,5.1367,5.125,5.125,5.121,5.1093,5.1092,5.0497,4.8691,4.8436,4.8366,4.8214,4.8275,4.8266,4.8124,4.8264,4.8651,4.9343,4.9498,4.9908,5.0683,5.0754,5.0793,5.0876,5.0909,5.0886,5.0886,5.0886,5.1277,5.2058,5.2058,5.2484,5.3369,5.4224,5.459,5.0126,4.9929,4.989,5.1258,5.1336,5.1496,5.3105,5.3185,5.3266,5.4482,5.4757,5.5186,5.6554,5.7101,5.7804,0.0,5.9639,5.9872,5.9872,5.9404,5.8819,5.7999,5.8242,5.846,5.8435,5.9214,6.006,6.0836,6.091,6.1066,6.1376,6.1066,6.091,6.091,6.0522,6.0368,6.0368,5.9862,5.9435,5.9044,5.8967,5.8265,5.7053,5.7443,5.7153,5.6363,5.6363,5.6418,5.6475,5.6475,5.6475,5.6397,5.5582,5.5036,5.4489,5.2769,5.1791,5.1363,5.1406,5.1406,5.1406,5.1406,5.1406,5.1406,5.1406,5.1406,5.1406,5.1406,5.1406,5.1406,5.1406,5.1406,5.1406,5.1406,5.1406,5.1406,5.1406,5.1406,5.1406,5.1406,5.1406,5.1406,5.1406,5.1406,5.1132,5.0337,4.9769,4.9223,4.8641,4.9015,4.9501,4.9998,4.9567,4.9642,5.0495,5.0542,5.0645,5.1016,5.0944,5.0894,5.0917,5.089,5.0898,5.0898,5.1409,5.1834,5.2186,5.2728,5.3386,5.4271,5.4619,5.5036,5.071,5.0593,5.0515,5.2274,5.2703,5.2978,5.4118,5.4353,5.4628,5.5492,5.5649,5.604,5.729,5.7915,5.8618,5.9828,6.0453,6.0765,6.0765,6.0024,5.9244,5.8657,5.9087,5.9446,5.9375,6.0155,6.1008,6.1767,6.1842,6.196,6.2194,6.196,6.1842,6.1842,6.1607,6.149,6.149,6.0868,6.04,6.0166,5.9855,5.9074,5.8019,5.8019,5.7681,5.7147,5.7147,5.707,5.6944,5.6944,5.6827,5.6554,5.5894,5.5504,5.5153,5.3866,5.2695,5.1758,5.1758,5.1601,5.1406,5.1406,5.1406,5.1406,5.1406,5.1406,5.1406,5.1406,5.1406,5.1406,5.1406,5.1406,5.1406,5.1406,5.1406,5.1406,5.1406,5.1406,5.1406,5.1406,5.1406,5.1406,5.1406,5.1406,5.1406,5.1406,5.0816,5.0132,4.942,4.9898,5.0503,5.1123,5.062,5.0503,5.1162,5.1179,5.1133,5.1133,5.1046,5.0974,5.097,5.0966,5.1064,5.125,5.1877,5.2457,5.2921,5.354,5.431,5.5122,5.5122,5.5427,5.0124,5.0124,5.0515,5.2274,5.2703,5.3133,5.485,5.5241,5.5514,5.6372,5.6567,5.6567,5.6645,5.7972,5.9065,5.9143,6.0549,6.1642,6.1642,6.0901,6.0355,6.0316,6.0355,6.0356,0.0,6.1156,6.2023,6.2883,6.2961,6.3312,6.4171,6.339,6.2961,6.2961,6.2141,6.1672,6.1672,6.1672,6.1242,6.0382,6.1203,6.0734,5.9054,5.9054,5.9054,5.9014,5.9014,5.8585,5.7843,5.7843,5.7374,5.6593,5.6554,5.6046,5.5304,5.5231,5.414,5.2656,5.2656,5.2109,5.1406,5.1406,5.1406,5.1406,5.1406,5.1406,5.1406,5.1406,5.1406,5.1406,5.1406,5.1406,5.1406,5.1406,5.1406,5.1406,5.1406,5.1406,5.1406,5.1406,5.1406,5.1406,5.1406,5.1406,5.1406,5.1406,5.1367,5.1326,5.1222,5.1169,5.1162,5.1201,5.1162,5.1162,5.1201,5.1199,5.1197,5.1197,5.1195,5.1154,5.1083,5.1077,5.1444,5.2152,5.2186,5.3037,5.4735,5.4735,5.52,5.5969,5.5969,5.5969,5.0085,5.0085,5.067,5.2975,5.3561,5.4029,5.5786,5.6177,5.6255,5.6527,5.6605,5.6761,5.7309,5.7855,5.8792,6.0548,6.1328,6.1914,6.2461,6.2306,6.1681,6.0549,6.09,0.0,6.0471,0.0,0.0,6.2942,6.2981,6.3372,6.4231,6.4036,6.3606,6.302,6.2708,6.2278,6.1692,6.1692,6.1536,6.1261,6.0989,6.0521,5.9935,5.9349,5.9114,5.9114,5.9114,5.8607,5.7827,5.7827,5.7359,5.6617,5.6584,5.6432,5.6164,5.6168,5.5429,5.4336,5.375,5.3008,5.2266,5.2266,5.1875,5.1406,5.1406,5.1406,5.1406,5.1406,5.1406,5.1406,5.1406,5.1406,5.1406,5.1406,5.1406,5.1406,5.1406,5.1406,5.1406,5.1406,5.1406,5.1406,5.1406,5.1406,5.1406,5.1406,5.1406,5.1406,5.1364,5.1358,5.1314,5.1314,5.1314,5.1314,5.1314,5.1292,5.1272,5.1272,5.1231,5.1462,5.202,5.2017,5.2396,5.3091,5.3705,5.4272,5.4813,5.5354,5.5737,5.6008,5.6008,5.6008,5.0085,5.0085,5.0748,5.3365,5.399,5.4458,5.6215,5.6372,5.6138,5.6138,5.5903,5.5825,5.6333,5.6957,5.8128,6.0392,6.1289,6.2109,6.3282,6.3204,6.2696,6.1877,6.1993,6.2071,0.0,0.0,0.0,6.3438,6.375,6.4297,6.5157,6.4922,6.4492,6.3945,6.3633,6.3047,6.2187,6.2148,6.1992,6.168,6.1133,6.0861,6.0861,6.0274,6.004,6.004,6.004,5.9377,5.8246,5.8246,5.7621,5.6606,5.6613,5.6582,5.659,5.6596,5.6248,5.5625,5.4765,5.3906,5.3164,5.3164,5.2578,5.1875,5.1875,5.1641,5.1445,5.1797,5.1875,5.1953,5.2266,5.2344,5.2344,5.2344,5.2344,5.2344,5.2344,5.2344,5.2344,5.2344,5.207,5.1875,5.1875,5.1601,5.1406,5.1406,5.1406,5.1406,5.1406,5.1406,5.1406,5.1406,5.1406,5.1406,5.1406,5.1362,5.1471,5.1784,5.1762,5.2127,5.2965,5.3004,5.3358,5.4077,5.4615,5.5048,5.5293,5.5771,5.6008,5.6008,5.6008,5.6008,5.0124,5.0124,5.0787,5.3365,5.399,5.4458,5.6136,5.5903,5.528,5.5241,5.4576,5.399,5.399,5.5434,5.7151,5.8908,6.0626,6.2383,6.4181,6.3751,6.3555,0.0,0.0,0.0,0.0,0.0,0.0,6.4376,0.0,6.5936,6.6757,6.6092,6.5624,6.5585,6.4805,6.3946,6.3086,6.3008,6.2579,6.1758,6.1719,6.1719,6.1719,6.1719,6.1719,6.1719,6.1719,6.0743,5.9142,5.9103,5.8166,5.6722,5.6644,5.6612,5.6661,5.6629,5.6596,5.6482,5.5664,5.4805,5.4062,5.4062,5.3476,5.2773,5.2773,5.2187,5.1719,5.2539,5.2773,5.2969,5.3789,5.3984,5.3984,5.3984,5.3984,5.3984,5.3984,5.3984,5.3984,5.3984,5.332,5.2773,5.2773,5.207,5.1523,5.1523,5.1523,5.1523,5.1484,5.1484,5.1484,5.1523,5.1523,5.1523,5.1523,5.1523,5.1875,5.2695,5.2773,5.3122,5.3959,5.3957,5.4324,5.5073,5.5011,5.5372,5.6214,5.6056,5.6008,5.6008,5.6008,5.6008,5.028,5.0554,5.153,5.3522,5.399,5.4303,5.5396,5.5475,5.5124,5.4459,5.4147,5.399,5.399,5.5434,5.7347,5.969,6.1525,0.0,6.582,6.6522,0.0,6.6211,0.0,6.5664,6.5312,6.5273,0.0,0.0,6.5468,6.5936,6.6757,6.6601,6.6209,6.5624,6.539,6.4843,6.3985,6.3321,6.2891,6.2657,6.1992,6.1719,6.1719,6.1719,6.1719,6.1719,6.1719,6.1094,6.0002,5.9377,5.8869,5.8323,5.7073,5.6964,5.7402,5.6819,5.6593,5.656,5.6366,5.5703,5.4961,5.4961,5.4375,5.3672,5.3672,5.3516,5.3398,5.3594,5.3672,5.3711,5.3945,5.3984,5.3984,5.3984,5.3984,5.3984,5.3984,5.3984,5.3984,5.3984,5.3828,5.3672,5.3672,5.3476,5.3359,5.3359,5.3359,5.3086,5.2461,5.2383,5.2617,5.3281,5.3359,5.3359,5.3359,5.3359,5.3437,5.3633,5.3672,5.4062,5.492,5.4959,5.5302,5.612,5.601,5.6038,5.6214,5.6056,5.6008,5.6008,5.6008,5.6356,5.0788,5.1297,5.2195,5.3171,5.3717,5.4029,5.4148,5.4148,5.3796,5.2545,5.2584,5.2741,5.235,5.4342,5.6879,0.0,0.0,0.0,6.6951,6.7771,6.8044,0.0,6.7928,0.0,6.6795,6.6717,6.6522,0.0,6.6131,6.6327,6.6796,6.6796,6.6601,6.6131,6.6131,6.5702,6.4883,6.3633,6.3008,6.3008,6.2109,6.1719,6.1719,6.1719,6.1719,6.1719,0.0,6.1211,6.0354,5.9885,5.9455,5.9025,5.8049,5.7744,5.7754,5.7285,5.6902,5.6597,5.6599,5.6288,5.5859,5.5859,5.5273,5.457,5.457,5.4297,5.4062,5.4453,5.457,5.4648,5.5039,5.5156,5.5156,5.5156,5.5156,5.5156,5.5156,5.5156,5.5039,5.4648,5.457,5.4453,5.4062,5.3984,5.3984,5.3984,5.3984,5.3945,5.3867,5.3516,5.3476,5.3945,5.3984,5.3984,5.3984,5.3984,5.4141,5.4531,5.457,5.4961,5.582,5.5859,5.6092,5.6551,5.6433,5.6537,5.6877,5.6699,5.6823,5.7176,5.7134,5.7404,5.157,5.2196,5.2859,5.2859,5.3444,5.3756,5.2898,5.2703,5.2235,5.0593,5.0866,5.118,5.0398,5.3014,5.6139,5.8674,0.0,6.4219,6.7771,6.8279,6.863,6.9646,6.9645,6.9294,6.8511,6.8238,6.7771,6.7031,6.6874,6.6796,6.6796,6.6796,6.6796,6.6796,6.6796,6.6445,6.578,6.414,6.3282,6.3164,6.2304,6.1797,6.1719,6.1719,6.1719,6.1719,0.0,0.0,6.0549,6.0432,6.0002,5.9416,5.9181,5.8719,5.8103,5.7908,5.7367,5.6748,5.6636,5.6598,5.6599,5.6601,5.6094,5.5469,5.5469,5.4922,5.4492,5.5273,5.5469,5.5664,5.6406,5.6601,5.6601,5.6601,5.6601,5.6601,5.6601,5.6601,5.6367,5.5625,5.5469,5.5234,5.4492,5.4336,5.4336,5.4336,5.4336,5.4609,5.539,5.4726,5.4219,5.4336,5.4336,5.4336,5.4336,5.4336,5.4687,5.543,5.5469,5.5859,5.6758,5.6758,5.6836,5.6953,5.686,5.7192,5.7855,5.7655,5.7962,5.8703,5.8617,5.8647,5.2469,5.3094,5.3756,5.3756,5.3873,5.3756,5.2898,5.2703,5.2391,5.1375,5.1297,5.1336,5.1219,5.3444,5.6139,5.8674,6.1291,6.4453,6.8591,6.9176,6.9762,0.0,7.0894,7.0424,7.0268,6.8941,0.0,0.0,0.0,6.6796,6.6796,6.6796,6.6796,6.6796,6.6796,6.6718,6.6601,6.5624,6.4804,6.4064,6.3204,6.2383,6.1719,6.1719,6.1719,6.1719,6.1719,0.0,6.1407,6.0705,6.0744,6.1094,5.965,5.9457,5.9771,5.8327,5.7709,5.7483,5.682,5.659,5.6596,5.6601,5.6484,5.6367,5.6367,5.6289,5.6172,5.6328,5.6367,5.6406,5.6562,5.6601,5.6601,5.6601,5.6601,5.6601,5.6601,5.6601,5.6562,5.6406,5.6367,5.6328,5.6172,5.6133,5.6133,5.6133,5.6133,5.6211,5.6367,5.5625,5.5351,5.6055,5.6133,5.6133,5.6133,5.6133,5.6211,5.6367,5.6367,5.6758,5.7656,5.7656,5.8008,5.8711,5.8618,5.8637,5.8754,5.8556,5.8551,5.8703,5.8617,5.8995,5.3063,5.3801,5.4281,5.3428,5.3555,5.3448,5.172,5.1687,5.1648,5.0321,5.0789,5.1258,5.0827,5.2858,5.5318,5.7464,5.9572,6.2618,6.7382,6.8046,6.9022,7.1675,7.1636,7.1206,7.0737,6.9956,6.9253,0.0,0.0,6.7772,6.6835,6.6796,6.6796,6.6796,6.6796,6.6796,6.6796,6.6014,6.539,6.496,6.3633,6.2774,6.2343,6.1914,6.1719,6.1719,6.1719,0.0,6.168,6.125,6.1328,6.1602,6.0782,6.0431,6.0315,5.9456,5.8874,5.8371,5.7518,5.7209,5.7175,5.6754,5.66,5.6601,5.6601,5.6601,5.6601,5.6601,5.6601,5.6601,5.6601,5.6601,5.6601,5.6601,5.6601,5.6601,5.6601,5.6601,5.6601,5.6601,5.6601,5.6601,5.6601,5.6601,5.6601,5.6601,5.6992,5.7265,5.7265,5.7305,5.7148,5.664,5.6601,5.6601,5.6601,5.6601,5.6797,5.7265,5.7265,5.7656,5.8555,5.8594,5.8789,5.918,5.9137,5.9328,5.9718,5.9611,5.9787,6.0213,6.0067,6.0224,5.3634,5.4492,5.475,5.3132,5.3234,5.3143,5.0876,5.0851,5.0973,4.9616,5.0438,5.1258,5.0749,5.2506,5.4692,5.68,5.8557,6.1407,6.6366,6.7226,6.8514,7.1636,7.1987,0.0,7.105,7.0815,0.0,0.0,0.0,0.0,6.7148,6.6913,6.6796,6.6796,6.6796,6.6796,6.6796,6.617,6.578,6.5585,6.4023,6.3164,6.2969,6.2109,6.1719,6.1719,6.1719,0.0,0.0,6.1719,6.1672,6.1661,6.1661,6.1225,6.055,6.0392,5.9885,5.9183,5.8299,5.7991,5.7877,5.7264,5.6858,5.6599,5.6601,5.6601,5.6601,5.6601,5.6601,5.6601,5.6601,5.6601,5.6601,5.6601,5.6601,5.664,5.6836,5.6875,5.6875,5.6875,5.6875,5.6836,5.664,5.6758,5.6875,5.6875,5.7617,5.8164,5.8164,5.8789,5.8672,5.7305,5.6992,5.6797,5.6601,5.6758,5.7187,5.7851,5.8086,5.8555,5.9414,5.9453,5.9531,5.9726,5.9726,6.0039,6.0664,6.0608,6.094,6.1602,6.1393,6.1306,5.4531,5.5353,5.5595,5.3937,5.3554,5.3194,5.1466,5.1174,5.1193,5.1171,5.1297,5.1609,5.2313,5.3288,5.5082,5.8323,6.0314,6.3007,6.7379,6.8669,6.988,7.1753,0.0,0.0,7.187,7.1167,0.0,0.0,0.0,0.0,6.8044,6.7224,6.6796,6.6796,6.6796,6.6796,6.6796,6.6718,6.6327,6.5585,6.4649,6.3751,6.2969,6.2109,6.1719,6.1719,6.1719,0.0,0.0,6.1719,6.1648,6.1504,6.1504,6.1367,6.1033,6.0326,5.9973,5.9779,5.8924,5.8613,5.8619,5.8527,5.7634,5.6594,5.6599,5.66,5.66,5.6601,5.6601,5.6601,5.6601,5.6601,5.6601,5.6601,5.6601,5.6836,5.7617,5.7773,5.7773,5.7773,5.7773,5.7539,5.6758,5.7265,5.7773,5.7773,5.8515,5.9062,5.9062,5.914,5.914,5.8984,5.8242,5.7461,5.668,5.7344,5.7812,5.789,5.8633,5.9453,6.0273,6.0273,6.0664,6.1445,6.1484,6.1523,6.1562,6.1507,6.1526,6.1602,6.1393,6.1306,5.4387,5.5232,5.5555,5.4525,5.3863,5.3205,5.2094,5.1463,5.1086,5.1168,5.1647,5.2029,5.1834,5.2566,5.3991,5.6411,5.7387,5.9534,6.4336,6.5312,6.6756,7.0037,7.0427,0.0,0.0,0.0,0.0,0.0,0.0,0.0,6.8903,6.8044,6.7342,6.6835,6.6796,6.6796,6.6796,6.6796,6.664,6.6327,6.5468,6.4882,6.4491,6.3049,6.2364,6.2323,6.1683,0.0,0.0,6.138,6.1354,6.131,6.131,6.1279,6.1151,6.0837,6.0717,6.06,5.9777,5.9467,5.9389,5.8855,5.8318,5.7862,5.7857,5.7875,5.7936,5.7977,5.7638,5.7295,5.7343,5.6992,5.6601,5.6601,5.6992,5.7461,5.7812,5.832,5.8672,5.8672,5.8672,5.8555,5.8203,5.8437,5.8672,5.8672,5.9375,5.9922,5.9922,6.039,6.0508,5.9961,5.918,5.8555,5.8203,5.8476,5.8906,5.9375,5.9726,6.0312,6.1133,6.1172,6.1367,6.168,6.1719,6.1719,6.1719,6.1677,6.1674,6.1673,6.1534,6.1451,5.4155,5.5034,5.5396,5.4482,5.3794,5.3108,5.2112,5.1412,5.1037,5.1346,5.1735,5.2022,5.1942,5.2269,5.3249,5.5295,5.6023,5.7927,6.2626,6.3724,6.5364,6.8917,0.0,6.9996,0.0,0.0,0.0,0.0,0.0,0.0,0.0,6.8412,6.7614,6.6834,6.6796,6.6796,6.6796,6.6778,6.6728,6.6728,6.5847,6.5445,6.5404,6.3816,6.3117,6.3033,0.0,0.0,0.0,6.1419,6.1317,6.1504,6.1233,6.1128,6.1083,6.1083,6.1083,6.1005,6.0411,6.0256,6.014,5.9516,5.9318,5.9331,5.9305,5.907,5.8795,5.8872,5.849,5.8056,5.7884,5.7616,5.7305,5.7031,5.7656,5.8359,5.8594,5.9101,5.9531,5.9531,5.9531,5.9492,5.9258,5.9414,5.9531,5.9531,6.0273,6.0781,6.0781,6.1328,6.1445,6.0859,6.0273,5.9726,5.9258,5.9414,5.9805,6.0351,6.0625,6.1055,6.168,6.1719,6.1719,6.1719,6.1719,6.1836,6.207,6.207,6.2226,6.2461,6.2405,6.2265,5.3925,5.4973,5.5209,5.361,5.3203,5.2796,5.1261,5.0917,5.1153,5.2101,5.1624,5.1552,5.3264,5.2882,5.3202,5.5955,5.7673,5.9892,6.3497,6.547,6.7231,0.0,0.0,6.9762,0.0,0.0,0.0,0.0,0.0,0.0,0.0,6.8078,6.7352,6.6832,6.6796,6.6796,6.6796,6.6683,6.6595,6.6592,6.557,6.511,6.5071,6.4205,6.3771,0.0,0.0,0.0,0.0,6.1921,6.1636,6.2196,6.135,6.0913,6.0793,6.0793,6.0793,6.0793,6.0793,6.0793,6.0793,6.0793,6.0793,6.0793,6.0793,5.9839,5.8793,5.8782,5.8882,5.8791,5.7931,5.8428,5.8945,5.8086,5.8555,5.9414,6.0195,6.039,6.039,6.039,6.039,6.0117,5.9336,5.9844,6.039,6.039,6.1133,6.168,6.168,6.168,6.1719,6.168,6.168,6.1015,5.9336,5.9922,6.039,6.039,6.1211,6.168,6.1719,6.1719,6.1719,6.1719,6.1719,6.2109,6.3008,6.3008,6.3437,6.4258,6.4203,6.4033,5.2434,5.3218,5.3728,5.325,5.271,5.2174,5.1703,5.1563,5.1504,5.1262,5.1954,5.246,5.184,5.2547,5.4056,5.6658,5.807,6.0056,6.3504,0.0,0.0,6.811,6.9826,7.0927,0.0,0.0,0.0,0.0,0.0,0.0,0.0,6.7522,6.6634,6.6447,6.6451,6.6451,6.6451,6.6406,6.6383,6.6383,6.6061,6.5611,6.5067,6.4102,0.0,0.0,0.0,0.0,0.0,6.1816,6.1581,6.1247,6.0971,6.085,6.0787,6.0787,6.0787,6.0787,6.0787,6.0787,6.0787,6.0787,6.0787,6.0787,6.0787,6.0552,6.0131,5.9699,5.966,5.956,5.8714,5.8804,5.8997,5.8731,5.9368,6.0077,6.0351,6.0859,6.1289,6.1289,6.1289,6.1211,6.0937,6.1133,6.1289,6.1289,6.1523,6.1719,6.1718,6.1718,6.1717,6.1715,6.1714,6.1482,6.0937,6.1133,6.1289,6.1289,6.1562,6.1718,6.1719,6.2265,6.2578,6.2578,6.3164,6.3594,6.3906,6.3906,6.4023,6.4297,6.4129,6.4038,5.1633,5.2368,5.2932,5.2686,5.2239,5.1885,5.1885,5.1885,5.1928,5.2092,5.2776,5.309,5.2391,5.2909,5.42,5.6466,5.7871,5.9781,6.2931,0.0,0.0,6.8067,0.0,0.0,0.0,0.0,0.0,0.0,0.0,0.0,0.0,6.6884,6.6143,6.6143,6.6243,6.631,6.631,6.6247,6.6213,6.6213,6.6181,6.5877,6.5369,6.4742,0.0,0.0,0.0,0.0,0.0,6.2133,6.1787,6.1248,6.0941,6.0787,6.0787,6.0787,6.0787,6.0787,6.0787,6.0787,6.0787,6.0787,6.0787,6.0787,6.0787,6.0866,6.08,6.0431,6.0383,6.0271,5.9467,5.9557,5.979,5.9511,6.0165,6.0849,6.0897,6.1328,6.1718,6.1718,6.1718,6.1718,6.1717,6.1717,6.1717,6.1717,6.1717,6.1834,6.2144,6.2183,6.2338,6.2647,6.2685,6.2688,6.2693,6.2381,6.2186,6.2186,6.2497,6.2691,6.2694,6.32,6.3473,6.3475,6.4023,6.4453,6.4804,6.5117,6.5273,6.5273,6.5079,6.4995,0.0,5.2219,5.262,5.1907,5.1811,5.1885,5.1885,5.2,0.0,5.4087,5.3818,5.3549,5.4434,5.3933,5.4,5.5959,5.7577,5.9496,0.0,6.4662,0.0,0.0,6.9757,0.0,0.0,0.0,0.0,0.0,0.0,0.0,0.0,6.6365,6.5904,6.5904,6.6133,6.6275,6.6275,6.6143,6.6082,6.6082,6.5976,6.5859,6.582,6.582,0.0,0.0,0.0,0.0,0.0,6.2787,6.2133,6.1941,6.1172,6.0864,6.0787,6.0787,6.0787,6.0787,6.0787,6.0787,6.0787,6.0787,6.0787,6.0787,6.0787,6.0821,6.0916,6.0971,6.1056,6.0885,6.0097,6.0568,6.1103,6.043,6.0935,6.1594,6.1671,6.1677,6.1716,6.1716,6.1716,6.1715,6.171,6.1709,6.1709,6.1787,6.1787,6.2099,6.2997,6.3076,6.3387,6.4206,6.4284,6.4284,6.4284,6.3544,6.3076,6.3076,6.3856,6.4285,6.4286,6.4363,6.4402,6.4403,6.4447,6.488,6.57,6.6523,6.6914,6.6914,6.6679,6.6592,5.0568,0.0,5.1042,5.0867,5.1362,5.1885,0.0,5.2928,5.3818,5.3549,5.3857,5.4434,5.5285,5.5241,5.6109,5.9161,6.0594,6.2041,6.3932,0.0,0.0,7.0251,0.0,0.0,0.0,0.0,0.0,0.0,0.0,0.0,0.0,6.6705,6.5904,6.5904,6.5943,6.6001,6.6001,6.5943,6.5952,6.5952,6.5929,6.5551,6.4897,6.4897,0.0,0.0,0.0,0.0,6.271,6.2935,6.2243,6.1133,6.1595,6.1402,6.0787,6.0787,6.0787,6.0787,6.0787,6.0787,6.0787,6.0787,6.0787,6.0787,6.0787,6.0793,6.0854,6.0911,6.0932,6.0902,6.0745,6.0932,6.1109,6.0932,6.1203,6.1549,6.1541,6.1617,6.1711,6.1711,6.1711,6.1711,6.1709,6.1709,6.1943,6.2608,6.2686,6.2996,6.3888,6.4004,6.4079,6.4268,6.4306,6.4306,6.4306,6.4124,6.3973,6.3973,6.4203,6.4319,6.4285,6.4945,6.5296,6.5301,6.5967,6.64,6.6599,6.6795,6.6913,6.6914,6.6679,6.6592,5.0283,5.1255,5.2231,5.2231,5.297,5.3736,5.4159,5.4351,5.4472,5.4357,5.4703,5.5324,5.6132,5.6632,5.7742,6.0358,6.1902,0.0,0.0,0.0,6.9558,7.0765,0.0,0.0,0.0,0.0,0.0,0.0,0.0,0.0,0.0,6.6397,6.5904,6.5904,6.5904,6.5904,6.5904,6.5904,6.5904,6.5904,6.5904,6.5628,6.5205,6.5205,6.4936,0.0,0.0,0.0,6.3288,6.3705,6.3121,6.1973,6.2474,6.2127,6.1402,6.1402,6.1133,6.0787,6.0787,6.0787,6.0787,6.0787,6.0787,6.0787,6.0787,6.0787,6.0793,6.0821,6.0833,6.0954,6.1373,6.1548,6.1582,6.1637,6.1795,6.1834,6.156,6.1573,6.1642,6.1702,6.1705,6.182,6.2246,6.2284,6.2596,6.3456,6.3613,6.3922,6.4775,6.4891,6.5045,6.5392,6.5469,6.5469,6.5469,6.544,6.529,6.4939,6.5246,6.5441,6.5446,6.5911,6.6342,6.6741,6.721,6.7646,6.8044,6.8044,6.785,6.75,6.7656,6.7333,5.0797,5.2956,5.4883,5.4116,5.4935,5.6011,5.6505,5.5626,5.4895,5.5555,5.5824,5.6247,5.7363,5.8275,5.9456,6.1269,0.0,0.0,6.816,6.9237,7.0014,7.0783,0.0,0.0,0.0,0.0,0.0,0.0,0.0,0.0,0.0,6.5981,6.5904,6.5904,6.5904,6.5904,6.5904,6.5904,6.5904,6.5904,6.5904,6.5904,6.5904,6.5904,6.5904,0.0,0.0,0.0,6.4589,6.4589,6.4083,6.3314,6.3468,6.3012,6.2287,6.2133,6.1633,6.0979,6.0864,6.0787,6.0787,6.0787,6.0787,6.0787,6.0787,6.0787,6.0787,6.0787,6.0787,6.1018,6.1864,6.2092,6.2166,6.2388,6.2433,6.231,6.192,6.1781,6.1779,6.2039,6.2086,6.2318,6.3089,6.3204,6.3477,6.4376,6.4493,6.4805,6.5663,6.578,6.6053,6.6718,6.6796,6.6796,6.6796,6.6796,6.6523,6.5819,6.6406,6.6796,6.6796,6.6796,6.7192,6.8098,6.8098,6.8537,6.9409,6.9409,6.906,6.8398,6.8873,6.8356,5.3004,5.6068,5.758,5.3272,5.4518,5.6478,5.5164,5.5203,5.5555,5.567,5.6285,5.7517,5.9787,6.0843,6.2145,6.4577,0.0,6.7165,0.0,0.0,0.0,0.0,0.0,0.0,0.0,0.0,0.0,0.0,0.0,0.0,0.0,6.6288,6.5904,6.5904,6.5904,6.5904,6.5904,6.5904,6.5904,6.5904,6.5904,6.5904,6.5904,6.5904,6.5904,0.0,0.0,6.4705,6.4589,6.4589,6.4083,6.3352,6.4128,6.3852,6.3051,6.2364,6.2018,6.1787,6.1056,6.0787,6.0787,6.0787,6.0787,6.0787,6.0787,6.0787,6.0787,6.0787,6.0787,6.1018,6.1864,6.2107,6.2272,6.2983,6.2722,6.2503,6.3288,6.2989,6.2853,6.3744,6.3911,6.3949,6.4064,6.4103,6.4415,6.5273,6.539,6.5702,6.6523,6.6601,6.6679,6.6796,6.6796,6.6796,6.6796,6.6796,6.6757,6.6601,6.6718,6.6796,6.6796,6.6796,6.7226,6.8086,6.8086,6.8523,6.9395,6.9395,6.9321,6.9211,6.9131,6.8968,5.235,5.5324,5.748,5.5629,5.8132,6.0781,5.955,5.8858,5.8467,5.8427,5.8729,5.9498,6.115,6.2464,6.4142,6.6724,0.0,6.8742,0.0,0.0,0.0,0.0,0.0,0.0,0.0,0.0,0.0,0.0,0.0,0.0,0.0,0.0,6.5904,6.5904,6.5904,6.5904,6.5904,6.5904,6.5904,6.5904,6.5904,6.5904,6.5904,6.5904,6.5904,6.5859,0.0,6.5282,6.5282,6.5282,6.5051,6.4743,6.5166,6.4782,6.3858,6.2557,6.2095,6.1979,6.1095,6.0787,6.0787,6.0787,6.0787,6.0787,6.0787,6.0787,6.0787,6.0787,6.0787,6.1018,6.1864,6.2403,6.2858,6.3198,6.3403,6.3587,6.3683,6.3514,6.3501,6.4029,6.4236,6.4454,6.4922,6.4999,6.5273,6.6131,6.6249,6.6366,6.6757,6.6796,6.6796,6.6796,6.6796,6.6796,6.6796,6.6796,6.6796,6.6796,6.6796,6.6992,6.7498,6.707,6.7654,6.9487,6.859,6.8988,7.0796,7.0328,7.0098,7.0106,7.0391,7.0,5.1867,5.4401,5.6971,5.8055,6.0866,6.3354,6.3264,6.181,6.0606,6.116,6.1262,6.1531,6.2382,6.4116,0.0,6.8272,6.9376,0.0,0.0,0.0,0.0,0.0,0.0,0.0,0.0,0.0,0.0,0.0,0.0,0.0,0.0,0.0,6.5904,6.5904,6.5904,6.5904,6.5904,6.5904,6.5904,6.5904,6.5904,6.5904,6.5904,6.5904,6.5904,6.5904,6.5904,6.5904,6.5904,6.5904,6.5904,6.5904,6.5904,6.5243,6.4128,6.2864,6.2133,6.171,6.1018,6.0787,6.0787,6.0787,6.0787,6.0825,6.1056,6.0979,6.0825,6.1056,6.0979,6.1018,6.1864,6.2704,6.3352,6.3545,6.4122,6.4503,6.4235,6.4132,6.4181,6.454,6.4758,6.5118,6.578,6.5897,6.6092,6.6718,6.6796,6.6796,6.6796,6.6796,6.6796,6.6796,6.6796,6.6796,6.6796,6.6796,6.6874,6.7109,6.7109,6.7303,6.7771,6.7537,6.8357,7.0348,6.9292,6.9806,7.2002,7.1339,7.0992,7.1038,7.1496,7.0994,5.3354,5.533,5.7111,5.8782,5.9453,6.0291,6.2572,6.1198,6.0086,6.245,6.2949,6.3179,6.4067,6.6267,6.8208,6.9092,7.0026,0.0,0.0,0.0,0.0,0.0,0.0,0.0,0.0,0.0,0.0,0.0,0.0,0.0,0.0,0.0,0.0,6.5904,6.5904,6.5904,6.5904,6.5904,6.5904,6.5904,6.5904,6.5904,6.5904,6.5904,6.5904,6.5904,6.5904,6.5904,6.5904,6.5904,6.5904,6.5904,6.5904,6.4859,6.3391,6.3275,6.2243,6.0864,6.0825,6.0787,6.0787,6.0787,6.0787,6.0941,6.1749,6.1441,6.0979,6.1787,6.1402,6.1018,6.1864,6.2704,6.3506,6.4314,6.4551,6.4855,6.5708,6.5455,6.5277,6.6221,6.6516,6.664,6.6718,6.6718,6.6718,6.6796,6.6796,6.6796,6.6796,6.6796,6.6796,6.6796,6.6796,6.6796,6.6796,6.6796,6.7146,6.7966,6.8005,6.7654,6.6913,6.8397,6.9295,6.949,7.0152,7.1011,7.1989,7.1951,7.1912,7.1916,7.1744,7.1649,5.2153,5.495,5.771,5.8884,6.0376,6.1966,6.3548,6.3569,6.3778,6.576,6.6128,6.6251,6.6648,0.0,6.8445,6.9252,7.0118,0.0,0.0,0.0,0.0,0.0,0.0,0.0,0.0,0.0,0.0,0.0,0.0,0.0,0.0,0.0,0.0,6.5904,6.5904,6.5904,6.5904,6.5904,6.5904,6.5904,6.5904,6.5904,6.5904,6.5904,6.5904,6.5904,6.5904,6.5904,6.5904,6.5904,6.5904,6.5904,6.5904,6.5513,6.4782,6.3698,6.3237,6.3012,6.1979,6.1595,6.1595,6.1595,6.1248,6.0864,6.1172,6.1056,6.0864,6.121,6.1441,6.1672,6.2018,6.2704,6.3506,6.4397,6.5013,6.5505,6.591,6.5845,6.5855,6.633,6.654,6.6707,6.679,6.6796,6.6796,6.6796,6.6796,6.6796,6.6796,6.6796,6.6796,6.6796,6.6796,6.6796,6.6796,6.6796,6.7185,6.8043,6.8082,6.8435,6.9176,6.9333,6.9919,7.1011,7.027,7.0582,7.1987,7.1441,7.148,7.1991,7.1827,7.174,5.1805,5.4677,5.7734,5.8835,6.0821,6.2952,6.4705,6.5339,6.6167,6.8327,6.8357,6.7898,6.7684,6.7943,0.0,0.0,0.0,0.0,0.0,0.0,0.0,0.0,0.0,0.0,0.0,0.0,0.0,0.0,0.0,0.0,0.0,0.0,0.0,0.0,6.5904,6.5904,6.5904,6.5904,6.5904,6.5904,6.5904,6.5904,6.5904,6.5904,6.5904,6.5904,6.5904,6.5904,6.5904,6.5904,6.5904,6.5904,6.5904,6.575,6.5359,6.416,6.3743,6.3666,6.2518,6.1903,6.1672,6.1672,6.1287,6.0864,6.1133,6.1018,6.0864,6.1133,6.1441,6.1826,6.2326,6.3089,6.3852,6.4474,6.5282,6.5904,6.5904,6.6024,6.6129,6.6279,6.6471,6.6626,6.6786,6.6796,6.6796,6.6796,6.6796,6.6796,6.6796,6.6796,6.6796,6.6796,6.6796,6.6796,6.6796,6.707,6.7576,6.8474,6.8786,6.9331,7.027,7.023,7.066,7.1558,7.0699,7.0816,7.1987,7.1406,7.1408,7.1996,7.1824,7.1732,5.2811,5.4683,5.7014,5.8682,6.0363,6.2548,6.5941,6.6025,6.6369,6.9723,6.9082,6.7676,6.6865,6.747,0.0,0.0,0.0,0.0,0.0,0.0,0.0,0.0,0.0,0.0,0.0,0.0,0.0,0.0,0.0,0.0,0.0,0.0,0.0,0.0,6.5904,6.5904,6.5904,6.5904,6.5904,6.5904,6.5904,6.5904,6.5904,6.5904,6.5904,6.5904,6.5904,6.5904,6.5904,6.5904,6.5904,6.5904,6.5904,6.5359,6.4628,6.4589,6.3551,6.2133,6.2133,6.1556,6.0825,6.0825,6.0825,6.0979,6.1826,6.1479,6.0979,6.1864,6.1479,6.1204,6.2891,6.3968,6.4628,6.4628,6.5282,6.5904,6.5904,6.598,6.6129,6.6279,6.6468,6.6624,6.6786,6.6796,6.6796,6.6796,6.6796,6.6796,6.6796,6.6796,6.6796,6.6796,6.6796,6.6796,6.6796,6.7615,6.8474,6.9373,7.023,7.0309,6.9451,7.1089,7.1597,7.0737,7.1558,7.1987,7.1987,7.2001,7.2006,7.2008,7.1807,7.1696,5.2964,5.5517,5.8491,5.8988,6.2159,6.5605,6.7171,6.7332,6.7782,6.9952,6.9082,6.7828,6.7591,6.7768,0.0,0.0,0.0,0.0,0.0,0.0,0.0,0.0,0.0,0.0,0.0,0.0,0.0,0.0,0.0,0.0,0.0,0.0,0.0,0.0,6.5904,6.5904,6.5904,6.5904,6.5904,6.5904,6.5904,6.5904,6.5904,6.5904,6.5904,6.5904,6.5904,6.5904,6.5904,6.5904,6.5904,6.5904,6.5904,6.5743,6.5436,6.482,6.4666,6.4673,6.4051,6.3281,6.2545,6.2545,6.1743,6.0864,6.1095,6.1018,6.0979,6.1864,6.2326,6.2814,6.3935,6.4859,6.5513,6.5513,6.5705,6.5904,6.5904,6.5921,6.6025,6.6255,6.6348,6.6495,6.6739,6.6796,6.6796,6.6796,6.6796,6.6796,6.6796,6.6796,6.6796,6.6796,6.7342,6.7693,6.7693,6.8513,6.9372,7.027,7.0541,7.0855,7.1206,7.1714,7.187,7.1636,7.187,7.1987,7.1987,7.2001,7.2006,7.2008,7.1807,7.1696,5.525,5.7657,6.0401,6.1776,6.4413,6.7087,6.8547,6.889,6.9082,6.9769,6.8852,6.779,6.7477,6.74,0.0,0.0,0.0,0.0,0.0,0.0,0.0,0.0,0.0,0.0,0.0,0.0,0.0,0.0,0.0,0.0,0.0,0.0,0.0,0.0,6.5904,6.5904,6.5904,6.5904,6.5904,6.5904,6.5904,6.5904,6.5904,6.5904,6.5904,6.5904,6.5904,6.5904,6.5904,6.5904,6.5904,6.5904,6.5904,6.5904,6.5827,6.532,6.5243,6.532,6.4782,6.382,6.282,6.282,6.1897,6.0864,6.121,6.1325,6.1441,6.1941,6.2666,6.3429,6.3929,6.4743,6.5474,6.582,6.5904,6.5904,6.5904,6.5904,6.5978,6.6247,6.631,6.641,6.6736,6.6796,6.6796,6.6796,6.6796,6.6913,6.7264,6.7303,6.7459,6.7811,6.8318,6.863,6.863,6.9411,7.0152,7.0659,7.101,7.1441,7.1987,7.1987,7.1987,7.1987,7.1987,7.1987,7.1987,7.2005,7.2012,7.2014,7.1795,7.1709,5.8567,6.0248,6.2395,6.5757,6.6819,6.7622,6.9876,7.0411,7.0181,6.9387,0.0,6.7637,6.6865,6.6705,0.0,0.0,0.0,0.0,0.0,0.0,0.0,0.0,0.0,0.0,0.0,0.0,0.0,0.0,0.0,0.0,0.0,0.0,0.0,0.0,6.5788,6.5743,6.5667,6.5667,6.5705,0.0,6.5788,6.582,6.5904,6.5904,6.5904,6.5904,6.5904,6.5904,6.5904,6.5904,6.5904,6.5904,6.5904,6.5904,6.5904,6.5904,6.5397,6.4705,6.4705,6.3634,6.221,6.221,6.1556,6.0941,6.1749,6.2056,6.2139,6.2172,6.2781,6.3429,6.3506,6.4122,6.4936,6.5705,6.5904,6.5904,6.5904,6.5904,6.5978,6.6247,6.631,6.641,6.6736,6.6796,6.6796,6.6796,6.6874,6.7185,6.8005,6.816,6.8513,6.9334,6.9451,6.9528,6.9528,7.0309,7.0815,7.0815,7.1558,7.1987,7.1987,7.1987,7.1987,7.1987,7.1987,7.1989,7.199,7.2011,7.198,7.1983,7.1771,7.17,5.7886,5.9835,6.2242,6.4993,6.7668,6.9723,7.0296,7.0411,7.0181,6.9387,6.8516,6.7637,6.6865,0.0,0.0,0.0,0.0,0.0,0.0,0.0,0.0,0.0,0.0,0.0,0.0,0.0,0.0,0.0,0.0,0.0,0.0,0.0,0.0,6.4897,6.4897,6.4551,6.3852,6.3852,6.4199,0.0,6.4897,6.5243,6.5904,6.5904,6.5904,6.5904,6.5904,6.5904,6.5904,6.5904,6.5904,6.5904,6.5904,6.5904,6.5904,6.5904,6.5788,6.5628,6.5628,6.4474,6.3045,6.3045,6.2012,6.0819,6.1018,6.1556,6.221,6.2858,6.3666,6.4474,6.5166,6.5474,6.5673,6.5865,6.5904,6.5904,6.5904,6.5904,6.5978,6.6247,6.631,6.641,6.6736,6.6796,6.6796,6.6796,6.7381,6.7888,6.8082,6.8708,6.9176,6.9373,6.9996,7.0426,7.0426,7.1206,7.1714,7.1714,7.1909,7.1987,7.1987,7.1987,7.1987,7.1987,7.1987,7.1993,7.2002,7.2015,7.1984,7.1989,7.1803,7.17,5.8039,6.0325,6.3045,6.6369,6.8814,7.0411,7.0411,7.0105,6.9578,6.8738,6.8211,6.7523,0.0,0.0,0.0,0.0,0.0,0.0,0.0,0.0,0.0,0.0,0.0,0.0,0.0,0.0,0.0,0.0,0.0,0.0,0.0,6.5105,6.4795,6.4006,6.3968,6.3775,6.3314,6.3314,6.3545,6.3968,6.3968,6.4436,6.5282,6.5705,6.5904,6.5904,6.5904,6.5904,6.5904,6.5904,6.5904,6.5904,6.5904,6.5904,6.5904,6.5904,6.5904,6.5904,6.5904,6.5013,6.3929,6.3929,6.3051,6.2012,6.2012,6.232,6.2743,6.316,6.3929,6.4705,6.5166,6.559,6.5904,6.5904,6.5904,6.5904,6.5904,6.5958,6.6074,6.6263,6.6373,6.6521,6.6741,6.6796,6.6796,6.6796,6.7537,6.8239,6.8669,6.9489,7.0191,7.0582,7.105,7.1324,7.1324,7.1753,7.1987,7.1987,7.1987,7.1987,7.1987,7.1987,7.1987,7.1987,7.1994,7.2,7.2006,7.1981,7.1952,7.1911,7.1743,7.1668,5.7803,6.063,6.3878,6.7973,6.9578,7.022,7.0372,6.9769,6.8929,6.8096,6.779,6.7209,0.0,0.0,0.0,0.0,0.0,0.0,0.0,0.0,0.0,0.0,0.0,0.0,0.0,0.0,0.0,0.0,0.0,0.0,6.443,6.4374,6.3981,6.3103,6.3077,6.3006,6.2852,6.2852,6.2929,6.3083,6.3237,6.3775,6.4628,6.5205,6.5628,6.5904,6.5904,6.5904,6.5904,6.5904,6.5904,6.5904,6.5904,6.5904,6.5904,6.5904,6.5904,6.5904,6.5904,6.532,6.4589,6.4589,6.4006,6.3314,6.3314,6.3429,6.3506,6.3506,6.416,6.482,6.482,6.5359,6.5904,6.5904,6.5904,6.5904,6.5904,6.599,6.6128,6.6271,6.6489,6.6685,6.6788,6.6796,6.6796,6.6796,6.7654,6.8591,6.9295,7.0309,7.1206,7.1909,7.1987,7.1987,7.1987,7.1987,7.1987,7.1987,7.1987,7.1987,7.1987,7.1987,7.1989,7.1991,7.2001,7.2008,7.2011,7.1986,7.1953,7.1818,7.1743,7.1665,5.5396,5.9331,6.3725,6.7209,6.8699,6.954,7.022,6.9769,6.8929,0.0,6.7362,0.0,0.0,0.0,0.0,0.0,0.0,0.0,0.0,0.0,0.0,0.0,0.0,0.0,0.0,0.0,0.0,0.0,0.0,0.0,6.4353,6.4385,6.3731,6.2228,6.2219,6.1903,6.1127,6.1127,6.1512,6.2287,6.2974,6.3775,6.4589,6.3929,6.4474,6.5904,6.5904,6.5904,6.5904,6.5904,6.5904,6.5904,6.5904,6.5904,6.5904,6.5904,6.5904,6.5904,6.5904,6.532,6.4589,6.4589,6.4006,6.3314,6.3314,6.3814,6.4436,6.4436,6.5051,6.575,6.575,6.582,6.5904,6.5904,6.5904,6.5904,6.5904,6.5929,6.6013,6.6251,6.6559,6.6787,6.6795,6.6796,6.6796,6.6796,6.8163,6.9256,6.9373,7.0816,7.187,7.1987,7.1987,7.1987,7.1987,7.1987,7.1987,7.1987,7.1987,7.1987,7.1987,7.1987,7.1994,7.2003,7.2005,7.2015,7.1988,7.1989,7.1991,7.1952,7.1846,7.1739,5.6504,5.9752,6.3006,6.6369,6.7859,6.8547,6.8929,6.8394,6.7706,6.7324,0.0,0.0,0.0,0.0,0.0,0.0,0.0,0.0,0.0,0.0,0.0,0.0,0.0,0.0,0.0,0.0,0.0,0.0,0.0,6.419,6.2922,6.2922,6.242,6.13,6.1328,6.1172,6.0787,6.0787,6.0979,6.1364,6.2249,6.2826,6.3211,6.3275,6.4237,6.5859,6.5397,6.5436,6.5904,6.5904,6.5904,6.5904,6.5904,6.5904,6.5904,6.5904,6.5904,6.5904,6.5904,6.5628,6.532,6.532,6.5051,6.4666,6.4166,6.432,6.4589,6.4589,6.4897,6.5282,6.5782,6.5904,6.5904,6.5904,6.5904,6.5904,6.5904,6.5976,6.6093,6.6418,6.6646,6.6796,6.6796,6.6796,6.6796,6.6796,6.828,6.9412,6.9412,7.0933,7.1987,7.1987,7.1987,7.1987,7.1987,7.1987,7.1987,7.1987,7.1987,7.1987,7.1987,7.1995,7.2004,7.2014,7.2014,7.1981,7.199,7.1991,7.1952,7.19,7.1842,7.1729,5.6518,5.8687,6.0677,6.4633,6.6229,6.7016,6.7736,0.0,6.6705,0.0,0.0,0.0,0.0,0.0,0.0,0.0,0.0,0.0,0.0,0.0,0.0,0.0,0.0,0.0,0.0,0.0,0.0,0.0,0.0,6.3227,6.174,6.1765,6.1454,6.0699,6.0746,6.0787,6.0787,6.0787,6.0787,6.0825,6.1441,6.1903,6.2095,6.2474,6.3628,6.5205,6.4782,6.4974,6.559,6.582,6.5904,6.5904,6.5904,6.5904,6.5904,6.5904,6.5904,6.5904,6.5904,6.5904,6.5904,6.5904,6.5904,6.5788,6.5128,6.4936,6.4936,6.4936,6.4936,6.5089,6.575,6.5904,6.5904,6.5904,6.5904,6.5904,6.5904,6.603,6.6234,6.6471,6.6656,6.6796,6.6796,6.6796,6.6874,6.7109,6.8436,6.949,6.9684,7.105,7.1987,7.1987,7.1987,7.1987,7.1987,7.1987,7.1987,7.1987,7.1987,7.199,7.1993,7.2002,7.2012,7.1983,7.1983,7.1986,7.1991,7.1992,7.195,7.185,7.185,7.1753,5.316,5.4283,5.5965,6.1296,6.3247,6.4546,6.7269,0.0,6.6705,0.0,0.0,0.0,0.0,0.0,0.0,0.0,0.0,0.0,0.0,0.0,0.0,0.0,0.0,0.0,0.0,0.0,0.0,0.0,0.0,6.2586,6.1631,6.1738,6.1428,6.0623,6.0716,6.0787,6.0787,6.0787,6.0787,6.0787,6.0864,6.1287,6.2056,6.1287,6.1858,6.3468,6.4275,6.4628,6.4743,6.5551,6.5904,6.5904,6.5904,6.5904,6.5904,6.5904,6.5904,6.5904,6.5904,6.5904,6.5904,6.5904,6.5904,6.5897,6.5865,6.582,6.582,6.582,6.582,6.5827,6.5897,6.5904,6.5904,6.5904,6.5904,6.5904,6.5904,6.6113,6.6303,6.6322,6.6573,6.6796,6.6796,6.6796,6.707,6.7927,6.8825,6.9684,7.0541,7.1441,7.1987,7.1987,7.1987,7.1987,7.1987,7.1987,7.1987,7.1987,7.1987,7.1994,7.2004,7.2005,7.2016,7.1989,7.1989,7.1991,7.1992,7.1992,7.1992,7.1992,7.1992,7.1906,5.191,5.297,5.4368,5.7901,6.003,6.1622,6.3172,6.4336,6.5115,0.0,0.0,0.0,0.0,0.0,0.0,0.0,0.0,0.0,0.0,0.0,0.0,0.0,0.0,0.0,0.0,0.0,0.0,0.0,0.0,0.0,6.0936,6.0992,6.0911,6.0654,6.074,6.0787,6.0787,6.0787,6.0787,6.0787,6.0787,6.0979,6.1248,6.0941,6.1441,6.2589,6.3397,6.4083,6.4666,6.5551,6.5904,6.5904,6.5904,6.5904,6.5904,6.5904,6.5904,6.5904,6.5904,6.5904,6.5904,6.5904,6.5904,6.5904,6.5904,6.5904,6.5904,6.5904,6.5904,6.5904,6.5904,6.5904,6.5904,6.5904,6.5904,6.5904,6.5904,6.6123,6.631,6.631,6.6569,6.6796,6.6796,6.7264,6.7732,6.8043,6.9333,7.0348,7.0659,7.1441,7.1987,7.1987,7.1987,7.1987,7.1987,7.1987,7.1987,7.1987,7.1987,7.1994,7.2005,7.2012,7.1982,7.1989,7.1991,7.1992,7.1992,7.1992,7.1992,7.1992,7.1992,7.1947,5.08,5.1565,5.2689,5.5815,5.7435,5.8773,6.0832,6.2172,6.3126,0.0,0.0,0.0,0.0,0.0,0.0,0.0,0.0,0.0,0.0,0.0,0.0,0.0,0.0,0.0,0.0,0.0,0.0,0.0,0.0,0.0,6.0518,6.0546,6.0629,6.0722,6.0763,6.0787,6.0787,6.0787,6.0787,6.0787,6.0787,6.0787,6.0787,6.0787,6.1287,6.2133,6.2935,6.3775,6.4666,6.5551,6.5904,6.5904,6.5904,6.5904,6.5904,6.5904,6.5904,6.5904,6.5904,6.5904,6.5904,6.5904,6.5904,6.5904,6.5904,6.5904,6.5904,6.5904,6.5904,6.5904,6.5904,6.5904,6.5981,6.625,6.6096,6.5981,6.625,6.6317,6.631,6.631,6.6569,6.6874,6.7185,6.7459,6.7966,6.8824,6.9723,7.0465,7.105,7.1636,7.1987,7.1987,7.1987,7.1987,7.1987,7.1987,7.1987,7.1987,7.1993,7.2,7.201,7.198,7.1987,7.1991,7.1992,7.1992,7.1992,7.1992,7.1992,7.1992,7.1992,7.1947,0.0,0.0,0.0,5.4971,5.546,0.0,6.0482,0.0,6.0849,0.0,0.0,0.0,0.0,0.0,0.0,0.0,0.0,0.0,0.0,0.0,0.0,0.0,0.0,0.0,0.0,0.0,0.0,0.0,0.0,6.045,6.0518,6.0591,6.0686,6.0819,6.0825,6.0825,6.0825,6.0825,6.0787,6.0787,6.0787,6.0787,6.0787,6.0825,6.1325,6.2172,6.2974,6.3814,6.4705,6.5551,6.5904,6.5904,6.5904,6.5904,6.5904,6.5904,6.5904,6.5904,6.5904,6.5904,6.5904,6.5904,6.5904,6.5904,6.5904,6.5904,6.5904,6.5904,6.5904,6.5936,6.5936,6.5936,6.6134,6.6904,6.6519,6.6211,6.6981,6.6742,6.6349,6.631,6.6569,6.707,6.7927,6.7381,6.7733,7.0268,6.9996,7.0076,7.1792,7.1987,7.1987,7.1987,7.1987,7.1987,7.1987,7.1987,7.1987,7.1989,7.2,7.201,7.198,7.1987,7.1991,7.1992,7.1992,7.1992,7.1992,7.1992,7.1992,7.1992,7.1992,7.1948,4.8725,0.0,0.0,0.0,0.0,0.0,0.0,0.0,0.0,0.0,0.0,0.0,0.0,0.0,0.0,0.0,0.0,0.0,0.0,0.0,0.0,0.0,0.0,0.0,0.0,0.0,0.0,0.0,6.0721,6.07,6.1395,6.1012,6.1053,6.171,6.1133,6.1095,6.171,6.1133,6.0787,6.0787,6.0787,6.0787,6.0825,6.1441,6.221,6.3006,6.3852,6.4743,6.5551,6.5788,6.5904,6.5904,6.5904,6.5904,6.5904,6.5904,6.5904,6.5904,6.5904,6.5904,6.5904,6.5904,6.5904,6.5904,6.5904,6.5904,6.5904,6.5904,6.6327,6.6789,6.6789,6.6789,6.6827,6.7058,6.7398,6.7776,6.7968,6.8096,6.779,6.6544,6.6569,6.6874,6.7109,6.8007,6.8943,6.9645,7.0621,7.1441,7.1948,7.1987,7.1987,7.1987,7.1987,7.1987,7.1987,7.1987,7.1993,7.2001,7.2004,7.2014,7.1987,7.1989,7.1991,7.1992,7.1992,7.1992,7.1992,7.1992,7.1992,7.1992,7.1992,7.1992,4.8296,4.8296,4.871,0.0,0.0,0.0,0.0,5.552,0.0,0.0,0.0,0.0,0.0,0.0,0.0,0.0,0.0,0.0,0.0,0.0,0.0,0.0,0.0,0.0,0.0,0.0,0.0,6.212,6.1707,6.1701,6.2304,6.1715,6.1595,6.2095,6.1248,6.1056,6.1556,6.1056,6.0787,6.0787,6.0787,6.0787,6.0825,6.171,6.2551,6.3352,6.4205,6.5089,6.5904,6.5904,6.5904,6.5904,6.5904,6.5904,6.5936,6.6288,6.6404,6.6436,6.6821,6.6936,6.6898,6.6519,6.6404,6.6404,6.6404,6.6404,6.6481,6.6821,6.7013,6.7173,6.7552,6.7366,6.7289,6.8013,6.8282,6.8507,6.8853,6.8909,6.861,6.7596,6.7662,6.7889,6.7889,6.8435,6.9098,6.984,7.0504,7.1167,7.1909,7.1987,7.1987,7.1987,7.1987,7.1987,7.1987,7.1987,7.1994,7.2005,7.201,7.2019,7.1989,7.1991,7.1992,7.1992,7.1992,7.1992,7.1992,7.1992,7.1992,7.1992,7.1992,7.1992,4.8296,4.8379,4.882,0.0,0.0,0.0,5.4373,5.4583,5.462,0.0,0.0,0.0,0.0,0.0,0.0,0.0,0.0,0.0,0.0,0.0,0.0,0.0,0.0,0.0,0.0,6.3037,6.3037,6.3037,6.3052,6.3086,6.3102,6.256,6.221,6.221,6.1402,6.0941,6.0941,6.0864,6.0787,6.0787,6.0787,6.0864,6.0979,6.1826,6.2666,6.3506,6.4359,6.5166,6.5904,6.5904,6.5904,6.5904,6.5904,6.5942,6.6134,6.6827,6.7173,6.7359,6.8122,6.8391,6.8276,6.7513,6.725,6.725,6.725,6.725,6.7443,6.8314,6.7936,6.7436,6.8314,6.7975,6.7789,6.9321,6.9161,6.8891,6.9667,6.9468,6.9169,6.9189,6.9221,6.9255,6.9255,6.8708,6.8786,7.0307,7.0074,7.0232,7.1792,7.1987,7.1987,7.1987,7.1987,7.1987,7.1987,7.1989,7.1995,7.2007,7.2016,7.1985,7.199,7.1992,7.1992,7.1992,7.1992,7.1992,7.1992,7.1992,7.1992,7.1992,7.1992,7.1992,4.8296,0.0,0.0,0.0,0.0,0.0,5.2391,5.2087,5.183,0.0,0.0,0.0,0.0,0.0,0.0,0.0,0.0,0.0,0.0,0.0,0.0,0.0,0.0,0.0,0.0,6.3969,6.3969,6.3969,6.4047,6.381,6.3147,6.3092,6.3083,6.3083,6.2287,6.1864,6.1864,6.1133,6.0787,6.0787,6.0787,6.1172,6.1864,6.2704,6.3545,6.4397,6.5282,6.5743,6.5904,6.5904,6.5904,6.5904,6.5904,6.6288,6.6865,6.7058,6.7552,6.816,6.8353,6.8391,6.8353,6.8199,6.816,6.816,6.816,6.816,6.8314,6.9206,6.8821,6.8353,6.9206,6.9321,6.9283,6.9629,7.0052,7.0475,7.0629,7.0691,7.0792,7.0951,6.9567,6.8357,6.8357,6.8786,6.9255,6.9606,7.0699,7.1636,7.1948,7.1987,7.1987,7.1987,7.1987,7.1987,7.1987,7.1997,7.2007,7.2016,7.1985,7.199,7.1992,7.1992,7.1992,7.1992,7.1992,7.1992,7.1992,7.1992,7.1992,7.1992,7.1992,7.1992,0.0,0.0,0.0,5.0078,0.0,0.0,0.0,5.1389,5.1132,5.2344,0.0,0.0,0.0,0.0,0.0,0.0,0.0,0.0,0.0,0.0,0.0,0.0,0.0,0.0,0.0,6.481,6.481,6.481,6.491,6.4649,6.3806,6.347,6.3121,6.2704,6.1903,6.1441,6.1441,6.1018,6.0787,6.0825,6.1248,6.1672,6.2133,6.3397,6.4199,6.4666,6.5513,6.5904,6.5904,6.5904,6.5904,6.5936,6.6327,6.675,6.7212,6.809,6.8667,6.9122,6.9507,6.9667,6.9584,6.9161,6.9045,6.9045,6.9045,6.9314,6.9744,7.0167,6.9706,6.9237,7.009,7.0014,6.9821,7.0206,7.0591,7.0898,7.0898,7.1079,7.1123,7.0896,6.9634,6.8628,6.8742,6.9489,6.9918,6.9451,7.0504,7.1519,7.1948,7.1987,7.1987,7.1987,7.1987,7.199,7.1997,7.2003,7.2013,7.1985,7.1988,7.1991,7.1992,7.1992,7.1992,7.1992,7.1992,7.1992,7.1992,7.1992,7.1992,7.1992,7.1992,7.1992,0.0,0.0,0.0,0.0,0.0,5.0298,0.0,0.0,0.0,5.2223,0.0,0.0,0.0,0.0,0.0,0.0,0.0,0.0,0.0,0.0,0.0,0.0,0.0,0.0,0.0,6.4688,6.481,6.5169,6.514,6.4918,6.444,6.3867,6.3166,6.2364,6.1518,6.1056,6.1056,6.0864,6.0864,6.1056,6.1749,6.2249,6.2633,6.3974,6.4705,6.4897,6.559,6.5904,6.5904,6.5904,6.5904,6.5981,6.6789,6.7212,6.7558,6.9129,6.9821,7.0014,7.0667,7.0898,7.0783,7.0129,6.9937,6.9937,6.9937,7.0398,7.086,7.0706,7.0321,7.0052,7.0552,7.0283,7.009,7.0744,7.0898,7.0898,7.0898,7.1036,7.0954,7.03,6.971,6.9328,6.9398,6.9996,7.027,6.9723,7.0387,7.1206,7.1909,7.1987,7.1987,7.1987,7.199,7.1996,7.2005,7.201,7.2019,7.1989,7.199,7.1991,7.1992,7.1992,7.1992,7.1992,7.1992,7.1992,7.1992,7.1992,7.1992,7.1992,7.1992,7.1992,0.0,0.0,0.0,0.0,5.0665,0.0,0.0,0.0,4.9784,4.9978,0.0,0.0,0.0,0.0,0.0,0.0,0.0,0.0,0.0,0.0,0.0,0.0,0.0,0.0,0.0,0.0,6.2691,6.4286,6.3765,6.3724,6.4468,6.4469,6.4051,6.3198,6.2364,6.1941,6.1941,6.1172,6.1172,6.1941,6.2056,6.2864,6.432,6.4512,6.5013,6.5743,6.5865,6.5904,6.5904,6.5904,6.5904,6.5981,6.6789,6.7552,6.8353,6.936,7.0167,7.0783,7.086,7.0898,7.0898,7.0783,7.0744,7.0744,7.0744,7.0821,7.0744,7.0052,7.0283,7.0629,7.0014,7.0283,7.0783,7.0898,7.0898,7.0898,7.0898,7.0925,7.0785,7.0313,7.0125,6.9921,6.9468,6.949,6.9762,7.0463,7.1285,7.187,7.1987,7.1987,7.1987,7.1987,7.1997,7.2004,7.2006,7.1982,7.1989,7.199,7.1991,7.1992,7.1992,7.1992,7.1992,7.1992,7.1992,7.1992,7.1992,7.1992,7.1992,7.1992,7.1992,7.1992,0.0,0.0,0.0,0.0,0.0,0.0,4.9867,0.0,4.8976,0.0,0.0,0.0,0.0,0.0,0.0,0.0,0.0,0.0,0.0,0.0,0.0,0.0,0.0,0.0,0.0,0.0,0.0,0.0,0.0,6.281,6.3713,6.3821,6.366,6.3314,6.2974,6.2551,6.2095,6.2204,6.2204,6.2095,6.3095,6.3935,6.4628,6.5128,6.5551,6.5904,6.5904,6.5904,6.5904,6.5904,6.5904,6.5981,6.6789,6.7628,6.8545,6.9898,7.0591,7.0898,7.0898,7.0898,7.0898,7.0898,7.0898,7.0898,7.0898,7.0898,7.0821,7.0475,7.0629,7.0821,7.0475,7.0667,7.0898,7.0898,7.0898,7.0898,7.0898,7.0898,7.0747,7.027,7.0187,7.0176,7.0169,7.0152,7.027,7.0659,7.1441,7.1987,7.1987,7.1987,7.1991,7.1999,7.2003,7.2011,7.1982,7.1987,7.199,7.1991,7.1992,7.1992,7.1992,7.1992,7.1992,7.1992,7.1992,7.1992,7.1992,7.1992,7.1992,7.1992,7.1992,7.1992,4.9114,0.0,0.0,0.0,0.0,0.0,0.0,0.0,0.0,0.0,0.0,0.0,0.0,0.0,0.0,4.9233,0.0,0.0,0.0,0.0,0.0,0.0,0.0,0.0,0.0,0.0,0.0,0.0,0.0,0.0,6.2477,6.2796,6.3083,6.3275,6.3314,6.3121,6.2787,6.3121,6.3121,6.2787,6.4012,6.4743,6.4974,6.559,6.5904,6.5904,6.5904,6.5904,6.5904,6.5904,6.5904,6.5981,6.6789,6.7475,6.8244,6.9937,7.0706,7.086,7.0667,7.0552,7.0552,7.0552,7.0706,7.0898,7.0898,7.0898,7.086,7.0629,7.0744,7.086,7.0629,7.0744,7.0898,7.0898,7.0898,7.0898,7.0898,7.0898,7.0728,7.0239,7.0154,7.0279,7.0567,7.0647,7.0776,7.101,7.1597,7.1989,7.1993,7.1994,7.1997,7.2009,7.2013,7.198,7.1989,7.199,7.1991,7.1992,7.1992,7.1992,7.1992,7.1992,7.1992,7.1992,7.1992,7.1992,7.1992,7.1992,7.1992,7.1992,7.1992,7.1992,0.0,0.0,0.0,5.0014,0.0,0.0,0.0,0.0,4.9784,0.0,0.0,0.0,0.0,0.0,4.8333,4.8333,4.9087,0.0,0.0,0.0,0.0,0.0,0.0,0.0,0.0,0.0,0.0,0.0,0.0,0.0,6.0775,6.1672,6.2518,6.3275,6.3314,6.3698,6.4512,6.3698,6.3698,6.4512,6.4589,6.5051,6.5865,6.5897,6.5904,6.5904,6.5904,6.5904,6.5904,6.5904,6.5904,6.5981,6.6789,6.7135,6.7366,6.909,7.0244,7.0783,7.0014,6.9744,6.9744,6.9744,7.0283,7.0898,7.0898,7.0898,7.0744,6.9975,7.0283,7.0706,6.9937,7.0321,7.0898,7.0898,7.0898,7.0898,7.0898,7.0898,7.0709,7.0032,7.006,7.0242,7.0392,7.0573,7.0971,7.1831,7.1987,7.1993,7.2004,7.2005,7.2009,7.2018,7.1986,7.1989,7.199,7.1992,7.1992,7.1992,7.1992,7.1992,7.1992,7.1992,7.1992,7.1992,7.1992,7.1992,7.1992,7.1992,7.1992,7.1992,7.1992,7.1992,0.0,0.0,5.162,5.0014,0.0,0.0,0.0,0.0,0.0,0.0,0.0,0.0,0.0,4.9135,4.8438,4.8438,4.8725,4.8919,0.0,0.0,0.0,0.0,0.0,0.0,0.0,0.0,0.0,0.0,5.7893,0.0,0.0,6.2127,6.3281,6.4122,6.4705,6.4897,6.4589,6.4897,6.4897,6.4628,6.5166,6.559,6.5904,6.5904,6.5904,6.5904,6.5904,6.5904,6.5904,6.5904,6.5904,6.5942,6.6211,6.6635,6.7327,6.9052,6.9513,6.9199,6.893,6.9199,6.959,6.9045,6.9391,7.0014,6.9436,6.9237,6.9321,6.9629,6.9898,7.0167,7.0437,7.0706,7.0898,7.0898,7.0898,7.0898,7.0898,7.0898,7.0863,7.0772,7.0803,7.0964,7.1195,7.1302,7.1501,7.1943,7.1987,7.1993,7.2004,7.2006,7.2013,7.1986,7.1989,7.199,7.1992,7.1992,7.1992,7.1992,7.1992,7.1992,7.1992,7.1992,7.1992,7.1992,7.1992,7.1992,7.1992,7.1992,7.1992,7.1992,7.1992,7.1992,5.0188,5.0996,0.0,5.0702,5.0849,0.0,4.953,0.0,0.0,0.0,0.0,0.0,0.0,0.0,4.8771,4.8891,4.8726,4.8615,0.0,4.9298,0.0,0.0,0.0,0.0,0.0,0.0,5.6819,5.7915,0.0,0.0,0.0,0.0,6.3281,6.4128,6.5282,6.5628,6.5051,6.5628,6.5628,6.5051,6.5628,6.5904,6.5904,6.5904,6.5904,6.5904,6.5904,6.5904,6.5904,6.5904,6.5904,6.5904,6.5904,6.6211,6.6827,6.8244,6.8436,6.7936,6.7936,6.8321,6.8667,6.8129,6.8552,6.9122,6.8584,6.8622,6.8968,6.9552,6.9898,7.0244,7.0783,7.0898,7.0898,7.0898,7.0898,7.0898,7.0898,7.0898,7.0952,7.1053,7.1158,7.127,7.1478,7.1602,7.1777,7.1979,7.1991,7.1999,7.201,7.2015,7.1982,7.199,7.1991,7.1991,7.1992,7.1992,7.1992,7.1992,7.1992,7.1992,7.1992,7.1992,7.1992,7.1992,7.1992,7.1992,7.1992,7.1992,7.1992,7.1992,7.1992,7.1992]}]]